[[{"header":{"parameterUnit":"m.s-1","parameterCategory":1,"la1":30.6,"la2":28.766,"lo1":-90.7593,"lo2":-88.6598,"dy":0.0162,"dx":0.0183,"nx":116,"ny":114,"refTime":"2023-09-14T18:00:00:Z","depth":0,"parameterNumber":2,"parameterNumberName":"U-component_of_WINDS"},"data":[0.0,0.0,0.0,0.0,0.0,0.0,0.0,0.0,0.0,0.0,0.0,0.0,0.0,0.0,0.0,0.0,0.0,0.0,0.0,0.0,0.0,0.0,0.0,0.0,0.0,0.0,0.0,0.0,0.0,0.0,0.0,0.0,0.0,0.0,0.0,0.0,0.0,0.0,0.0,0.0,0.0,0.0,0.0,0.0,0.0,0.0,0.0,0.0,0.0,0.0,0.0,0.0,0.0,0.0,0.0,0.0,0.0,0.0,0.0,0.0,0.0,0.0,0.0,0.0,0.0,0.0,0.0,0.0,0.0,0.0,0.0,0.0,0.0,0.0,0.0,0.0,0.0,0.0,0.0,0.0,0.0,0.0,0.0,0.0,0.0,0.0,0.0,0.0,0.0,0.0,0.0,0.0,0.0,0.0,0.0,0.0,0.0,0.0,0.0,0.0,0.0,0.0,0.0,0.0,0.0,0.0,0.0,0.0,0.0,0.0,0.0,0.0,0.0,0.0,0.0,0.0,0.0,0.0,0.0,0.0,0.0,0.0,0.0,0.0,0.0,0.0,0.0,0.0,0.0,0.0,0.0,0.0,0.0,0.0,0.0,0.0,0.0,0.0,0.0,0.0,0.0,0.0,0.0,0.0,0.0,0.0,0.0,0.0,0.0,0.0,0.0,0.0,0.0,0.0,0.0,0.0,0.0,0.0,0.0,0.0,0.0,0.0,0.0,0.0,0.0,0.0,0.0,0.0,0.0,0.0,0.0,0.0,0.0,0.0,0.0,0.0,0.0,0.0,0.0,0.0,0.0,0.0,0.0,0.0,0.0,0.0,0.0,0.0,0.0,0.0,0.0,0.0,0.0,0.0,0.0,0.0,0.0,0.0,0.0,0.0,0.0,0.0,0.0,0.0,0.0,0.0,0.0,0.0,0.0,0.0,0.0,0.0,0.0,0.0,0.0,0.0,0.0,0.0,0.0,0.0,0.0,0.0,0.0,0.0,0.0,0.0,0.0,0.0,0.0,0.0,0.0,0.0,0.0,0.0,0.0,0.0,0.0,0.0,0.0,0.0,0.0,0.0,0.0,0.0,0.0,0.0,0.0,0.0,0.0,0.0,0.0,0.0,0.0,0.0,0.0,0.0,0.0,0.0,0.0,0.0,0.0,0.0,0.0,0.0,0.0,0.0,0.0,0.0,0.0,0.0,0.0,0.0,0.0,0.0,0.0,0.0,0.0,0.0,0.0,0.0,0.0,0.0,0.0,0.0,0.0,0.0,0.0,0.0,0.0,0.0,0.0,0.0,0.0,0.0,0.0,0.0,0.0,0.0,0.0,0.0,0.0,0.0,0.0,0.0,0.0,0.0,0.0,0.0,0.0,0.0,0.0,0.0,0.0,0.0,0.0,0.0,0.0,0.0,0.0,0.0,0.0,0.0,0.0,0.0,0.0,0.0,0.0,0.0,0.0,0.0,0.0,0.0,0.0,0.0,0.0,0.0,0.0,0.0,0.0,0.0,0.0,0.0,0.0,0.0,0.0,0.0,0.0,0.0,0.0,0.0,0.0,0.0,0.0,0.0,0.0,0.0,0.0,0.0,0.0,0.0,0.0,0.0,0.0,0.0,0.0,0.0,0.0,0.0,0.0,0.0,0.0,0.0,0.0,0.0,0.0,0.0,0.0,0.0,0.0,0.0,0.0,0.0,0.0,0.0,0.0,0.0,0.0,0.0,0.0,0.0,0.0,0.0,0.0,0.0,0.0,0.0,0.0,0.0,0.0,0.0,0.0,0.0,0.0,0.0,0.0,0.0,0.0,0.0,0.0,0.0,0.0,0.0,0.0,0.0,0.0,0.0,0.0,0.0,0.0,0.0,0.0,0.0,0.0,0.0,0.0,0.0,0.0,0.0,0.0,0.0,0.0,0.0,0.0,0.0,0.0,0.0,0.0,0.0,0.0,0.0,0.0,0.0,0.0,0.0,0.0,0.0,0.0,0.0,0.0,0.0,0.0,0.0,0.0,0.0,0.0,0.0,0.0,0.0,0.0,0.0,0.0,0.0,0.0,0.0,0.0,0.0,0.0,0.0,0.0,0.0,0.0,0.0,0.0,0.0,0.0,0.0,0.0,0.0,0.0,0.0,0.0,0.0,0.0,0.0,0.0,0.0,0.0,0.0,0.0,0.0,0.0,0.0,0.0,0.0,0.0,0.0,0.0,0.0,0.0,0.0,0.0,0.0,0.0,0.0,0.0,0.0,0.0,0.0,0.0,0.0,0.0,0.0,0.0,0.0,0.0,0.0,0.0,0.0,0.0,0.0,0.0,0.0,0.0,0.0,0.0,0.0,0.0,0.0,0.0,0.0,0.0,0.0,0.0,0.0,0.0,0.0,0.0,0.0,0.0,0.0,0.0,0.0,0.0,0.0,0.0,0.0,0.0,0.0,0.0,0.0,0.0,0.0,0.0,0.0,0.0,0.0,0.0,0.0,0.0,0.0,0.0,0.0,0.0,0.0,0.0,0.0,0.0,0.0,0.0,0.0,0.0,0.0,0.0,0.0,0.0,0.0,0.0,0.0,0.0,0.0,0.0,0.0,0.0,0.0,0.0,0.0,0.0,0.0,0.0,0.0,0.0,0.0,0.0,0.0,0.0,0.0,0.0,0.0,0.0,0.0,0.0,0.0,0.0,0.0,0.0,0.0,0.0,0.0,0.0,0.0,0.0,0.0,0.0,0.0,0.0,0.0,0.0,0.0,0.0,0.0,0.0,0.0,0.0,0.0,0.0,0.0,0.0,0.0,0.0,0.0,0.0,0.0,0.0,0.0,0.0,0.0,0.0,0.0,0.0,0.0,0.0,0.0,0.0,0.0,0.0,0.0,0.0,0.0,0.0,0.0,0.0,0.0,0.0,0.0,0.0,0.0,0.0,0.0,0.0,0.0,0.0,0.0,0.0,0.0,0.0,0.0,0.0,0.0,0.0,0.0,0.0,0.0,0.0,0.0,0.0,0.0,0.0,0.0,0.0,0.0,0.0,0.0,0.0,0.0,0.0,0.0,0.0,0.0,0.0,0.0,0.0,0.0,0.0,0.0,0.0,0.0,0.0,0.0,0.0,0.0,0.0,0.0,0.0,0.0,0.0,0.0,0.0,0.0,0.0,0.0,0.0,0.0,0.0,0.0,0.0,0.0,0.0,0.0,0.0,0.0,0.0,0.0,0.0,0.0,0.0,0.0,0.0,0.0,0.0,0.0,0.0,0.0,0.0,0.0,0.0,0.0,0.0,0.0,0.0,0.0,0.0,0.0,0.0,0.0,0.0,0.0,0.0,0.0,0.0,0.0,0.0,0.0,0.0,0.0,0.0,0.0,0.0,0.0,0.0,0.0,0.0,0.0,0.0,0.0,0.0,0.0,0.0,0.0,0.0,0.0,0.0,0.0,0.0,0.0,0.0,0.0,0.0,0.0,0.0,0.0,0.0,0.0,0.0,0.0,0.0,0.0,0.0,0.0,0.0,0.0,0.0,0.0,0.0,0.0,0.0,0.0,0.0,0.0,0.0,0.0,0.0,0.0,0.0,0.0,0.0,0.0,0.0,0.0,0.0,0.0,0.0,0.0,0.0,0.0,0.0,0.0,0.0,0.0,0.0,0.0,0.0,0.0,0.0,0.0,0.0,0.0,0.0,0.0,0.0,0.0,0.0,0.0,0.0,0.0,0.0,0.0,0.0,0.0,0.0,0.0,0.0,0.0,0.0,0.0,0.0,0.0,0.0,0.0,0.0,0.0,0.0,0.0,0.0,0.0,0.0,0.0,0.0,0.0,0.0,0.0,0.0,0.0,0.0,0.0,0.0,0.0,0.0,0.0,0.0,0.0,0.0,0.0,0.0,0.0,0.0,0.0,0.0,0.0,0.0,0.0,0.0,0.0,0.0,0.0,0.0,0.0,0.0,0.0,0.0,0.0,0.0,0.0,0.0,0.0,0.0,0.0,0.0,0.0,0.0,0.0,0.0,0.0,0.0,0.0,0.0,0.0,0.0,0.0,0.0,0.0,0.0,0.0,0.0,0.0,0.0,0.0,0.0,0.0,0.0,0.0,0.0,0.0,0.0,0.0,0.0,0.0,0.0,0.0,0.0,0.0,0.0,0.0,0.0,0.0,0.0,0.0,0.0,0.0,0.0,0.0,0.0,0.0,0.0,0.0,0.0,0.0,0.0,0.0,0.0,0.0,0.0,0.0,0.0,0.0,0.0,0.0,0.0,0.0,0.0,0.0,0.0,0.0,0.0,0.0,0.0,0.0,0.0,0.0,0.0,0.0,0.0,0.0,0.0,0.0,0.0,0.0,0.0,0.0,0.0,0.0,0.0,0.0,0.0,0.0,0.0,0.0,0.0,0.0,0.0,0.0,0.0,0.0,0.0,0.0,0.0,0.0,0.0,0.0,0.0,0.0,0.0,0.0,0.0,0.0,0.0,0.0,0.0,0.0,0.0,0.0,0.0,0.0,0.0,0.0,0.0,0.0,0.0,0.0,0.0,0.0,0.0,0.0,0.0,0.0,0.0,0.0,0.0,0.0,0.0,0.0,0.0,0.0,0.0,0.0,0.0,0.0,0.0,0.0,0.0,0.0,0.0,0.0,0.0,0.0,0.0,0.0,0.0,0.0,0.0,0.0,0.0,0.0,0.0,0.0,0.0,0.0,0.0,0.0,0.0,0.0,0.0,0.0,0.0,0.0,0.0,0.0,0.0,0.0,0.0,0.0,0.0,0.0,0.0,0.0,0.0,0.0,0.0,0.0,0.0,0.0,0.0,0.0,0.0,0.0,0.0,0.0,0.0,0.0,0.0,0.0,0.0,0.0,0.0,0.0,0.0,0.0,0.0,0.0,0.0,0.0,0.0,0.0,0.0,0.0,0.0,0.0,0.0,0.0,0.0,0.0,0.0,0.0,0.0,0.0,0.0,0.0,0.0,0.0,0.0,0.0,0.0,0.0,0.0,0.0,0.0,0.0,0.0,0.0,0.0,0.0,0.0,0.0,0.0,0.0,0.0,0.0,0.0,0.0,0.0,0.0,0.0,0.0,0.0,0.0,0.0,0.0,0.0,0.0,0.0,0.0,0.0,0.0,0.0,0.0,0.0,0.0,0.0,0.0,0.0,0.0,0.0,0.0,0.0,0.0,0.0,0.0,0.0,0.0,0.0,0.0,0.0,0.0,0.0,0.0,0.0,0.0,0.0,0.0,0.0,0.0,0.0,0.0,0.0,0.0,0.0,0.0,0.0,0.0,0.0,0.0,0.0,0.0,0.0,0.0,0.0,0.0,0.0,0.0,0.0,0.0,0.0,0.0,0.0,0.0,0.0,0.0,0.0,0.0,0.0,0.0,0.0,0.0,0.0,0.0,0.0,0.0,0.0,0.0,0.0,0.0,0.0,0.0,0.0,0.0,0.0,0.0,0.0,0.0,0.0,0.0,0.0,0.0,0.0,0.0,0.0,0.0,0.0,0.0,0.0,0.0,0.0,0.0,0.0,0.0,0.0,0.0,0.0,0.0,0.0,0.0,0.0,0.0,0.0,0.0,0.0,0.0,0.0,0.0,0.0,0.0,0.0,0.0,0.0,0.0,0.0,0.0,0.0,0.0,0.0,0.0,0.0,0.0,0.0,0.0,0.0,0.0,0.0,0.0,0.0,0.0,0.0,0.0,0.0,0.0,0.0,0.0,0.0,0.0,0.0,0.0,0.0,0.0,0.0,0.0,0.0,0.0,0.0,0.0,0.0,0.0,0.0,0.0,0.0,0.0,0.0,0.0,0.0,0.0,0.0,0.0,0.0,0.0,0.0,0.0,0.0,0.0,0.0,0.0,0.0,0.0,0.0,0.0,0.0,0.0,0.0,0.0,0.0,0.0,0.0,0.0,0.0,0.0,0.0,0.0,0.0,0.0,0.0,0.0,0.0,0.0,0.0,0.0,0.0,0.0,0.0,0.0,0.0,0.0,0.0,0.0,0.0,0.0,0.0,0.0,0.0,0.0,0.0,0.0,0.0,0.0,0.0,0.0,0.0,0.0,0.0,0.0,0.0,0.0,0.0,0.0,0.0,0.0,0.0,0.0,0.0,0.0,0.0,0.0,0.0,0.0,1.9986,0.0,0.0,0.0,0.0,0.0,0.0,0.0,0.0,0.0,0.0,0.0,0.0,0.0,0.0,0.0,0.0,0.0,0.0,0.0,0.0,0.0,0.0,0.0,0.0,0.0,0.0,0.0,0.0,0.0,0.0,0.0,0.0,0.0,0.0,0.0,0.0,0.0,0.0,0.0,0.0,1.2207,1.2817,1.2554,1.2629,1.299,0.0,0.0,0.0,0.0,0.0,0.0,0.0,0.0,0.0,0.0,0.0,0.0,0.0,0.0,0.0,0.0,0.0,0.0,0.0,0.0,0.0,0.0,0.0,0.0,0.0,0.0,0.0,0.0,0.0,0.0,0.0,0.0,0.0,0.0,0.0,0.0,0.0,0.0,0.0,0.0,0.0,0.0,0.0,0.0,0.0,0.0,0.0,0.0,0.0,0.0,0.0,0.0,0.0,0.0,0.0,0.0,0.0,0.0,0.0,0.0,0.0,0.0,0.0,0.0,0.0,0.0,0.0,0.0,0.0,0.0,0.0,2.035,0.0,0.0,0.0,0.0,0.0,0.0,0.0,0.0,0.0,0.0,0.0,0.0,0.0,0.0,0.0,0.0,0.0,0.0,0.0,0.0,0.0,0.0,0.0,0.0,0.0,0.0,0.0,0.0,0.0,0.0,0.0,0.0,0.0,0.0,0.0,0.0,0.0,0.0,1.2571,1.3025,1.3727,1.4078,1.4101,1.3883,1.352,0.0,0.0,0.0,0.0,0.0,0.0,0.0,0.0,0.0,0.0,0.0,0.0,0.0,0.0,0.0,0.0,0.0,0.0,0.0,0.0,0.0,0.0,0.0,0.0,0.0,0.0,0.0,0.0,0.0,0.0,0.0,0.0,0.0,0.0,0.0,0.0,0.0,0.0,0.0,0.0,0.0,0.0,0.0,0.0,0.0,0.0,0.0,0.0,0.0,0.0,0.0,0.0,0.0,0.0,0.0,0.0,0.0,0.0,0.0,0.0,0.0,0.0,0.0,2.2521,2.2734,2.2746,2.3195,2.3396,2.3346,2.2472,2.2272,2.2535,2.1633,0.0,0.0,0.0,0.0,0.0,0.0,0.0,0.0,0.0,0.0,0.0,0.0,0.0,0.0,0.0,0.0,0.0,0.0,0.0,0.0,0.0,0.0,0.0,0.0,0.0,0.0,0.0,0.0,0.0,0.0,0.0,0.0,0.0,1.1948,1.2347,1.2825,1.3916,1.4525,1.4633,1.4692,1.4692,1.4658,1.4769,1.4693,1.4493,0.0,0.0,0.0,0.0,0.0,0.0,0.0,0.0,0.0,0.0,0.0,0.0,0.0,0.0,0.0,0.0,0.0,0.0,0.0,0.0,0.0,0.0,0.0,0.0,0.0,0.0,0.0,0.0,0.0,0.0,0.0,0.0,0.0,0.0,0.0,0.0,0.0,0.0,0.0,0.0,0.0,1.9119,1.9737,0.0,0.0,0.0,0.0,0.0,0.0,0.0,0.0,0.0,0.0,0.0,0.0,0.0,2.2169,2.2782,2.3301,2.3841,2.4365,2.444,2.4478,2.4478,2.4537,2.4591,2.4578,2.4428,0.0,2.3766,2.3615,0.0,0.0,0.0,0.0,0.0,0.0,0.0,0.0,0.0,0.0,0.0,0.0,0.0,0.0,0.0,0.0,0.0,0.0,0.0,0.0,0.0,0.0,0.0,0.0,0.0,0.0,0.0,0.0,0.0,0.0,0.0,0.0,0.0,1.2742,1.3269,1.3972,1.4525,1.4916,1.5137,1.5137,1.5137,1.5141,1.5237,1.5097,1.4809,1.5075,0.0,0.0,0.0,0.0,0.0,0.0,0.0,0.0,0.0,0.0,0.0,0.0,0.0,0.0,0.0,0.0,0.0,0.0,0.0,0.0,0.0,0.0,0.0,0.0,0.0,0.0,0.0,0.0,0.0,0.0,0.0,0.0,0.0,0.0,0.0,0.0,0.0,0.0,0.0,1.8957,1.976,2.0639,2.049,2.0339,0.0,0.0,0.0,0.0,0.0,0.0,0.0,0.0,0.0,2.2889,2.3138,2.3512,2.4048,2.4619,2.5021,2.5259,2.59,2.6201,2.6214,2.6527,2.6648,2.6648,2.6648,2.651,2.6239,2.5285,2.4895,2.4845,0.0,0.0,0.0,0.0,2.3712,2.3738,0.0,0.0,0.0,0.0,0.0,0.0,0.0,0.0,0.0,0.0,0.0,0.0,0.0,0.0,0.0,1.1074,0.0,0.0,0.0,0.0,0.0,0.0,0.0,0.0,1.2967,1.3412,1.4033,1.4799,1.5014,1.5288,1.5586,1.5678,1.5737,1.5737,1.5737,1.5463,1.502,1.502,1.4743,0.0,0.0,0.0,0.0,0.0,0.0,0.0,0.0,0.0,0.0,0.0,0.0,0.0,0.0,0.0,0.0,0.0,0.0,0.0,0.0,0.0,0.0,0.0,0.0,0.0,0.0,0.0,0.0,0.0,0.0,0.0,0.0,0.0,0.0,0.0,0.0,0.0,0.0,1.9798,2.0602,2.1581,2.1469,2.1419,0.0,0.0,0.0,0.0,0.0,0.0,2.2709,2.2721,2.3251,2.4368,2.4572,2.4895,2.5431,2.5975,2.6239,2.6251,2.7092,2.7494,2.7525,2.7921,2.8109,2.8109,2.826,2.815,2.7817,2.6699,2.6239,2.6226,2.6088,2.5787,2.5431,2.5431,2.5431,2.5456,0.0,0.0,0.0,0.0,0.0,0.0,0.0,0.0,0.0,0.0,0.0,0.0,0.0,0.0,1.1556,1.1556,1.1596,1.1617,0.0,0.0,0.0,0.0,0.0,0.0,1.2902,1.3672,1.4313,1.4799,1.5625,1.6036,1.6065,1.6449,1.6629,1.6629,1.6629,1.5957,1.4825,1.4825,1.4543,1.4076,0.0,0.0,0.0,0.0,0.0,0.0,0.0,0.0,0.0,0.0,0.0,0.0,0.0,0.0,0.0,0.0,0.0,0.0,0.0,0.0,0.0,0.0,0.0,0.0,0.0,0.0,0.0,0.0,0.0,0.0,0.0,0.0,0.0,0.0,0.0,0.0,0.0,0.0,0.0,2.2182,2.2696,0.0,0.0,0.0,0.0,2.2257,2.2721,2.3286,2.3879,2.3916,2.4406,2.5502,2.6084,2.6637,2.7173,2.7708,2.7984,2.7984,2.8034,2.8059,2.8059,2.8097,2.8109,2.8134,2.8643,2.8284,2.7363,2.7792,2.7984,2.7934,2.7406,2.7198,2.7173,2.7173,2.7173,2.7261,0.0,0.0,0.0,0.0,0.0,0.0,0.0,0.0,0.0,0.0,0.0,0.0,0.0,1.1542,1.1992,1.1992,1.25,1.2825,1.2825,0.0,0.0,0.0,0.0,1.3147,1.3669,1.4508,1.5176,1.5635,1.6201,1.6494,1.6479,1.6629,1.6697,1.6697,1.6697,1.6443,1.602,1.602,1.5781,1.5376,1.5229,1.4968,0.0,0.0,0.0,0.0,0.0,0.0,0.0,0.0,0.0,0.0,0.0,0.0,0.0,0.0,0.0,0.0,0.0,0.0,0.0,0.0,0.0,0.0,0.0,0.0,0.0,0.0,0.0,0.0,0.0,0.0,0.0,0.0,0.0,0.0,0.0,0.0,0.0,2.2232,2.2769,0.0,2.2832,2.3336,2.3602,2.3414,2.4202,2.4971,2.5581,2.5942,2.6452,2.7193,2.7406,2.7607,2.7808,2.8342,2.8275,2.7597,2.8229,2.8168,2.7466,2.772,2.785,2.7903,2.8913,2.9119,2.885,2.9814,2.939,2.8082,2.79,2.8252,2.8919,2.8919,2.8919,2.8944,0.0,0.0,0.0,0.0,0.0,0.0,0.0,0.0,0.0,0.0,0.0,1.0889,1.1298,1.2,1.2439,1.2439,1.3083,1.3447,1.3311,0.0,0.0,0.0,1.3164,1.3555,1.4513,1.5103,1.5703,1.6304,1.6738,1.6937,1.6937,1.7083,1.7142,1.7142,1.7142,1.7142,1.7142,1.7142,1.681,1.6295,1.6153,1.5664,1.4995,0.0,0.0,0.0,0.0,0.0,0.0,0.0,0.0,0.0,0.0,0.0,0.0,0.0,0.0,0.0,0.0,0.0,0.0,0.0,0.0,0.0,0.0,0.0,0.0,0.0,0.0,0.0,0.0,0.0,0.0,0.0,0.0,0.0,0.0,2.1595,2.2169,2.2533,2.3221,2.3672,2.3672,2.4393,2.4849,2.4849,2.5492,2.6243,2.6992,2.6674,2.6882,2.7798,2.7612,2.7572,2.7753,2.8252,2.8347,2.8068,2.8324,2.8262,2.7947,2.776,2.7688,2.7753,2.8587,2.8749,2.8469,2.9294,2.8757,2.7538,2.8753,2.9434,2.9779,3.0181,3.0082,2.9719,0.0,0.0,0.0,0.0,0.0,0.0,0.0,0.0,0.0,0.0,1.0772,1.1751,1.2155,1.2617,1.2905,1.2905,1.3281,1.335,1.2954,1.3304,0.0,0.0,1.333,1.4137,1.5366,1.5435,1.5883,1.6716,1.7187,1.7419,1.7429,1.7822,1.7991,1.7991,1.7991,1.7991,1.7991,1.7991,1.7513,1.6707,1.6314,1.5874,1.5415,0.0,0.0,0.0,0.0,0.0,0.0,0.0,0.0,0.0,0.0,0.0,0.0,0.0,0.0,0.0,0.0,0.0,0.0,0.0,0.0,0.0,0.0,0.0,0.0,0.0,0.0,0.0,0.0,0.0,0.0,0.0,0.0,0.0,2.1482,2.2445,2.3105,2.3158,2.4164,2.4854,2.4854,2.5879,2.6549,2.6549,2.6524,2.6986,2.8012,2.6053,2.5626,2.7249,2.6675,2.6584,2.7105,2.7498,2.8307,2.9496,2.8254,2.8308,2.9423,2.819,2.7645,2.7645,2.7689,2.7095,2.6156,2.6178,2.6201,2.6549,2.9951,3.0567,2.9686,3.089,3.0609,2.9602,0.0,0.0,0.0,0.0,0.0,0.0,0.0,0.0,0.0,0.0,1.0772,1.1751,1.2155,1.2617,1.2905,1.2905,1.3532,1.3753,1.3359,0.0,0.0,0.0,1.4336,1.5035,1.5386,1.6348,1.6979,1.7207,1.7627,1.7842,1.7842,1.7942,1.7991,1.7991,1.7991,1.7991,1.7991,1.7991,1.7854,1.763,1.7519,1.7233,1.6842,0.0,0.0,0.0,0.0,0.0,0.0,0.0,0.0,0.0,0.0,0.0,0.0,0.0,0.0,0.0,0.0,0.0,0.0,0.0,0.0,0.0,0.0,0.0,0.0,0.0,0.0,0.0,0.0,0.0,0.0,0.0,2.2182,2.2495,2.2646,2.2907,2.3409,2.4224,2.5335,2.603,2.603,2.7022,2.7657,2.7657,2.73,2.7205,2.7493,2.6852,2.6693,2.7128,2.7256,2.7376,2.7542,2.7643,2.748,2.7073,2.7005,2.6745,2.633,2.6285,2.6236,2.6307,2.7224,2.7456,2.7247,2.8127,2.8482,2.8529,2.8777,2.8587,2.8372,2.9632,2.9876,2.9602,0.0,0.0,0.0,0.0,0.0,0.0,0.0,0.0,0.0,0.0,1.089,1.183,1.2432,1.2737,1.2905,1.2905,1.3474,1.3678,1.3271,0.0,0.0,0.0,1.463,1.5065,1.5597,1.599,1.6475,1.7058,1.7302,1.7613,1.7991,1.7991,1.8088,1.8254,1.8254,1.8352,1.8545,1.8545,1.8437,1.8254,1.8254,1.791,1.7399,1.7399,1.7293,1.7217,1.7647,1.8005,1.8352,1.8983,0.0,0.0,0.0,0.0,0.0,0.0,0.0,0.0,0.0,0.0,0.0,0.0,0.0,0.0,0.0,0.0,0.0,0.0,0.0,0.0,0.0,0.0,0.0,0.0,2.2497,2.2931,2.3148,2.355,2.4051,2.4719,2.5811,2.6304,2.5828,2.6985,2.7656,2.7366,2.6823,2.6785,2.742,2.6517,2.6191,2.6672,2.6639,2.6614,2.6614,2.6769,2.6816,2.6723,2.6412,2.6239,2.6141,2.5847,2.5693,2.5732,2.6476,2.6802,2.6849,2.7555,2.7851,0.0,0.0,0.0,0.0,0.0,2.9831,3.0276,0.0,0.0,0.0,0.0,0.0,0.0,0.0,0.0,0.0,0.0,0.0,1.1869,1.2798,1.2905,1.2905,1.2905,1.3262,1.3331,0.0,0.0,1.4139,1.5231,1.4548,1.4698,1.5878,1.5027,1.5187,1.6446,1.6437,1.688,1.7674,1.7722,1.7968,1.8439,1.8487,1.8791,1.9305,1.9305,1.9062,1.8666,1.8617,1.8147,1.7468,1.7468,1.7624,1.7817,1.7817,1.8246,1.8805,1.883,0.0,0.0,0.0,0.0,0.0,0.0,0.0,0.0,0.0,0.0,0.0,0.0,0.0,0.0,0.0,0.0,0.0,0.0,0.0,0.0,0.0,0.0,0.0,0.0,2.2237,2.2808,2.3396,2.4198,2.4732,2.4782,2.5753,2.6004,2.4982,2.6335,2.7034,2.6423,2.5819,2.6072,2.7458,0.0,0.0,0.0,0.0,2.517,2.517,2.5513,2.6269,2.7363,2.6245,2.6294,2.7363,2.6221,2.5693,2.5693,2.5693,2.5693,2.5693,2.5693,2.5693,2.5927,2.8121,2.8412,2.7707,2.8634,2.9738,3.0788,0.0,0.0,0.0,0.0,0.0,0.0,0.0,0.0,0.0,1.0136,1.0733,1.1504,1.2756,1.2905,1.2905,1.2905,1.3262,1.3329,0.0,0.0,1.4514,1.4447,1.4833,1.5316,1.5887,1.535,1.5203,1.5464,1.5464,1.557,1.5754,1.5965,1.6569,1.7486,1.7743,1.8405,1.9305,1.9305,1.9256,1.9131,1.8744,1.8313,1.7874,1.7874,1.7916,1.7971,1.7971,1.8045,1.8217,1.8494,1.916,1.9913,2.0123,2.043,0.0,0.0,0.0,0.0,0.0,0.0,0.0,0.0,0.0,0.0,0.0,0.0,0.0,0.0,0.0,0.0,0.0,0.0,0.0,2.2216,2.2788,2.3458,2.4392,2.4293,2.4322,2.4747,2.5374,2.5695,2.5476,2.6464,2.7068,2.6959,2.6333,2.6077,2.6384,2.5493,2.5083,2.5284,2.5491,2.5581,2.5581,2.5669,2.583,2.6062,0.0,0.0,2.6062,2.5805,2.5693,2.5693,2.5693,2.5693,2.5693,2.5693,2.5693,2.5757,2.6221,2.6887,2.7494,2.6706,2.721,2.8296,0.0,0.0,0.0,0.0,0.0,0.0,0.0,0.0,0.0,0.0,1.0332,1.1016,1.2134,1.2251,1.2338,1.2529,1.3122,0.0,0.0,1.3528,1.4183,1.4157,1.4054,1.4254,1.4787,1.4106,1.3983,1.445,1.445,1.47,1.5207,1.5472,1.5993,1.6733,1.7602,1.8438,1.9184,1.9724,1.9823,1.9561,1.9141,1.8693,1.8283,1.8069,1.7991,1.7991,1.7991,1.7991,1.8029,1.8195,1.8833,1.9559,1.9701,1.9983,2.0191,0.0,0.0,0.0,0.0,0.0,0.0,0.0,0.0,0.0,0.0,0.0,0.0,0.0,0.0,2.0638,2.0905,0.0,2.1853,2.2153,2.2827,2.3381,2.3614,2.3422,2.3546,2.4308,2.5063,2.5284,2.4744,2.5839,2.6462,2.6117,2.5788,2.5687,2.5896,2.5583,2.54,2.54,2.5601,2.5693,2.5693,2.5693,2.5693,2.5693,2.5693,2.5693,2.5693,2.5693,2.5693,2.5693,2.5693,2.5693,2.5693,2.5693,2.5693,2.5693,2.5693,2.6086,2.6644,2.6644,2.7054,2.7683,0.0,0.0,0.0,0.0,0.0,0.0,0.0,0.0,0.0,0.0,0.9883,1.0508,1.137,1.1557,1.176,0.0,0.0,0.0,1.2155,1.2968,1.3662,1.4073,1.321,1.3018,1.3694,1.2787,1.2659,1.3419,1.3419,1.3846,1.4637,1.4924,1.5346,1.591,1.7382,1.8358,1.8987,2.0129,2.0332,1.9864,1.9453,1.9023,1.8559,1.8147,1.7991,1.7991,1.7991,1.7942,1.79,1.7961,1.8519,1.9183,1.9267,1.9522,1.9711,1.9324,1.9074,0.0,0.0,0.0,0.0,0.0,0.0,0.0,0.0,2.2117,2.1607,2.17,2.1024,2.0559,2.109,2.1756,2.2195,2.2037,2.266,2.3012,2.2675,2.2705,2.3054,2.3853,2.464,2.4783,2.3987,2.5111,2.5686,2.5134,2.517,2.5361,2.5674,2.5693,2.5693,2.5693,2.5693,2.5693,2.5693,2.5693,2.5693,2.5693,2.5693,2.5693,2.5693,2.5693,2.5693,2.5693,2.5693,2.5693,2.5693,2.5693,2.5693,2.5693,2.5693,2.5693,2.583,2.6849,2.7244,2.7376,0.0,0.0,0.0,0.0,0.0,0.0,0.0,0.0,0.0,0.0,0.0,0.0,0.0,0.0,0.0,0.0,0.0,1.2524,1.2764,1.2958,1.3383,1.4073,1.321,1.3018,1.3694,1.2787,1.236,1.2464,1.2464,1.2519,1.2629,1.2957,1.3658,1.4671,1.6313,1.7607,1.8645,2.0023,2.0332,1.9864,1.9453,1.9023,1.8559,1.8147,1.7991,1.7991,1.7991,1.7773,1.7526,1.7881,1.8307,1.8753,1.9173,1.9479,1.9709,1.9654,1.9285,1.884,1.8521,1.8474,1.8918,2.0638,2.0434,2.0055,0.0,2.1157,2.1225,2.1772,2.1458,2.1232,2.1704,2.1548,2.1579,2.2305,2.2511,2.2685,2.2986,2.3376,2.3697,2.3821,2.3922,2.4071,2.4316,2.4876,2.5175,2.5116,2.5439,2.5659,2.5693,2.5693,2.5693,2.5693,2.5693,2.5693,2.5693,2.5693,2.5693,2.5693,2.5693,2.5693,2.5693,2.5693,2.5693,2.5693,2.5693,2.5693,2.5693,2.5693,2.5693,2.5693,2.5693,2.5693,2.5718,2.5854,2.5917,2.5917,0.0,0.0,0.0,0.0,0.0,0.0,0.0,0.0,0.0,0.0,0.0,0.0,0.0,0.0,0.0,0.0,0.0,1.1612,1.1075,1.1833,1.2296,1.2295,1.2073,1.2172,1.2642,1.2412,1.2305,1.2305,1.2305,1.2305,1.2311,1.2643,1.3329,1.4347,1.5828,1.7081,1.8113,1.9334,1.9735,1.9512,1.9064,1.8781,1.8559,1.8147,1.7991,1.7978,1.7734,1.7546,0.0,1.7588,1.7757,1.7978,1.8405,1.8455,1.8361,1.8361,1.8194,1.8191,1.9009,1.9375,1.9916,2.1537,2.1441,2.1202,2.2221,2.2,2.1728,2.2266,2.1754,2.1338,2.1809,2.1935,2.2079,2.243,2.2693,2.2918,2.3071,2.3493,2.3887,2.4121,2.4375,2.4623,2.4799,2.5195,2.5459,2.5459,2.561,2.5693,2.5693,2.5693,2.5693,2.5693,2.5693,2.5693,2.5693,2.5693,2.5693,2.5693,2.5693,2.5693,2.5693,2.5693,2.5693,2.5693,2.5693,2.5693,2.5693,2.5693,2.5693,2.5693,2.5693,2.5693,2.5693,2.5693,2.5693,2.5693,0.0,0.0,0.0,0.0,0.0,0.0,0.0,0.0,0.0,0.0,0.0,0.0,0.0,0.0,0.0,0.0,1.0393,1.0678,1.0222,1.0914,1.1331,1.1323,1.1306,1.1483,1.1899,1.2096,1.2225,1.2305,1.2305,1.2305,1.2305,1.2544,1.3008,1.3746,1.5362,1.6482,1.7262,1.8708,1.9237,1.9082,1.8752,1.8529,1.8393,1.8108,1.7939,1.7803,1.7507,1.7321,1.7207,1.7207,1.7135,1.7106,1.7503,1.7529,1.7399,1.7399,1.7399,1.7774,1.9441,1.9819,2.0148,2.1854,2.181,2.1614,2.2635,2.2294,2.1912,2.2374,2.19,2.1523,2.1982,2.2305,2.2527,2.2645,2.2918,2.3162,2.3279,2.3691,2.4121,2.4551,2.498,2.5278,2.5278,2.5523,2.5693,2.5693,2.5693,2.5693,2.5693,2.5693,2.5693,2.5693,2.5693,2.5693,2.5693,2.5693,2.5693,2.5693,2.5693,2.5693,2.5693,2.5693,2.5693,2.5718,2.5845,2.5893,2.5903,2.602,2.6069,2.6069,2.6069,2.6069,2.6069,2.6069,2.5913,2.5693,0.0,0.0,0.0,0.0,0.0,0.0,0.0,0.0,0.0,0.0,0.0,0.0,0.0,0.0,0.9669,1.0057,0.9583,0.988,1.1346,1.0632,1.0746,1.2099,1.1409,1.1293,1.1893,1.1913,1.2042,1.2305,1.2305,1.2305,1.2305,1.2311,1.2336,1.2454,1.4783,1.5836,1.6008,1.8311,1.9043,1.8617,1.8607,1.8371,1.8027,1.8001,1.7764,1.7419,1.7409,0.0,1.6716,1.6716,1.6465,1.6212,1.6615,1.7035,1.7399,1.7399,1.7399,1.7774,1.9441,1.9005,1.8577,2.0721,2.0601,2.0193,2.1065,2.1251,2.1358,2.1839,2.1906,2.1992,2.2412,2.2479,2.2625,2.3013,2.3091,2.3269,2.3711,2.4131,2.456,2.5024,2.5449,2.5689,2.5689,2.5684,2.5693,2.5693,2.5693,2.5693,2.5693,2.5693,2.5693,2.5693,2.5693,2.5693,2.5693,2.5693,2.5693,2.5693,2.5693,2.5693,2.5693,2.5693,2.5693,2.5737,2.6182,2.6367,2.6396,2.6807,2.6947,2.6947,2.6947,2.6947,2.6947,2.6947,2.643,2.5693,0.0,0.0,0.0,0.0,0.0,0.0,0.0,0.0,0.0,0.0,0.0,0.0,0.0,0.0,0.0,0.0,0.8552,0.8727,0.9646,0.979,1.0135,1.0777,1.0927,1.1099,1.13,1.1705,1.1935,1.2029,1.2204,1.2305,1.2305,1.2305,1.2629,1.3262,1.405,1.5121,1.6378,1.7166,1.7781,1.8205,1.8205,1.7952,1.7598,1.7598,1.7324,1.6898,0.0,1.6447,1.6304,1.6304,1.6212,1.6222,1.695,1.7061,1.7044,1.7627,1.7981,1.8451,1.9601,1.9584,1.9567,2.0885,2.0977,2.0927,2.1533,2.167,2.1787,2.2217,2.208,2.2012,2.2432,2.2285,2.2236,2.2635,2.2703,2.2957,2.3691,2.415,2.458,2.5033,2.5469,2.5693,2.5693,2.5693,2.5693,2.5693,2.5693,2.5693,2.5693,2.5693,2.5693,2.5693,2.5693,2.5693,2.5693,2.5693,2.5693,2.5693,2.5693,2.5693,2.5703,2.601,2.6172,2.6191,2.6621,2.6807,2.6816,2.6928,2.6986,2.6986,2.6986,2.6986,2.6986,2.6986,2.6811,2.6557,0.0,0.0,0.0,0.0,0.0,0.0,0.0,0.0,0.0,0.0,0.0,0.0,0.0,0.0,0.0,0.0,0.0,0.7964,0.8451,0.9045,0.9499,0.9764,1.0267,1.0575,1.0681,1.1065,1.1313,1.1437,1.169,1.1884,1.1973,1.2098,1.2526,1.3219,1.3936,1.4924,1.614,1.6819,1.7364,1.7793,1.7793,1.7529,1.7148,1.7148,1.6875,0.0,0.0,1.5987,1.5845,1.5845,1.5845,1.6001,1.6875,1.7168,1.7347,1.8213,1.8527,1.8783,1.9659,2.0029,2.0322,2.1015,2.1337,2.1562,2.2012,2.2109,2.2187,2.2461,2.2295,2.2148,2.2266,2.207,2.2021,2.242,2.2488,2.284,2.3877,2.4248,2.4639,2.5234,2.5542,2.5693,2.5693,2.5693,2.5693,2.5693,2.5693,2.5693,2.5693,2.5693,2.5693,2.5693,2.5693,2.5693,2.5693,2.5693,2.5693,2.5693,2.5874,2.5942,2.5962,2.6416,2.6611,2.6631,2.706,2.7246,2.7256,2.7412,2.7471,2.7471,2.7471,2.7471,2.7471,2.7471,2.7471,2.7432,0.0,0.0,0.0,0.0,0.0,0.0,0.0,0.0,0.0,0.0,0.0,0.0,0.0,0.0,0.0,0.0,0.0,0.0,0.7866,0.8431,0.8885,0.9164,0.9506,0.98,1.0072,1.0092,1.0254,1.0566,1.0845,1.1109,1.1372,1.1688,1.1969,1.2303,1.418,1.503,1.5214,1.7045,1.7642,1.7341,1.736,1.709,1.6668,1.6668,0.0,0.0,1.6056,1.5796,1.5425,1.5405,1.5425,1.562,1.6492,1.7357,1.8196,1.9062,1.9023,1.8861,1.9727,2.0283,2.0732,2.1162,2.1591,2.2052,2.2451,2.2508,2.2488,2.2488,2.2459,2.2324,2.1924,2.1846,2.1992,2.2412,2.2479,2.2927,2.4186,2.4381,2.4713,2.5581,2.5698,2.5693,2.5693,2.5693,2.5693,2.5693,0.0,2.5693,2.5693,2.5693,2.5693,2.5693,2.5693,2.5693,2.5693,2.5693,2.5703,2.5747,2.6191,2.6396,2.6435,2.6855,2.7051,2.7045,2.7536,2.7721,2.7751,2.8125,2.8291,2.8291,2.8291,2.8291,2.8291,2.8291,2.8291,2.8174,0.0,0.0,0.0,0.0,0.0,0.0,0.0,0.0,0.0,0.0,0.0,0.0,0.0,0.0,0.0,0.0,0.0,0.0,0.758,0.7931,0.8358,0.8878,0.9171,0.9478,0.9786,1.0007,1.0138,1.0234,1.0559,1.074,1.0814,1.0888,1.0968,1.1084,1.207,1.2916,1.3658,1.4974,1.5889,1.6457,0.0,1.6631,1.6246,0.0,0.0,1.5576,1.5576,1.5728,1.5865,1.5527,1.5835,1.6512,1.7396,1.803,1.8625,1.9483,1.9659,1.9757,2.0625,2.0957,2.123,2.1981,2.2254,2.244,2.2859,2.2713,2.2488,2.2488,2.1981,2.1503,2.1405,2.1376,2.1523,2.1973,2.2305,2.2852,2.3818,2.4219,2.4619,2.52,2.5513,2.5693,2.5693,2.5693,2.5693,2.5693,2.5693,2.5693,2.5693,2.5693,2.5693,2.5693,2.5693,2.5693,2.5693,2.5693,2.5884,2.6221,2.6338,2.6553,2.6865,2.733,2.7526,2.7545,2.7949,2.8161,2.8135,2.8252,2.8291,2.8291,2.8291,2.8291,2.8291,2.8291,2.8291,2.8262,0.0,0.0,0.0,0.0,0.0,0.0,0.0,0.0,0.0,0.0,0.0,0.0,0.0,0.0,0.0,0.0,0.0,0.0,0.0,0.7555,0.7876,0.8215,0.8631,0.8938,0.9119,0.9392,0.9525,0.9525,0.984,1.0062,1.0211,1.0323,1.0466,1.0656,1.174,1.2512,1.3093,1.4433,0.0,0.0,0.0,0.0,0.0,0.0,0.0,1.5396,1.5396,1.5708,1.6085,1.6006,1.6557,1.7396,1.8059,1.8557,1.9074,1.9951,2.0059,2.0088,2.0956,2.1357,2.1659,2.2323,2.2625,2.2781,2.283,2.2664,2.2332,2.1777,2.1279,2.0879,2.0674,2.0791,2.1152,2.1808,2.2236,2.2791,2.3672,2.415,2.4338,2.4207,2.4551,2.4815,2.4815,2.4815,2.5079,2.5659,2.5693,2.5693,2.5693,2.5693,2.5693,2.5693,2.5693,2.5693,2.5693,2.5903,2.6143,2.6396,2.6793,2.7096,2.7314,2.777,2.7966,2.7985,0.0,2.8291,2.8291,2.8291,2.8291,2.8291,2.8291,2.8291,2.8291,2.8291,2.8291,2.8291,0.0,0.0,0.0,0.0,0.0,0.0,0.0,0.0,0.0,0.0,0.0,0.0,0.0,0.0,0.0,0.0,0.0,0.0,0.0,0.0,0.0,0.0,0.7993,0.8315,0.8402,0.863,0.8764,0.8791,0.9031,0.9298,0.9587,0.0,0.0,0.0,0.0,0.0,0.0,0.0,0.0,0.0,0.0,0.0,0.0,0.0,0.0,1.5405,1.5478,1.5796,1.6236,1.6654,1.7298,1.8001,1.8537,1.8966,1.9471,2.0332,2.0322,2.0157,2.0976,2.1493,2.1904,2.2324,2.2684,2.284,2.242,2.2295,2.1914,2.0742,2.0459,2.0312,1.9971,2.0293,2.0889,2.1759,2.2236,2.2793,2.3594,2.3952,2.3833,2.3018,2.3207,2.3434,2.3434,2.3434,2.3915,2.5069,2.5177,2.525,2.543,2.5611,2.5693,2.5693,2.5693,2.5713,2.5796,2.6201,2.647,2.6572,2.734,2.7721,2.779,2.8125,2.8291,2.8291,2.8291,0.0,2.8291,2.8291,2.8291,2.8291,2.8291,2.8291,2.8291,2.8291,2.8291,2.8291,0.0,0.0,0.0,0.0,0.0,0.0,0.0,0.0,0.0,0.0,0.0,0.0,0.0,0.0,0.0,0.0,0.0,0.0,0.0,0.0,0.0,0.0,0.7603,0.7891,0.8389,0.8449,0.8577,0.8791,0.8844,0.8898,0.8958,0.8998,0.9065,0.0,0.0,0.0,0.0,0.0,0.0,0.0,0.0,0.0,0.0,0.0,0.0,0.0,1.5835,1.624,1.6674,1.7119,1.7389,1.7702,1.8818,1.9228,1.9471,2.0332,2.0527,2.0586,2.1074,2.1269,2.1435,2.1885,2.2051,2.1992,2.1532,2.1172,2.0752,2.0146,1.9756,1.959,1.9844,2.0293,2.0889,2.1759,2.2236,2.2664,2.3162,2.2942,2.2679,2.2529,2.2219,2.2055,2.2055,2.2055,2.2131,2.2391,2.2391,2.2868,2.3998,2.5094,2.5693,2.5693,2.5693,2.5884,2.6269,2.6357,2.6763,2.7477,2.7624,2.7878,2.821,2.8262,2.8291,2.8291,2.8291,0.0,2.8291,2.8291,2.8291,2.8291,2.8291,2.8291,2.8291,2.8291,2.8291,2.8291,0.0,0.0,0.0,0.0,0.0,0.0,0.0,0.0,0.0,0.0,0.7695,0.0,0.0,0.0,0.0,0.0,0.0,0.0,0.0,0.0,0.0,0.0,0.0,0.0,0.7931,0.8068,0.829,0.8597,0.0,0.8657,0.8811,0.9159,0.9322,0.9361,1.0389,1.1015,1.1384,1.231,1.3011,1.3525,1.3717,1.4186,0.0,0.0,0.0,0.0,1.5644,1.6021,1.6416,1.6652,1.6862,1.7266,1.8527,1.9102,1.9383,1.9804,2.0234,2.0644,2.085,2.1035,2.1298,2.1777,2.1905,2.1709,2.1035,2.0742,2.0332,1.9415,1.9074,1.8996,1.9191,1.9785,2.0439,2.1114,2.1406,2.1639,2.1826,2.1476,2.1013,2.0441,2.0389,2.0444,2.0599,2.0615,2.0922,2.1651,2.1702,2.198,2.2617,2.3276,2.3617,2.3617,2.4304,2.4879,2.5292,2.623,2.7031,2.7692,2.7917,2.8096,2.8291,2.8291,2.8291,2.8291,2.8291,0.0,2.8291,2.8291,2.8291,2.8291,2.8291,2.8291,2.8291,2.8291,2.8291,2.8291,0.0,0.0,0.0,0.0,0.0,0.0,0.0,0.7695,0.7695,0.7695,0.7695,0.7583,0.7261,0.7338,0.0,0.0,0.0,0.0,0.0,0.0,0.0,0.0,0.0,0.0,0.0,0.0,0.0,0.8289,0.8368,0.0,0.0,0.0,0.0,0.0,1.1053,1.1665,1.1839,1.2415,1.2933,0.0,0.0,1.3828,0.0,0.0,0.0,0.0,0.0,1.5708,1.6095,1.6095,1.6373,1.6872,1.7876,1.8508,1.8953,1.9227,1.9784,2.0351,2.0556,2.082,2.1152,2.1534,2.1622,2.1397,2.0517,2.0312,1.997,1.8732,1.8461,1.8438,1.8331,1.8929,1.9544,1.9876,2.0033,2.0172,2.0341,1.9914,1.9328,1.8579,1.8647,1.8877,1.9139,1.9169,1.962,2.0735,2.0812,2.1092,2.1668,2.1423,2.1397,2.1693,2.2779,2.3721,2.4446,2.5914,2.7043,2.7829,2.8161,2.8291,2.8291,2.8291,2.8291,2.8291,2.8291,0.0,0.0,2.8291,2.8291,2.8291,2.8291,2.8291,2.8291,2.8291,2.8291,2.8291,0.0,0.0,0.0,0.0,0.0,0.0,0.0,0.7695,0.7695,0.7695,0.7695,0.7688,0.7652,0.7335,0.0,0.0,0.0,0.0,0.0,0.0,0.0,0.0,0.0,0.0,0.0,0.0,0.0,0.7945,0.8256,0.0,0.0,0.0,0.0,0.0,0.0,1.1229,1.1802,1.1864,0.0,0.0,0.0,0.0,0.0,0.0,0.0,0.0,0.0,1.5708,1.6095,1.6095,1.6373,1.6726,1.6843,1.7207,1.78,1.8963,1.9364,1.9589,2.0371,2.0635,2.0674,2.0713,2.0723,2.0498,1.9618,1.9423,1.9168,1.8235,1.8066,1.7898,1.7421,1.7633,1.7892,1.7809,1.8048,1.8485,1.9156,1.8475,1.8055,1.8459,1.7833,1.7487,1.7759,1.7786,1.7838,1.7963,1.797,1.9057,2.1575,2.0487,2.0385,2.1651,2.2058,2.3117,2.4914,2.533,2.645,2.8232,2.8271,2.8291,2.8291,2.8291,2.8291,2.8291,2.8291,0.0,0.0,2.8291,2.8291,2.8291,2.8291,2.8291,2.8291,2.8291,2.8291,2.8291,0.0,0.0,0.0,0.0,0.0,0.0,0.0,0.7695,0.7695,0.7695,0.7695,0.7695,0.7695,0.7561,0.0,0.0,0.0,0.0,0.0,0.0,0.0,0.0,0.0,0.0,0.0,0.0,0.771,0.766,0.7792,0.0,0.0,0.0,0.0,0.0,0.0,1.2209,1.2464,1.2464,0.0,0.0,0.0,0.0,0.0,0.0,0.0,0.0,0.0,0.0,1.5689,1.5689,1.5791,1.5922,1.5922,1.6039,1.6406,1.7425,1.8662,1.9629,1.9435,1.999,2.0605,2.0605,2.0605,2.038,1.9501,1.9305,1.9043,1.8184,1.7991,1.7756,1.6977,1.7144,1.7244,1.6796,1.6657,1.6841,1.7506,1.6859,1.6595,1.7344,1.7102,1.7093,1.7561,1.7608,1.7608,1.7608,1.7608,1.8068,1.9161,1.8708,1.8655,1.9213,2.0316,2.1378,2.2413,2.3535,2.5056,2.697,2.697,2.7447,2.8291,2.8291,2.8291,2.8291,2.8291,0.0,0.0,2.8291,2.8291,2.8291,2.8291,2.8291,2.8291,2.8291,2.8291,2.8291,0.0,0.0,0.0,0.0,0.0,0.0,0.7695,0.7695,0.7695,0.7695,0.7695,0.7695,0.7695,0.7695,0.7495,0.7002,0.0,0.0,0.0,0.0,0.0,0.0,0.0,0.0,0.0,0.0,0.788,0.7346,0.7769,0.8106,0.0,0.0,1.0745,1.0988,0.0,0.0,0.0,0.0,0.0,0.0,0.0,0.0,0.0,0.0,0.0,0.0,0.0,0.0,0.0,0.0,0.0,1.5396,1.5396,1.5498,1.5752,1.6473,1.7874,1.9111,1.8869,1.958,2.0429,2.0576,2.0507,2.0205,1.9471,1.9189,1.8887,1.8147,1.7991,1.763,1.6411,1.6483,1.6413,0.0,1.5188,1.5293,1.5893,1.5582,1.5558,1.6353,1.6526,1.6807,1.7421,1.7555,1.7608,1.7608,1.7608,1.7608,1.7608,1.7608,1.7608,1.7608,1.8934,1.9959,2.068,2.2037,2.3877,2.61,2.61,2.6852,2.8291,2.8291,2.8291,2.8291,2.8291,0.0,0.0,2.8291,2.8291,2.8291,2.8291,2.8291,2.8291,2.8291,2.8291,2.8291,0.0,0.0,0.0,0.0,0.0,0.0,0.0,0.7695,0.7695,0.7695,0.7695,0.7695,0.7695,0.7695,0.7539,0.7133,0.0,0.0,0.0,0.0,0.0,0.0,0.0,0.0,0.0,0.0,0.0,0.7006,0.8402,0.8819,0.8346,1.0282,1.119,1.1252,0.0,0.0,0.0,0.0,0.0,0.0,0.0,0.0,0.0,0.0,0.0,0.0,0.0,0.0,0.0,0.0,0.0,0.0,0.0,1.5718,1.6173,1.6586,1.7035,1.7702,1.8953,1.959,2.0029,2.0478,2.0263,1.9796,1.9385,1.8937,1.849,1.8079,1.7991,1.7432,1.5552,1.5434,1.5098,1.3481,1.3454,1.3834,1.4442,1.4805,1.5207,1.5748,1.6099,1.6531,1.7152,1.7441,1.7608,1.7608,1.7608,0.0,1.7608,1.7608,1.7608,1.7608,1.8197,1.9229,2.0688,2.1305,2.3143,2.61,2.61,2.6852,2.8291,2.8291,2.8291,2.8291,0.0,0.0,0.0,2.8291,2.8291,2.8291,2.8291,2.8291,2.8291,2.8291,2.8291,2.8291,0.0,0.0,0.0,0.0,0.0,0.0,0.0,0.7695,0.7695,0.7695,0.7695,0.7695,0.7695,0.7695,0.7775,0.7971,0.0,0.0,0.0,0.0,0.0,0.0,0.0,0.0,0.0,0.0,0.0,0.7614,0.8429,0.8794,0.8742,1.0228,1.1166,1.1646,1.2514,1.2905,0.0,0.0,0.0,0.0,0.0,0.0,0.0,0.0,0.0,0.0,0.0,0.0,0.0,0.0,0.0,0.0,0.0,0.0,0.0,1.5766,1.6752,1.7832,1.7976,1.8738,1.954,1.9677,1.9608,1.9375,1.8927,1.8705,1.8481,1.8079,1.7484,1.6663,1.5429,1.4699,1.4063,1.3316,1.3267,1.36,1.4387,1.4798,1.5273,1.6039,1.6772,1.7267,1.7454,1.7555,1.7608,1.7608,1.7608,1.7608,1.7608,1.7608,1.7608,1.7608,1.8204,1.8733,1.9181,1.9785,2.1095,2.3003,2.3003,2.3786,2.5215,2.5215,2.58,0.0,0.0,0.0,0.0,2.5663,2.5854,2.6798,2.6798,2.7421,2.8291,2.8291,2.8291,2.8291,0.0,0.0,0.0,0.0,0.0,0.0,0.0,0.7695,0.7695,0.7695,0.7695,0.7695,0.7695,0.7695,0.7885,0.8356,0.0,0.0,0.0,0.0,0.0,0.0,0.0,0.0,0.0,0.0,0.0,0.8201,0.8938,0.9328,0.9374,1.0545,1.1404,1.1977,1.2623,1.2905,0.0,0.0,0.0,0.0,0.0,0.0,1.334,0.0,0.0,0.0,0.0,0.0,0.0,0.0,0.0,0.0,0.0,0.0,0.0,0.0,1.6299,1.7301,1.738,1.8093,1.8887,1.9227,1.916,1.8875,1.8221,1.7942,1.7665,1.7065,1.6489,1.5772,1.4807,1.4117,1.3582,1.3244,1.3193,1.346,1.4249,1.4609,1.5124,1.5999,1.6906,1.7448,1.7448,1.7541,1.7608,1.7608,1.7608,1.7608,1.7608,1.7608,1.7608,1.7608,1.8204,1.849,1.849,1.9107,2.0148,2.1614,2.1614,2.2371,2.3794,2.3794,2.4322,0.0,0.0,0.0,0.0,2.4211,2.4378,2.5297,2.5873,2.6653,2.7538,2.8094,2.8291,2.8291,0.0,0.0,0.0,0.0,0.0,0.0,0.0,0.0,0.0,0.0,0.7695,0.7695,0.7695,0.7725,0.0,0.0,0.0,0.0,0.0,0.0,0.0,0.0,0.0,0.0,0.0,1.0049,0.9785,0.8756,0.9822,1.0287,1.0173,1.117,1.1857,1.2272,1.2707,1.2905,0.0,0.0,0.0,0.0,0.0,0.0,0.0,0.0,0.0,0.0,0.0,0.0,0.0,0.0,0.0,0.0,0.0,0.0,0.0,0.0,0.0,0.0,0.0,1.7646,1.8164,1.8994,1.8879,1.832,1.7377,1.6882,0.0,1.5393,1.5145,1.4807,1.3864,1.3655,1.3508,1.3244,1.3193,1.3414,1.4022,1.4389,1.4901,1.5735,1.6665,1.7233,1.7233,1.7448,1.7608,1.7608,1.7608,1.7608,1.7608,1.7608,1.7608,1.7608,1.815,1.847,1.849,1.908,2.0069,2.1443,2.1443,2.2173,2.3487,2.3487,2.3543,0.0,0.0,0.0,0.0,2.3515,2.3543,2.3794,2.5206,2.5845,2.6127,2.7592,2.8147,2.8147,0.0,0.0,0.0,0.0,0.0,0.0,0.0,0.0,0.0,0.0,0.0,0.7695,0.7695,0.802,0.0,0.0,0.0,0.0,0.0,0.0,0.0,0.0,0.0,0.0,0.0,1.0244,0.9981,0.9309,1.0284,1.0716,1.0657,1.1608,1.2293,1.2746,1.2844,1.2905,1.2905,0.0,0.0,0.0,0.0,0.0,0.0,0.0,0.0,0.0,1.5093,1.5396,0.0,0.0,0.0,0.0,0.0,0.0,0.0,0.0,1.5488,1.5747,1.6635,0.0,1.7656,1.8184,1.8215,1.7904,0.0,1.6674,1.6332,1.5393,1.4601,1.3973,1.3745,1.3109,1.276,1.3152,1.3193,1.3414,1.4022,1.4894,1.5661,1.6119,1.6973,1.7508,1.7508,1.7568,1.7608,1.7608,1.7608,1.7608,1.7608,1.7608,1.7608,1.7608,1.7956,1.8236,1.849,1.8851,1.9332,1.9924,1.9924,2.009,2.0429,2.0429,2.1038,0.0,0.0,0.0,2.2032,2.0902,2.1095,2.2145,2.2533,2.3339,2.4516,2.6045,2.6626,2.6771,0.0,0.0,0.0,0.0,0.0,0.0,0.0,0.0,0.0,0.0,0.0,0.0,0.0,0.0,0.0,0.0,0.0,0.0,0.0,0.0,0.0,0.0,0.0,0.0,0.0,1.0479,1.0426,1.0135,1.0871,1.1296,1.145,1.196,1.2449,1.2905,1.2905,1.2905,1.2905,1.2905,1.2905,0.0,1.2905,0.0,0.0,0.0,0.0,0.0,1.5161,1.5396,0.0,1.5396,1.5396,1.5396,0.0,0.0,0.0,0.0,1.5396,1.5591,1.6463,1.6888,1.7236,1.7852,1.7991,1.763,1.6271,1.5965,1.5561,1.4163,1.3437,1.3062,1.3062,1.2776,1.2678,1.3133,1.3434,1.3861,1.4583,1.5464,1.6139,1.6458,1.7128,1.7608,0.0,1.7608,1.7608,1.7608,1.7608,1.7608,1.7608,1.7608,1.7608,1.7608,1.7749,1.7949,1.8256,1.8683,1.8976,1.9165,1.9328,1.9395,1.9395,1.9395,1.9844,0.0,0.0,0.0,2.0537,1.9729,1.9866,2.0673,2.1337,2.2089,2.2983,2.4488,2.5041,2.5151,0.0,0.0,0.0,0.0,0.0,0.0,0.0,0.0,0.0,0.0,0.0,0.0,0.0,0.0,0.0,0.0,0.0,0.0,0.0,0.0,0.0,0.0,0.0,0.0,1.0303,1.0693,1.0898,1.0898,1.1427,1.1867,1.2192,1.226,1.2517,1.2905,1.2905,1.2905,1.2905,1.2905,1.2905,1.2905,1.2905,0.0,0.0,0.0,0.0,0.0,0.0,0.0,0.0,1.5396,1.5396,1.5396,1.5396,0.0,0.0,0.0,0.0,0.0,1.6463,1.6602,1.6699,1.7564,1.7794,1.7295,1.5393,1.4968,1.4468,1.2659,1.2305,1.2331,1.2425,1.2664,1.2985,1.3347,1.3868,1.4517,1.5284,1.5929,1.6404,1.6667,1.7221,0.0,1.7608,1.7608,1.7608,1.7608,1.7608,1.7608,1.7608,1.7608,1.7608,1.7608,1.7608,1.7709,1.7942,1.8489,1.8783,1.8836,1.9158,1.9328,1.9328,1.9374,1.9395,1.9395,0.0,0.0,1.9395,1.9395,1.9395,1.9511,2.078,2.1252,2.1451,2.2927,2.3459,2.3487,0.0,0.0,0.0,0.0,0.0,0.0,0.0,0.0,0.0,0.0,0.0,0.0,0.0,0.0,0.0,0.0,0.0,0.0,0.0,0.0,0.0,0.0,0.0,1.0303,1.0303,1.0693,1.0898,1.0898,1.1717,1.2135,1.2213,1.2607,1.2825,1.2905,1.2905,1.2905,1.2905,1.2905,1.2905,1.2905,1.2905,0.0,0.0,0.0,0.0,0.0,0.0,0.0,0.0,1.5396,1.5396,1.5396,1.5396,0.0,0.0,0.0,0.0,0.0,1.6463,1.6128,1.5714,1.66,1.6819,1.6306,1.436,1.3936,1.3618,1.2537,1.2305,1.2458,1.2973,1.3106,1.3394,1.4167,1.4631,1.4986,1.5344,1.5929,1.6404,1.6667,0.0,1.7608,1.7608,1.7608,1.7608,1.7608,1.7608,1.7608,1.7608,1.7608,1.7608,1.7608,1.7608,1.7628,1.7655,1.7976,1.8283,1.8557,1.8851,1.8991,1.8998,1.9281,1.9395,1.9395,0.0,1.9395,1.9395,1.9395,1.9395,1.9424,1.9649,1.9729,1.9924,2.1394,2.1947,2.2117,0.0,0.0,0.0,0.0,0.0,0.0,0.0,0.0,0.0,0.0,0.0,0.0,0.0,0.0,0.0,0.0,0.0,0.0,0.0,0.0,0.0,0.0,1.0303,1.04,1.0615,1.1055,1.1377,1.1599,1.2254,1.2578,1.2588,1.2795,1.2905,1.2905,1.2905,1.2905,1.2905,1.2905,1.2905,1.2925,0.0,0.0,0.0,0.0,0.0,0.0,0.0,0.0,0.0,0.0,1.5396,1.5396,1.5396,0.0,0.0,0.0,0.0,0.0,1.6463,1.6007,1.5423,1.5921,1.5945,1.5473,1.4027,1.3709,1.3437,1.2482,1.2305,1.2485,1.31,1.332,1.376,1.4823,1.511,1.5434,1.6019,1.6333,1.6673,1.7128,0.0,1.7608,1.7608,1.7608,1.7608,1.7608,1.7608,1.7608,1.7608,1.7608,1.7608,1.7608,1.7608,1.7608,1.7608,1.7722,1.7922,1.8229,1.8551,1.8691,1.8698,1.8991,1.9125,1.9138,0.0,1.9395,1.9395,1.9395,1.9395,1.9395,1.9395,1.9395,1.9482,2.0148,2.0422,2.0508,0.0,0.0,0.0,0.0,0.0,0.0,0.0,0.0,0.0,0.0,0.0,0.0,0.0,0.0,0.0,0.0,0.0,0.0,0.0,0.0,1.0303,1.0303,1.0391,1.0576,1.0888,1.1359,1.18,1.2192,1.2666,1.2905,1.2905,1.2905,1.2905,1.2905,1.2905,1.2905,1.2905,1.2905,1.2952,1.3069,0.0,0.0,0.0,0.0,0.0,0.0,0.0,0.0,0.0,0.0,0.0,0.0,0.0,0.0,0.0,1.5396,1.5488,1.5732,1.6492,1.5912,1.5183,1.5444,1.5228,1.4726,1.3796,1.3578,1.3374,1.2662,1.2553,1.2799,1.3387,1.3847,1.4407,1.5264,1.5451,1.5778,1.6593,1.6707,1.6927,1.7541,1.7608,1.7608,1.7608,1.7608,1.7608,1.7608,1.7608,1.7608,1.7608,1.7608,1.7608,1.7608,1.7608,1.7608,1.7608,1.7608,1.7702,1.7916,1.8216,1.8384,1.8397,1.8691,1.8824,1.881,1.9132,1.9294,1.9294,1.9368,1.9395,1.9395,1.9395,1.9395,1.9395,1.9395,1.9395,1.9395,0.0,0.0,0.0,0.0,0.0,0.0,0.0,0.0,0.0,0.0,0.0,0.0,0.0,0.0,0.0,0.0,0.0,0.0,0.0,0.0,1.0303,1.0303,1.0654,1.0869,1.0898,1.1359,1.18,1.2192,1.2666,1.2905,1.2905,1.2905,1.2905,1.2905,1.2905,1.2905,1.2905,1.2905,1.3118,1.3454,1.3496,0.0,0.0,0.0,0.0,0.0,0.0,0.0,0.0,0.0,0.0,0.0,0.0,0.0,1.5396,1.5396,1.5708,1.6138,1.6586,1.5649,1.4676,1.5115,1.4754,1.4084,1.3386,1.3245,1.3225,1.3146,1.334,1.3686,1.4294,1.5088,1.5588,1.5424,1.5601,1.5988,1.662,0.0,1.6927,1.7541,1.7608,1.7608,1.7608,1.7608,1.7608,1.7608,1.7608,1.7608,1.7608,1.7608,1.7608,1.7608,1.7608,1.7608,1.7608,1.7608,1.7622,1.7615,1.7902,1.8056,1.8063,1.8384,1.8524,1.8537,1.8831,1.893,1.895,1.9281,1.9395,1.9395,1.9395,1.9395,1.9395,1.9395,1.9395,1.9395,0.0,0.0,0.0,0.0,0.0,0.0,0.0,0.0,0.0,0.0,0.0,0.0,0.0,0.0,0.0,0.0,0.0,0.0,0.0,0.0,1.041,1.0654,1.082,1.1141,1.1697,1.1883,1.2197,1.2637,1.2815,1.2905,1.2905,1.2905,1.2905,1.2905,1.2905,1.2905,1.2925,1.3176,1.3359,1.3555,1.4092,1.4506,0.0,0.0,0.0,0.0,0.0,0.0,0.0,0.0,1.5396,1.5396,1.5396,1.5396,1.5396,1.5396,1.5737,1.6061,1.5879,1.5321,1.4814,1.4824,1.4188,1.3473,1.3056,1.3073,1.324,1.34,1.3527,1.386,1.4656,1.5341,1.5768,1.5661,1.5912,1.6246,1.6647,1.6892,1.716,1.7561,1.7608,1.7608,1.7608,1.7608,1.7608,1.7608,1.7608,1.7608,1.7608,1.7608,1.7608,1.7608,1.7608,1.7608,1.7608,1.7608,1.7608,1.7608,1.7702,1.7756,1.7769,1.8049,1.8189,1.8203,1.8524,1.8651,1.8664,1.8806,1.8931,1.9112,1.9321,1.9395,1.9395,1.9395,1.9395,1.9395,0.0,0.0,0.0,0.0,0.0,0.0,0.0,0.0,0.0,0.0,0.0,0.0,0.0,0.0,0.0,0.0,0.0,0.0,0.0,1.042,1.0605,1.0888,1.116,1.1589,1.2194,1.2352,1.2578,1.2905,1.2905,1.2905,1.2893,1.2666,1.2547,1.2569,1.2712,1.2769,1.281,1.3436,1.3766,1.3965,1.4564,1.4877,0.0,0.0,0.0,0.0,0.0,0.0,0.0,0.0,1.5396,1.5396,1.5396,1.5396,1.5371,1.5212,1.5501,1.5732,1.5182,1.4904,1.4697,1.4512,1.3895,1.3273,1.3099,1.312,1.33,1.368,1.3987,1.4361,1.5013,1.5504,1.5775,1.5681,1.6019,1.6397,1.6667,1.6986,1.7306,1.7575,1.7608,1.7608,1.7608,1.7608,1.7608,1.7608,1.7608,1.7608,1.7608,1.7608,1.7608,1.7608,1.7608,1.7608,1.7608,1.7608,1.7608,1.7608,1.7608,1.7608,1.7615,1.7776,1.7876,1.7889,1.8217,1.835,1.8357,1.8457,1.8604,1.8811,1.904,1.912,1.912,1.912,1.912,1.912,0.0,0.0,0.0,0.0,0.0,0.0,0.0,0.0,0.0,0.0,0.0,0.0,0.0,0.0,0.0,0.0,0.0,0.0,0.0,1.0674,1.0908,1.0908,1.1745,1.2192,1.2213,1.2656,1.2905,1.2905,1.2905,1.2905,1.2869,1.2138,1.1802,1.1829,1.2291,1.2507,1.256,1.3651,1.4358,1.4785,1.4785,1.5039,1.5396,0.0,0.0,0.0,0.0,0.0,0.0,0.0,1.5381,1.5381,1.5396,1.5396,1.5298,1.4845,1.4977,1.5183,1.4638,1.4343,1.4216,1.4197,1.3883,1.36,1.36,1.3407,1.3387,1.3968,1.479,1.5398,1.5398,1.5608,1.5708,1.5451,1.5922,1.6404,1.6667,1.6993,1.7313,1.7575,1.7608,1.7608,1.7608,1.7608,1.7608,1.7608,1.7608,1.7608,1.7608,1.7608,1.7608,1.7608,1.7608,1.7608,1.7608,1.7608,1.7608,1.7608,1.7608,1.7608,1.7608,1.7608,1.7608,1.7602,1.7882,1.7989,1.8009,1.8364,1.849,1.849,1.849,1.849,1.849,1.849,1.849,1.849,0.0,0.0,0.0,0.0,0.0,0.0,0.0,0.0,0.0,0.0,0.0,0.0,0.0,0.0,0.0,0.0,0.0,0.0,0.0,1.083,1.1171,1.1784,1.2056,1.235,1.2697,1.2825,1.2905,1.2905,1.2905,1.263,1.2116,1.1901,1.1977,1.2291,1.2439,1.2599,1.282,1.3465,1.3839,1.3977,1.4268,1.479,1.5337,0.0,0.0,0.0,0.0,0.0,0.0,0.0,0.0,0.0,1.522,1.5006,1.4569,1.4676,1.4722,1.4604,1.3967,1.4302,1.4658,1.3946,1.3689,1.36,1.36,1.3714,1.3935,1.4315,1.5068,1.5615,1.5431,1.5608,1.5848,1.6016,1.6326,1.668,1.6999,1.7294,1.7508,1.7595,1.7608,1.7608,1.7608,1.7608,1.7608,1.7608,1.7608,1.7608,1.7608,1.7608,1.7608,1.7608,1.7608,1.7608,1.7608,1.7608,1.7608,1.7608,1.7608,1.7608,1.7608,1.7608,1.7608,1.7615,1.7675,1.7722,1.7742,1.8022,1.8156,1.8169,1.841,1.849,1.849,1.849,1.849,1.849,0.0,0.0,0.0,0.0,0.0,0.0,0.0,0.0,0.0,0.0,0.0,0.0,0.0,0.0,0.0,0.0,0.0,0.0,0.0,0.0,1.1648,1.2184,1.2381,1.2617,1.2883,1.2905,1.2761,1.2464,1.2464,1.2236,1.1789,1.1396,1.1368,1.163,1.1898,1.21,1.2306,1.3046,1.3365,1.3383,1.3624,1.401,1.4392,0.0,0.0,0.0,0.0,0.0,0.0,0.0,0.0,0.0,1.4673,1.4432,1.3945,1.4272,1.4255,1.3967,1.3382,1.385,1.4353,1.3743,1.3693,1.3827,1.3919,1.4107,1.4342,1.4636,1.5297,1.5748,1.5581,1.5688,1.5901,1.625,1.652,1.6807,1.7159,1.7428,1.7608,1.7608,1.7608,1.7608,1.7608,1.7608,1.7608,1.7608,1.7608,1.7608,1.7608,1.7608,1.7608,1.7608,1.7608,1.7608,1.7608,1.7608,1.7608,1.7608,1.7608,1.7608,1.7608,1.7608,1.7608,1.7608,1.7608,1.7608,1.7622,1.7756,1.7836,1.7856,1.8063,1.813,1.813,1.813,1.813,1.813,0.0,0.0,0.0,0.0,0.0,0.0,0.0,0.0,0.0,0.0,0.0,0.0,0.0,0.0,0.0,0.0,0.0,0.0,0.0,0.0,1.2223,1.2262,1.2666,1.2905,1.2905,1.2905,1.2571,1.1901,1.1827,1.1745,1.164,1.073,1.0331,1.0427,1.1024,1.1316,1.1413,1.2453,1.2887,1.2887,1.2887,1.2933,1.2993,1.2917,0.0,0.0,0.0,0.0,0.0,0.0,0.0,0.0,1.3831,1.3727,1.3356,1.3688,1.3604,1.3316,1.2946,1.3206,1.3613,1.3633,1.3887,1.4202,1.4474,1.4561,1.4669,1.4932,1.5424,1.5795,1.5768,1.5788,1.5915,1.6284,1.6533,1.682,1.7199,1.7441,1.7608,1.7608,1.7608,1.7608,1.7608,1.7608,1.7608,1.7608,1.7608,1.7608,1.7608,1.7608,1.7608,1.7608,1.7608,1.7608,1.7608,1.7608,1.7608,1.7608,1.7608,1.7608,1.7608,1.7608,1.7608,1.7608,1.7608,1.7608,1.7608,1.7608,1.7608,1.7608,1.7608,1.7608,1.7608,1.7608,1.7608,1.7608,0.0,0.0,0.0,0.0,0.0,0.0,0.0,0.0,0.0,0.0,0.0,0.0,0.0,0.0,0.0,0.0,0.0,0.0,0.0,0.0,1.2359,1.2725,1.2844,1.2905,1.2905,1.2905,1.2822,1.2666,1.208,1.1408,1.0623,1.0399,1.0584,1.1084,1.1241,1.1451,1.1713,1.1951,1.2066,1.2066,1.2066,1.2435,1.2933,1.2297,1.2066,0.0,0.0,0.0,0.0,0.0,0.0,0.0,1.3,1.2883,1.2512,1.286,1.2772,1.2641,1.3005,1.3347,1.366,1.3935,1.4187,1.4502,1.4825,1.5066,1.5164,1.5019,1.5424,1.5735,1.5531,1.5648,1.5975,1.6526,1.6667,1.6887,1.7441,1.7568,1.7608,1.7608,1.7608,1.7608,1.7608,1.7608,1.7608,1.7608,1.7608,1.7608,1.7608,1.7608,1.7608,1.7608,1.7608,1.7608,1.7608,1.7608,1.7608,0.0,1.7608,1.7608,1.7608,1.7608,1.7608,1.7608,1.7608,1.7608,1.7608,1.7608,1.7608,1.7608,1.7608,1.7608,1.7608,1.7608,1.7608,1.7608,0.0,0.0,0.0,0.0,0.0,0.0,0.0,0.0,0.0,0.0,0.0,0.0,0.0,0.0,0.0,0.0,0.0,0.0,0.0,0.0,0.0,0.0,1.2905,1.2905,1.2905,1.2905,1.2843,1.2711,1.1943,1.1294,1.0767,1.0383,1.0392,1.0726,1.0898,1.1054,1.1226,1.1226,1.1226,1.1226,1.1226,1.1476,1.1802,1.1382,1.1226,1.1163,1.076,0.0,0.0,0.0,0.0,0.0,0.0,0.0,1.1957,1.2677,1.2716,1.2638,1.3086,1.3407,1.3673,1.4015,1.4302,1.4596,1.4919,1.5213,1.5391,1.5384,1.5618,1.5761,1.5631,1.5708,1.6001,1.6613,1.6707,1.6907,1.7528,1.7608,1.7608,1.7608,1.7608,1.7608,1.7608,1.7608,1.7608,1.7608,1.7608,1.7608,1.7608,1.7608,1.7608,1.7608,1.7608,1.7608,1.7608,1.7608,1.7608,1.7608,1.7608,1.7608,1.7608,1.7608,1.7608,1.7608,1.7608,1.7608,1.7608,1.7608,1.7608,1.7608,1.7608,1.7608,1.7608,1.7608,1.7608,1.7608,0.0,0.0,0.0,0.0,0.0,0.0,0.0,0.0,0.0,0.0,0.0,0.0,0.0,0.0,0.0,0.0,0.0,0.0,0.0,0.0,0.0,0.0,1.2905,1.2905,1.2905,1.2974,1.2883,1.2676,1.1882,1.1488,1.1478,1.0543,1.0125,1.0207,1.0479,1.0609,1.0609,1.0609,1.0609,1.0609,1.0609,1.0609,1.0609,1.0609,1.0609,1.0609,1.0609,1.0609,1.0609,1.0609,0.0,0.0,0.0,0.0,1.1671,1.2617,1.2805,1.2777,1.3046,1.336,1.3673,1.4015,1.4342,1.4663,1.4932,1.5247,1.5538,1.5755,1.5808,1.5808,1.5808,1.5808,1.5981,1.654,1.6673,1.6894,1.7461,1.7575,1.7608,1.7608,1.7608,1.7608,1.7608,1.7608,1.7608,1.7608,1.7608,1.7608,1.7608,1.7608,1.7608,1.7608,1.7608,1.7608,1.7608,1.7608,1.7608,1.7608,1.7608,1.7608,1.7608,1.7608,1.7608,1.7608,1.7608,1.7608,1.7608,1.7608,1.7608,1.7608,1.7608,1.7608,1.7608,1.7608,1.7608,1.7608,0.0,0.0,0.0,0.0,0.0,0.0,0.0,0.0,0.0,0.0,1.3195,0.0,0.0,0.0,0.0,0.0,0.0,0.0,1.2805,0.0,0.0,1.2905,1.2905,1.2905,1.2905,1.3242,1.3396,1.3365,1.2619,1.2245,1.2216,1.0772,1.0254,1.0533,1.0573,1.0609,1.0609,1.0609,1.0609,1.0609,1.0609,1.0609,1.0609,1.0609,1.0609,1.0609,1.0609,1.0609,1.0609,1.0609,1.076,0.0,0.0,0.0,1.1852,1.2017,1.2213,1.2444,1.2764,1.3213,1.3673,1.4015,1.4524,1.4939,1.5001,1.5384,1.5761,1.5795,1.5808,1.5808,1.5808,1.5808,1.5915,1.6297,1.6547,1.682,1.7213,1.7448,1.7608,1.7608,1.7608,1.7608,1.7608,1.7608,1.7608,1.7608,1.7608,1.7608,1.7608,1.7608,1.7608,1.7608,1.7608,1.7608,1.7608,1.7608,1.7608,1.7608,1.7608,1.7608,1.7608,1.7608,1.7608,1.7608,1.7608,1.7608,1.7608,1.7608,1.7608,1.7608,1.7608,1.7608,1.7608,1.7608,1.7608,1.7608,0.0,0.0,0.0,0.0,0.0,0.0,0.0,0.0,0.0,0.0,0.0,1.3982,0.0,0.0,0.0,1.2647,1.3092,1.3262,1.2917,1.2905,1.2905,1.2905,1.2905,1.3013,1.3232,1.3408,1.3519,1.356,1.2783,1.2284,1.2048,1.0911,1.0466,1.0609,1.0609,1.0609,1.0609,1.0609,1.0609,1.0609,1.0609,1.0609,1.0609,1.0609,1.0609,1.0613,1.0774,1.0818,1.0845,1.1005,1.1129,1.1263,1.1447,0.0,0.0,0.0,1.2204,1.2365,1.2703,1.3186,1.3673,1.4015,1.4551,1.5033,1.5193,1.5531,1.5808,1.5808,1.5808,1.5808,1.5808,1.5808,1.5901,1.625,1.6404,1.6652,1.7132,1.7306,1.7428,1.7588,1.7608,1.7608,1.7608,1.7608,1.7608,1.7608,1.7608,1.7608,1.7608,1.7608,1.7608,1.7608,1.7608,1.7608,1.7608,1.7608,1.7608,1.7608,1.7608,1.7608,1.7608,1.7608,1.7608,1.7608,1.7608,1.7608,1.7608,1.7608,1.7608,1.7608,1.7608,1.7608,1.7608,1.7608,1.7608,1.7608,0.0,0.0,0.0,0.0,0.0,0.0,0.0,0.0,0.0,0.0,0.0,0.0,0.0,0.0,0.0,0.0,1.331,1.3372,1.2929,1.3001,1.3049,1.3049,1.3157,1.335,1.3649,1.3574,1.3553,1.3598,1.2695,1.2085,1.1787,1.0989,1.0609,1.0609,1.0609,1.0609,1.0609,1.0609,1.0609,1.0609,1.0609,1.0609,1.0609,1.0609,1.064,1.0727,1.0932,1.1042,1.1136,1.1339,1.1459,1.1577,1.1815,1.1953,0.0,0.0,0.0,1.2365,1.2703,1.3092,1.35,1.3975,1.4497,1.4972,1.5311,1.5618,1.5808,1.5808,1.5808,1.5808,1.5808,1.5808,1.5881,1.6126,1.625,1.6451,1.6918,1.7105,1.728,1.7468,1.7568,1.7608,1.7608,1.7608,1.7608,1.7608,1.7608,1.7608,1.7608,1.7608,1.7608,1.7608,1.7608,1.7608,1.7608,1.7608,1.7608,1.7608,1.7608,1.7608,1.7608,1.7608,1.7608,1.7608,1.7608,1.7608,1.7608,1.7608,1.7608,1.7608,1.7608,1.7608,1.7608,1.7608,1.7608,1.7608,0.0,0.0,0.0,0.0,0.0,0.0,0.0,0.0,0.0,0.0,0.0,0.0,0.0,1.3322,1.2978,1.2905,1.2929,1.292,1.2905,1.3264,1.3477,1.3477,1.3831,0.0,1.4075,1.3761,1.3605,1.3598,1.2404,1.1819,1.1787,1.0989,1.0609,1.0609,1.0609,1.0609,1.0609,1.0609,1.0609,1.0609,1.0609,1.0609,1.0609,1.0609,1.076,1.0985,1.0982,1.1152,1.1386,1.1406,1.1617,1.1886,1.1882,1.2076,1.2285,0.0,0.0,0.0,1.2703,1.2823,1.3038,1.3889,1.4315,1.4667,1.5264,1.5618,1.5808,1.5808,1.5808,1.5808,1.5808,1.5808,1.5808,1.5828,1.6086,1.631,1.6337,1.6851,1.7206,1.7226,1.7441,1.7608,1.7608,1.7608,1.7608,1.7608,1.7608,1.7608,1.7608,1.7608,1.7608,1.7608,1.7608,1.7608,1.7608,1.7608,1.7608,1.7608,1.7608,1.7608,1.7608,1.7608,1.7608,1.7608,1.7608,1.7608,1.7608,1.7608,1.7608,1.7608,1.7608,1.7608,1.7608,1.7608,1.7608,1.7608,0.0,0.0,0.0,0.0,0.0,0.0,0.0,0.0,0.0,0.0,0.0,0.0,0.0,1.3614,1.3712,1.3319,1.3513,1.3669,1.3669,1.3815,1.389,1.389,1.4013,1.4241,1.4537,1.3932,1.3479,1.3214,1.2265,1.1546,1.1014,1.0728,1.0609,1.0609,1.0609,1.0609,1.0609,1.0609,1.07,1.0838,1.0667,1.0814,1.1096,1.0925,1.1015,1.1306,1.1697,1.1904,1.2044,1.242,1.2524,1.2487,1.2487,1.2409,1.2305,1.2305,1.2305,1.2325,1.245,1.2643,1.2951,1.3627,1.4,1.4396,1.5006,1.5344,1.5551,1.5551,1.5675,1.5808,1.5808,1.5808,1.5808,1.5808,1.5895,1.6052,1.627,1.6478,1.6678,1.6866,1.7153,1.7327,1.7327,1.7501,1.7608,1.7608,1.7608,1.7608,1.7608,1.7608,1.7608,1.7608,1.7608,1.7608,1.7608,1.7608,1.7608,1.7608,1.7608,1.7608,1.7608,1.7608,1.7608,1.7608,1.7608,1.7608,1.7608,1.7608,1.7608,1.7608,1.7608,1.7608,1.7608,1.7608,1.7608,1.7608,0.0,0.0,0.0,0.0,0.0,0.0,0.0,0.0,0.0,0.0,0.0,0.0,0.0,0.0,1.4144,1.3737,1.3948,1.4091,1.4091,1.4241,1.4328,1.4328,1.4465,1.4558,1.4597,1.3811,1.3142,1.2604,1.1795,1.1123,1.0609,1.0609,1.0609,1.0609,1.0609,1.0609,1.0615,1.07,1.0831,1.0982,1.0905,1.1082,1.1399,1.1323,1.147,1.1766,1.2271,1.2537,1.2665,1.3053,1.3026,1.2803,1.2803,1.2564,1.2305,1.2305,1.2305,1.2305,1.2305,1.2464,1.2785,1.3447,1.3774,1.4122,1.4832,1.5213,1.5398,1.5398,1.5601,1.5808,1.5808,1.5808,1.5808,1.5808,1.5808,1.5875,1.6092,1.6237,1.6371,1.6533,1.6846,1.7026,1.7026,1.7287,1.7468,1.7468,1.7555,0.0,1.7608,1.7608,1.7608,1.7608,1.7608,1.7608,1.7608,1.7608,1.7608,1.7608,1.7608,1.7608,1.7608,1.7608,1.7608,1.7608,1.7608,1.7608,1.7608,1.7608,1.7608,1.7608,1.7608,1.7608,1.7608,1.7608,1.7608,1.7608,0.0,0.0,0.0,0.0,0.0,0.0,0.0,0.0,0.0,0.0,0.0,0.0,0.0,0.0,0.0,1.4143,1.4143,1.4143,1.4143,1.4561,1.4819,1.4819,1.5195,1.5021,1.4228,1.341,1.2604,1.1803,1.0982,1.0609,1.0609,1.0609,1.0609,1.0609,1.0615,1.0606,1.0626,1.0891,1.1002,1.1042,1.1306,1.1432,1.1479,1.1801,1.2096,1.2365,1.2703,1.2985,1.3207,1.3213,1.3046,1.2816,1.2796,1.2551,1.2305,1.2305,1.2305,1.2305,0.0,0.0,0.0,1.3367,1.3586,1.382,1.4772,1.5193,1.5378,1.5391,1.5618,1.5795,1.5808,1.5808,1.5808,1.5808,1.5808,1.5808,1.5808,1.6079,1.6284,1.6284,1.6513,1.6693,1.6693,1.6986,1.7186,1.7186,1.7434,1.7595,1.7595,1.7608,1.7608,1.7608,1.7608,1.7608,1.7608,1.7608,1.7608,1.7608,1.7608,1.7608,1.7608,1.7608,1.7608,1.7608,1.7608,1.7608,1.7608,1.7608,1.7608,1.7608,1.7608,1.7608,1.7608,1.7608,1.7608,1.7608,0.0,0.0,0.0,0.0,0.0,0.0,0.0,0.0,0.0,0.0,0.0,0.0,0.0,0.0,1.4727,1.5015,1.5044,1.5044,1.5044,1.5152,1.522,1.522,1.5337,1.5021,1.4228,1.341,1.2604,1.1803,0.0,0.0,0.0,0.0,0.0,1.06,1.0798,1.0891,1.0891,1.0978,1.1253,1.1654,1.1734,1.2022,1.2429,1.2528,1.2711,1.2999,1.3273,1.3427,1.354,1.3774,1.3507,1.3006,1.2584,1.2365,1.2305,1.2305,1.2305,1.2305,1.2305,0.0,0.0,0.0,0.0,0.0,1.4442,1.4703,1.4861,1.5311,1.5464,1.5578,1.5768,1.5808,1.5808,1.5808,1.5808,1.5808,1.5808,1.5875,1.5952,1.5952,1.6213,1.6417,1.6417,1.6685,1.6827,0.0,1.7127,1.732,1.732,1.7495,1.7608,1.7608,1.7608,1.7608,1.7608,1.7608,1.7608,1.7608,1.7608,1.7608,1.7608,1.7608,1.7608,1.7608,1.7608,1.7608,1.7608,1.7608,1.7608,1.7608,1.7608,1.7608,1.7608,1.7608,1.7608,1.7608,0.0,0.0,0.0,0.0,0.0,0.0,0.0,0.0,0.0,0.0,0.0,0.0,0.0,0.0,1.5146,1.5376,1.5396,1.5396,1.5396,1.5079,1.4903,1.4903,1.4584,1.4025,1.322,0.0,0.0,0.0,0.0,0.0,0.0,0.0,0.0,0.0,1.0932,1.1146,1.1373,1.1373,1.1647,1.2069,1.2069,1.2368,1.2816,1.2924,1.3053,1.3247,1.366,1.3807,1.3834,1.4028,1.3774,1.3247,1.2532,1.2403,1.2477,1.2338,1.2305,1.2305,1.2305,1.2305,1.2418,1.2919,0.0,0.0,1.3987,1.4321,1.4627,1.5124,1.524,1.5327,1.5568,1.5551,1.5504,1.5601,1.5628,1.5668,1.5788,1.5808,1.5808,1.5808,1.5979,1.6086,1.6086,1.6353,1.6526,1.6526,1.6819,1.7046,1.7192,1.736,1.7481,1.7608,1.7608,1.7608,1.7608,1.7608,1.7608,1.7608,1.7608,1.7608,1.7608,1.7608,1.7608,1.7608,1.7608,1.7608,1.7608,1.7608,1.7608,1.7608,1.7608,1.7608,1.7608,1.7608,1.7608,1.7608,0.0,0.0,0.0,0.0,0.0,0.0,0.0,0.0,0.0,0.0,0.0,0.0,0.0,0.0,0.0,0.0,1.5191,1.5123,1.5123,1.4466,0.0,0.0,0.0,0.0,0.0,0.0,0.0,0.0,0.0,0.0,0.0,0.0,0.0,0.0,0.0,1.14,1.1906,1.1922,1.2102,1.2351,1.2392,1.2597,1.2918,1.3193,1.3307,1.3373,1.3901,1.4109,1.4096,1.4008,1.3814,1.3453,1.2625,1.2569,1.273,1.2444,1.2325,1.2305,1.2305,1.2305,1.2371,1.2729,1.2999,0.0,1.36,1.4074,1.4563,1.4919,1.4959,1.5026,1.5297,1.516,1.5073,1.5327,1.5378,1.5498,1.5768,1.5808,1.5808,1.5808,1.5808,1.5808,1.5808,1.6072,1.625,1.625,1.6493,1.6787,1.7132,1.7186,1.732,1.7548,1.7588,1.7608,1.7608,1.7608,1.7608,1.7608,1.7608,1.7608,1.7608,1.7608,1.7608,1.7608,1.7608,1.7608,1.7608,1.7608,1.7608,1.7608,1.7608,1.7608,1.7608,1.7608,1.7608,1.7608,1.3987,0.0,0.0,0.0,0.0,0.0,0.0,0.0,0.0,0.0,0.0,0.0,1.5396,1.483,0.0,0.0,1.3831,1.3478,1.3478,1.3327,0.0,0.0,0.0,0.0,0.0,0.0,0.0,0.0,0.0,0.0,0.0,0.0,0.0,0.0,0.0,1.1799,1.1902,1.2136,1.241,1.2717,1.2933,1.3187,1.348,1.3801,1.3915,1.3928,1.4069,1.4109,1.4036,1.354,1.348,1.3487,1.2885,1.2756,1.2789,1.2717,1.251,1.2305,1.2305,1.2305,1.2371,1.2729,1.2999,0.0,1.3881,1.4088,1.4322,1.4901,1.4792,1.4696,1.5019,1.5048,1.5028,1.5059,1.5267,1.5498,1.5768,1.5808,1.5808,1.5808,1.5808,1.5808,1.5808,1.5855,1.5888,1.5888,1.6192,1.6511,1.6774,1.7046,1.7226,1.7286,1.7488,1.7608,1.7608,1.7608,1.7608,1.7608,1.7608,1.7608,1.7608,1.7608,1.7608,1.7608,1.7608,1.7608,1.7608,1.7608,1.7608,1.7608,1.7608,1.7608,1.7608,1.7608,1.7608,1.7608,1.4449,1.4615,0.0,0.0,0.0,0.0,0.0,0.0,0.0,1.5396,1.505,1.4643,1.4258,1.3831,1.359,0.0,0.0,0.0,0.0,0.0,0.0,0.0,0.0,0.0,0.0,0.0,0.0,0.0,0.0,0.0,0.0,0.0,0.0,0.0,0.0,1.1969,1.2122,1.2417,1.2718,1.2999,1.2999,1.316,1.344,1.3734,1.3847,1.386,1.4035,1.4109,1.4021,1.356,1.3487,0.0,1.3139,1.2911,1.2803,0.0,1.2551,1.2305,1.2305,0.0,0.0,1.2504,0.0,0.0,0.0,1.3874,1.4208,1.4649,1.4509,1.4396,1.4711,1.4645,1.4591,1.4723,1.4863,1.5064,1.5357,1.5621,1.5808,1.5808,1.5808,1.5808,1.5808,1.5808,1.5808,1.5808,1.5965,1.6179,1.6473,1.6658,1.6805,1.6953,1.724,1.7394,1.7394,1.7535,1.7608,1.7608,1.7608,1.7608,1.7608,1.7608,1.7608,1.7608,1.7608,1.7608,1.7608,1.7608,1.7608,1.7608,1.7608,1.7608,1.7608,1.7608,1.7608,1.7608,1.4916,1.5176,0.0,0.0,0.0,0.0,0.0,0.0,0.0,1.5191,1.4466,1.3746,1.313,1.2897,1.2821,1.2928,0.0,0.0,0.0,0.0,0.0,0.0,0.0,1.1406,0.0,0.0,0.0,0.0,0.0,0.0,0.0,0.0,0.0,0.0,1.1986,1.2136,1.2405,1.2683,1.2945,1.3193,1.3019,1.3126,1.3407,1.362,1.3707,1.372,1.4001,1.4109,1.4041,1.37,1.364,1.3647,1.33,1.3059,0.0,0.0,0.0,0.0,0.0,0.0,0.0,0.0,0.0,1.3207,0.0,0.0,0.0,1.4389,1.4249,1.4162,1.4374,1.4249,1.4142,1.4301,1.4427,0.0,0.0,1.5297,0.0,1.5641,1.5641,1.5661,1.5715,1.5775,1.5808,1.5808,1.5808,1.5908,1.6197,1.627,1.6404,1.6613,1.6933,1.7139,1.7199,1.7408,1.7555,1.7608,1.7608,1.7608,1.7608,1.7608,1.7608,1.7608,1.7608,1.7608,1.7608,1.7608,1.7608,1.7608,1.7608,1.7608,1.7608,1.7608,1.7608,1.7608,1.5327,1.5366,1.5396,0.0,0.0,0.0,0.0,0.0,1.5138,1.4436,1.3636,1.3186,1.3336,1.2508,1.2153,1.2683,1.1845,1.1378,1.1604,1.1574,0.0,0.0,0.0,0.0,1.1406,0.0,0.0,0.0,0.0,0.0,0.0,0.0,0.0,0.0,1.2251,1.2437,1.2756,1.2789,1.2945,1.3227,1.3433,1.37,1.3995,1.4021,1.4035,1.4041,1.4096,1.4109,1.4041,0.0,1.3794,1.3941,0.0,1.3186,1.3106,1.2864,0.0,0.0,0.0,0.0,0.0,0.0,1.2972,0.0,0.0,0.0,1.4116,1.4128,0.0,1.4116,1.4128,0.0,0.0,1.376,1.4161,1.4421,1.4236,1.4718,1.5086,1.5086,1.5086,1.5186,1.5424,1.5655,1.5808,1.5808,1.5808,1.5821,1.5855,1.6126,1.631,1.6344,1.6607,1.6906,1.7199,1.7233,1.7354,1.7608,1.7608,1.7608,1.7608,1.7608,1.7608,1.7608,1.7608,1.7608,1.7608,1.7608,1.7608,1.7608,1.7608,1.7608,1.7608,1.7608,1.7608,1.7608,1.5308,1.5396,1.5396,1.5396,0.0,0.0,0.0,0.0,1.3956,1.3142,1.2917,1.2745,1.255,1.1952,1.1805,1.2409,1.2036,1.1877,1.2189,1.2209,0.0,0.0,1.2106,1.2011,0.0,0.0,0.0,0.0,1.1913,0.0,0.0,0.0,0.0,0.0,1.1771,1.1618,1.1792,1.2308,1.2488,1.2494,1.2943,1.3626,1.4342,1.4342,1.4449,1.4618,1.4618,1.4618,1.4598,0.0,1.4376,0.0,0.0,0.0,0.0,1.3253,0.0,0.0,0.0,0.0,0.0,0.0,0.0,0.0,1.3613,0.0,1.4109,0.0,0.0,0.0,0.0,0.0,0.0,0.0,1.4108,1.4229,0.0,0.0,1.4604,1.4968,0.0,0.0,1.5364,1.5351,1.5398,1.5565,1.5578,1.5578,1.5578,1.5858,1.6012,1.6012,1.6299,1.6538,1.669,1.7032,1.7266,1.7361,1.7528,1.7608,1.7608,1.7608,1.7608,1.7608,1.7608,1.7608,1.7608,1.7608,1.7608,1.7608,1.7608,1.7608,1.7608,1.7608,1.7608,1.7608,1.4628,1.4732,1.4732,1.4732,0.0,0.0,0.0,0.0,1.3001,1.2409,1.2341,1.2261,1.2033,1.1724,1.1817,1.2492,1.2472,1.2571,1.2891,1.2831,1.2924,1.32,1.2705,1.2544,1.2796,0.0,0.0,0.0,0.0,0.0,0.0,0.0,0.0,0.0,1.172,1.1376,1.1231,1.1959,1.2027,1.1711,1.2158,1.3068,1.4227,1.4537,1.4798,1.5008,1.5008,1.5008,1.5008,1.5008,1.4845,0.0,1.4825,0.0,1.3574,0.0,0.0,0.0,1.3333,0.0,0.0,0.0,0.0,0.0,0.0,0.0,0.0,0.0,0.0,0.0,0.0,0.0,0.0,0.0,0.0,1.4076,0.0,1.4035,1.4263,1.4691,0.0,0.0,0.0,1.5059,1.5073,1.5287,1.53,1.5311,1.5391,1.5568,1.5721,1.5801,1.6039,1.6217,1.6297,1.6799,1.7119,1.7206,1.7468,1.7608,1.7608,1.7608,1.7608,1.7608,1.7608,1.7608,1.7608,1.7608,1.7608,1.7608,1.7608,1.7608,1.7608,1.7608,1.7608,1.7608,1.307,1.3085,1.3085,1.3085,1.3054,1.3124,0.0,1.3036,1.2716,1.2682,1.1962,1.1661,1.2225,1.2049,1.2229,1.3106,1.2925,1.2904,1.3173,1.2932,1.2924,1.32,1.2925,1.2789,1.2803,1.2789,0.0,0.0,0.0,0.0,0.0,0.0,0.0,0.0,1.2612,1.234,1.1704,1.1989,1.174,1.1123,1.1161,1.2083,1.3554,0.0,1.5001,1.5008,1.5008,0.0,0.0,1.5008,1.5001,0.0,0.0,0.0,0.0,0.0,0.0,0.0,0.0,0.0,0.0,1.4327,0.0,0.0,0.0,0.0,1.4109,0.0,0.0,0.0,0.0,0.0,0.0,0.0,0.0,0.0,0.0,1.3908,1.4116,1.4136,1.4362,0.0,0.0,1.4803,1.4992,1.4999,1.4999,1.5126,1.5384,1.5404,1.5538,1.5795,1.5815,1.5979,1.6297,1.6567,1.6892,1.7206,1.7468,1.7608,1.7608,1.7608,1.7608,1.7608,1.7608,1.7608,1.7608,1.7608,1.7608,1.7608,1.7608,1.7608,1.7608,1.7608,1.7608,1.7608,1.2052,1.1944,1.2225,1.3114,1.3012,1.2639,1.2147,1.2135,1.2231,1.2407,1.2378,1.2544,1.3107,1.3087,1.33,1.3994,1.3981,1.3968,1.4047,1.3981,1.3881,1.3794,1.3715,1.3474,1.306,1.324,1.3093,0.0,0.0,0.0,0.0,0.0,0.0,0.0,0.0,1.0575,0.9751,1.02,1.02,0.9996,1.0963,1.1608,1.2255,0.0,1.5364,1.5538,1.5538,1.5538,0.0,1.5538,1.5538,1.5518,1.5394,1.5124,1.4819,1.4718,1.441,0.0,0.0,0.0,1.4609,1.5003,0.0,0.0,0.0,0.0,0.0,0.0,0.0,0.0,0.0,0.0,0.0,0.0,0.0,0.0,0.0,1.4021,1.4109,1.4109,1.4175,1.4309,0.0,0.0,1.4484,1.4656,1.4669,1.4803,1.512,1.5291,1.5531,1.5795,1.5808,1.5855,1.5979,1.6273,1.6591,1.686,1.718,1.7421,1.7608,1.7608,1.7608,1.7608,1.7608,1.7608,1.7608,1.7608,1.7608,1.7608,1.7608,1.7608,1.7608,1.7608,1.7608,1.7608,1.1508,1.1493,1.1809,1.2563,1.2544,1.2223,1.167,1.1942,1.2288,1.2457,1.2832,1.3253,1.3727,1.3853,1.4127,1.4636,1.4676,1.4676,1.4676,1.4583,1.4482,1.4424,1.4317,1.3851,1.301,1.3507,1.333,1.2419,0.0,1.3193,0.0,0.0,0.0,0.0,0.0,0.9639,0.8732,0.9229,0.917,0.8891,1.0319,1.0839,0.0,0.0,1.4746,1.5614,0.0,1.5415,1.5808,1.5808,1.5808,1.5808,1.5808,1.5548,1.5271,1.5271,1.5003,1.479,1.5193,1.522,0.0,1.5478,1.528,0.0,1.4856,0.0,1.4417,0.0,0.0,0.0,0.0,0.0,0.0,0.0,0.0,0.0,0.0,1.4109,1.4109,1.4109,1.4109,1.4162,1.4349,1.4195,1.4162,1.4349,1.4362,1.4543,0.0,0.0,1.5424,1.5795,1.5808,1.5808,1.5808,1.6126,1.6444,1.6707,1.7033,1.7353,1.7608,1.7608,1.7608,1.7608,1.7608,1.7608,1.7608,1.7608,1.7608,1.7608,1.7608,1.7608,1.7608,1.7608,1.7608,1.7608,1.1435,1.1697,1.1821,1.1499,1.1703,1.1933,1.1946,1.2422,1.2816,1.2843,1.33,1.376,1.4075,1.4382,1.4676,1.4979,1.5019,1.5003,1.4938,1.4641,1.4564,1.4793,1.454,1.3777,1.2529,1.3514,1.329,1.1727,0.0,0.0,0.0,0.0,0.0,0.0,1.0533,0.9572,0.8656,0.9046,0.8671,0.7907,0.92,0.9747,0.9905,1.1077,1.3058,1.51,1.4219,1.4681,1.573,1.5784,1.5808,1.5808,1.5808,1.5808,1.5808,1.5808,1.5808,1.5808,1.5808,1.5601,1.5484,1.5735,0.0,0.0,0.0,0.0,1.5008,0.0,0.0,0.0,0.0,0.0,0.0,0.0,0.0,0.0,0.0,0.0,1.4109,1.4109,1.4109,1.4109,1.4109,1.4109,1.4109,1.4109,1.4109,1.4357,0.0,0.0,1.5247,1.5768,1.5795,1.5808,1.5808,1.6112,1.6417,1.6687,1.7013,1.7333,1.7588,1.7602,1.7608,1.7608,1.7608,1.7608,1.7608,1.7608,1.7608,1.7608,1.7608,1.7608,1.7608,1.7608,1.7608,1.7608,1.2078,1.2138,1.2171,1.2073,1.2138,1.2283,1.2522,1.2702,1.2945,1.3333,1.3741,1.4088,1.4376,1.4863,1.5204,1.53,1.5484,1.5085,1.3901,1.3964,1.3467,1.2159,1.2407,1.2106,1.1127,1.2533,1.2867,1.2007,1.3249,0.0,1.384,0.0,0.0,0.0,0.9716,0.8682,0.7742,0.7847,0.7851,0.7845,0.8273,0.8902,0.952,0.0,1.0432,1.2623,1.3564,1.4118,1.4531,1.5486,1.5808,1.5808,1.5808,1.5808,1.5808,1.5808,1.5808,1.5808,1.5808,1.5748,1.5708,1.5788,1.5558,1.5327,0.0,0.0,0.0,0.0,0.0,0.0,0.0,0.0,0.0,0.0,0.0,0.0,0.0,0.0,1.4109,1.4109,1.4109,1.4109,1.4109,1.4109,1.4109,1.4109,1.4109,1.4249,1.4616,0.0,0.0,1.5498,1.5695,1.5808,1.5808,1.5881,1.6092,1.6411,1.668,1.6999,1.732,1.7508,1.7608,1.7608,1.7608,1.7608,1.7608,1.7608,1.7608,1.7608,1.7608,1.7608,1.7608,1.7608,1.7608,1.7608,1.2305,1.2423,1.251,1.251,1.2631,1.2759,1.2945,1.3206,1.3521,1.3947,1.3879,1.385,1.4007,1.3919,1.3862,1.3862,1.4023,1.37,1.2813,1.2929,1.255,1.1505,1.1741,1.1408,1.0366,1.1654,1.1864,1.0882,1.2062,0.0,1.2537,0.0,0.0,0.0,0.8623,0.7805,0.7278,0.7437,0.7567,0.7733,0.7854,0.8251,0.0,0.8126,0.8771,1.018,1.1647,1.2928,1.4022,1.4728,1.5337,1.5808,1.5808,1.5808,1.5808,1.5808,1.5808,1.5808,1.5808,1.5808,1.5808,1.5808,1.5681,1.5561,1.5561,1.5458,1.5344,0.0,0.0,0.0,0.0,0.0,0.0,0.0,0.0,0.0,0.0,0.0,1.4109,1.4109,1.4109,1.4109,1.4109,1.4109,1.4109,1.4109,1.4109,1.429,0.0,0.0,0.0,1.5384,1.5558,1.5578,1.5451,1.5681,1.5888,1.6086,1.6506,1.6886,1.7213,1.7474,1.7608,1.7608,1.7608,1.7608,1.7608,1.7608,1.7608,1.7608,1.7608,1.7608,1.7608,1.7608,1.7608,1.7608,1.2412,1.2651,1.2857,1.2898,1.2962,1.3061,1.3152,1.3553,1.394,1.4261,1.363,1.3169,1.318,1.2432,1.1952,1.1958,1.1963,1.1874,1.1697,1.1668,1.1585,1.1409,1.1385,1.0877,0.9756,1.0713,1.0599,0.9296,0.0,0.0,0.0,0.0,0.0,0.8846,0.7643,0.7105,0.7168,0.7478,0.7611,0.7641,0.7784,0.7817,0.7817,0.7817,0.7898,0.8162,0.9312,1.1307,1.3416,1.3584,1.4489,1.5564,1.5564,1.5659,1.5808,1.5808,1.5808,1.5808,1.5808,1.5808,1.5808,1.5808,1.5808,1.5808,1.5808,1.5808,1.5808,1.5808,1.5601,1.5438,0.0,0.0,0.0,0.0,0.0,0.0,0.0,0.0,1.4128,1.4088,1.4122,0.0,1.4088,1.4109,1.4109,1.4109,1.4109,0.0,0.0,0.0,0.0,1.5264,1.5357,1.53,1.5046,0.0,1.5808,1.5815,1.6402,1.684,1.7152,1.7461,1.7608,1.7608,1.7608,1.7608,1.7608,1.7608,1.7608,1.7608,1.7608,1.7608,1.7608,1.7608,1.7608,1.7608,1.2999,1.3093,1.3206,1.3427,1.2729,1.2335,1.2943,1.2709,1.264,1.3188,1.2438,1.1881,1.1999,1.2101,1.2189,1.2298,1.2313,1.1803,1.0573,1.0489,0.995,0.873,0.8676,0.8577,0.8357,0.9332,0.9673,0.0,0.0,0.0,0.0,0.0,0.0,0.8846,0.7643,0.7188,0.7365,0.7522,0.0,0.7787,0.7915,0.7973,0.7973,0.7973,0.7993,0.8038,0.8258,0.9361,1.0847,1.1896,1.3132,1.4238,1.4238,1.4949,1.5808,1.5808,1.5808,1.5808,1.5808,1.5808,1.5808,1.5808,1.5808,1.5808,1.5808,1.5808,1.5808,1.5808,1.5768,1.5655,1.5438,0.0,0.0,0.0,0.0,0.0,0.0,0.0,1.4355,1.4136,1.4302,1.4349,1.4129,1.4109,1.4109,1.4109,1.4109,0.0,0.0,0.0,0.0,0.0,1.5144,0.0,0.0,0.0,1.5808,1.5815,1.6402,1.6734,1.68,1.7335,1.7608,1.7608,1.7608,1.7608,1.7608,1.7608,1.7608,1.7608,1.7608,1.7608,1.7608,1.7608,1.7608,1.7608,1.2296,1.2439,1.2374,1.1919,1.1557,1.1516,1.2031,1.1426,1.1298,1.244,1.1565,1.0876,1.1006,1.0586,1.0321,1.0357,1.0365,1.0073,0.9371,0.9315,0.8966,0.8189,0.816,0.8098,0.7992,0.848,0.8631,0.8426,0.0,0.0,0.0,0.0,0.0,0.7955,0.7466,0.7302,0.741,0.0,0.0,0.78,0.7952,0.7988,0.7988,0.7988,0.7988,0.7988,0.7988,0.8407,0.9167,1.046,1.2231,1.3902,1.3902,1.4776,1.5808,1.5808,1.5808,1.5808,1.5808,1.5808,1.5808,1.5808,1.5808,1.5808,1.5808,1.5808,1.5808,1.5808,1.5808,1.5715,1.5451,1.5164,0.0,0.0,0.0,0.0,0.0,0.0,1.4447,1.4329,1.4414,1.4447,1.4322,1.4175,1.4109,1.4109,0.0,0.0,0.0,0.0,0.0,0.0,0.0,0.0,0.0,0.0,0.0,1.5391,1.6279,1.6707,1.6727,1.7315,1.7608,1.7608,1.7608,1.7608,1.7608,1.7608,1.7608,1.7608,1.7608,1.7608,1.7608,1.7608,1.7608,1.7608,1.1402,1.1547,1.1407,1.057,1.0458,1.0608,1.0966,1.0151,1.0029,1.1569,1.0648,0.9887,1.0016,0.9155,0.8543,0.8577,0.8577,0.8564,0.8533,0.853,0.8492,0.8349,0.8311,0.8214,0.8067,0.803,0.7885,0.0,0.0,0.0,0.0,0.0,0.0,0.0,0.0,0.0,0.0,0.0,0.7807,0.7847,0.7966,0.7988,0.7988,0.7988,0.7988,0.7988,0.7988,0.7988,0.8162,0.9217,1.1307,1.3464,1.3464,1.4537,1.5808,1.5808,1.5808,1.5808,1.5808,1.5808,1.5808,1.5808,1.5808,1.5808,1.5808,1.5808,1.5808,1.5808,1.5808,1.5735,1.5531,1.5438,0.0,0.0,0.0,0.0,0.0,0.0,1.4589,1.4507,1.4554,1.4589,1.4507,1.4255,1.4109,1.4109,0.0,0.0,1.4481,0.0,0.0,0.0,0.0,1.4805,1.4616,0.0,1.5571,1.5303,1.6239,1.674,1.6814,1.7367,1.7608,1.7608,1.7608,1.7608,1.7608,1.7608,1.7608,1.7608,1.7608,1.7608,1.7608,1.7608,1.7608,1.7608,1.1106,1.1005,1.0972,1.1151,1.0214,0.9603,1.0062,0.9158,0.8903,1.0213,0.9367,0.8701,0.8856,0.8743,0.872,0.8855,0.8869,0.8808,0.8699,0.8689,0.8621,0.8495,0.8366,0.8287,0.8274,0.8084,0.7935,0.0,0.0,0.7512,0.0,0.0,0.0,0.0,0.0,0.0,0.0,0.7797,0.7868,0.7971,0.7985,0.7988,0.7988,0.7988,0.7988,0.7988,0.7988,0.7988,0.8017,0.8137,0.992,1.2091,1.2091,1.3812,1.5808,1.5808,1.5808,1.5808,1.5808,1.5808,1.5808,1.5808,1.5808,1.5808,1.5808,1.5808,1.5808,1.5808,1.5808,1.5795,1.5768,1.5548,1.5304,0.0,0.0,0.0,0.0,0.0,1.4845,1.4534,1.4778,1.4839,1.4521,1.4255,1.4109,1.4109,1.4109,0.0,0.0,0.0,0.0,1.4549,0.0,1.4676,1.4939,1.5287,1.5702,1.6183,1.6526,1.6872,1.7172,1.7461,1.7608,1.7608,1.7608,1.7608,1.7608,1.7608,1.7608,1.7608,1.7608,1.7608,1.7608,1.7608,1.7608,1.7608,0.9993,1.0023,0.0,0.0,0.0,0.0,0.0,0.874,0.8714,0.923,0.8895,0.8676,0.8804,0.8821,0.8845,0.8906,0.8912,0.8885,0.8825,0.8821,0.875,0.8625,0.8564,0.8478,0.8301,0.8211,0.8058,0.0,0.0,0.0,0.0,0.0,0.0,0.0,0.0,0.7699,0.7818,0.7885,0.7959,0.7988,0.7988,0.7988,0.7988,0.7988,0.7988,0.7988,0.7988,0.7988,0.7988,0.7988,0.9242,1.0754,1.0754,1.2546,1.4657,1.4657,1.5194,1.5808,1.5808,1.5808,1.5808,1.5808,1.5808,1.5808,1.5808,1.5808,1.5808,1.5808,1.5808,1.5808,1.5808,1.5708,1.5541,0.0,0.0,0.0,0.0,0.0,0.0,1.4554,0.0,1.4961,1.4819,1.4384,1.4162,1.4335,0.0,0.0,0.0,0.0,0.0,1.4798,0.0,1.4952,1.524,1.5337,1.5605,1.6012,1.648,1.6886,1.7213,1.7474,1.7608,1.7608,1.7608,1.7608,1.7608,1.7608,1.7608,1.7608,1.7608,1.7608,1.7608,1.7608,1.7608,1.7608,0.8989,0.0,0.8896,0.0,0.8185,0.8359,0.8359,0.8584,0.875,0.875,0.875,0.8791,0.8899,0.8912,0.8912,0.8912,0.8912,0.8912,0.8912,0.8912,0.8865,0.8754,0.8706,0.0,0.843,0.8342,0.8189,0.7946,0.7753,0.0,0.0,0.0,0.0,0.0,0.7767,0.781,0.7861,0.7969,0.7988,0.7988,0.7988,0.7988,0.7988,0.7988,0.7988,0.7988,0.7988,0.7988,0.7988,0.7988,0.8627,0.9484,0.9875,1.1526,1.3319,1.3319,1.422,1.5242,1.5242,1.551,1.5808,1.5808,1.5808,1.5808,1.5808,1.5808,1.5808,1.5808,1.5808,1.5808,1.5808,1.5808,1.5708,1.5444,0.0,0.0,0.0,1.503,0.0,1.4567,1.4805,1.5008,1.5008,1.4531,1.4302,1.4481,0.0,0.0,0.0,0.0,0.0,0.0,0.0,0.0,0.0,1.5271,1.5545,1.6068,1.6506,1.6907,1.7307,1.7515,1.7608,1.7608,1.7608,1.7608,1.7608,1.7608,1.7608,1.7608,1.7608,1.7608,1.7608,1.7608,1.7608,1.7608,0.8282,0.8316,0.8316,0.8291,0.841,0.8505,0.8505,0.8737,0.8909,0.8909,0.8909,0.8909,0.8912,0.8912,0.8912,0.8912,0.8912,0.8912,0.8912,0.8912,0.8912,0.0,0.0,0.871,0.8706,0.8447,0.8294,0.8291,0.0,0.0,0.7804,0.0,0.7672,0.7811,0.7811,0.7871,0.7985,0.7988,0.7988,0.7988,0.7988,0.7988,0.7988,0.7988,0.7988,0.7988,0.7988,0.7988,0.7988,0.7988,0.8013,0.8262,0.9583,1.0901,1.1921,1.1921,1.2861,1.392,1.392,1.4848,1.5808,1.5808,1.5808,1.5808,1.5808,1.5808,1.5808,1.5808,1.5808,1.5808,1.5808,1.5808,1.5708,1.5444,0.0,0.0,0.0,1.503,0.0,1.4567,1.4805,1.5008,1.5008,1.4689,0.0,0.0,0.0,0.0,0.0,0.0,0.0,1.4494,1.4249,0.0,1.5008,1.4992,1.5574,1.6693,1.67,1.7014,1.7608,1.7608,1.7608,1.7608,1.7608,1.7608,1.7608,1.7608,1.7608,1.7608,1.7608,1.7608,1.7608,1.7608,1.7608,1.7608,0.8413,0.8499,0.857,0.857,0.8696,0.8767,0.8767,0.8848,0.8912,0.8912,0.8912,0.8912,0.8912,0.8912,0.8912,0.0,0.8912,0.8912,0.0,0.8912,0.8912,0.8912,0.8865,0.8791,0.8713,0.8618,0.852,0.844,0.0,0.0,0.0,0.7847,0.7898,0.7942,0.7942,0.7969,0.7988,0.7988,0.7988,0.7988,0.7988,0.7988,0.7988,0.7988,0.7988,0.7988,0.7988,0.7988,0.7988,0.7988,0.7988,0.8063,0.8503,0.9534,1.0607,1.0607,1.1531,1.2745,1.3656,1.419,1.4704,1.5588,1.5808,1.5808,1.5808,1.5808,1.5808,1.5808,1.5808,1.5808,1.5808,1.5808,1.5708,1.5444,1.5541,0.0,0.0,0.0,1.5257,1.4892,1.4948,1.5066,1.526,1.5019,0.0,0.0,0.0,0.0,0.0,0.0,0.0,0.0,1.503,0.0,1.5551,1.5558,1.5939,1.6707,1.6939,1.7234,1.7608,1.7608,1.7608,1.7608,1.7608,1.7608,1.7608,1.7608,1.7608,1.7608,1.7608,1.7608,1.7608,1.7608,1.7608,1.7608,0.855,0.8693,0.877,0.877,0.8848,0.8912,0.8912,0.8912,0.8912,0.8912,0.8912,0.8912,0.8912,0.8912,0.0,0.8912,0.8912,0.8912,0.8912,0.8912,0.8912,0.8912,0.8912,0.8869,0.877,0.8713,0.0,0.8567,0.8323,0.8157,0.8065,0.8106,0.8101,0.8098,0.804,0.7988,0.7988,0.7988,0.7988,0.7988,0.7988,0.7988,0.7988,0.7988,0.7988,0.7988,0.7988,0.7988,0.7988,0.7988,0.7988,0.7988,0.7988,0.8581,0.9242,0.9242,1.017,1.1361,1.2207,1.3151,1.4094,1.4902,1.5462,1.5808,1.5808,1.5808,1.5808,1.5808,1.5808,1.5808,1.5808,1.5808,1.5748,1.5585,1.5688,1.5641,1.5213,0.0,1.5411,0.0,0.0,0.0,0.0,1.526,1.5146,0.0,0.0,0.0,0.0,0.0,0.0,1.5247,1.526,0.0,1.5641,1.5748,1.6102,1.6707,1.714,1.7434,1.7608,1.7608,1.7608,1.7608,1.7608,1.7608,1.7608,1.7608,1.7608,1.7608,1.7608,1.7608,1.7608,1.7608,1.7608,1.7608,0.8726,0.8814,0.8912,0.0,0.8912,0.0,0.8912,0.8912,0.8912,0.8912,0.8912,0.8912,0.8912,0.8912,0.8912,0.8912,0.0,0.0,0.0,0.8912,0.8912,0.8912,0.8912,0.8912,0.8912,0.8774,0.872,0.871,0.8567,0.8519,0.8505,0.8372,0.8311,0.8304,0.8111,0.8044,0.8044,0.8044,0.8044,0.8044,0.8044,0.804,0.803,0.803,0.8023,0.7988,0.7988,0.7988,0.7988,0.7988,0.7988,0.7988,0.7988,0.7988,0.7988,0.7988,0.8874,0.9875,0.9973,1.177,1.3656,1.3734,1.4657,1.554,1.554,1.5605,1.5683,1.5683,1.573,1.5808,1.5808,1.5808,1.5808,1.5808,1.5808,1.5708,1.5438,0.0,1.5598,0.0,0.0,0.0,0.0,1.5424,1.5418,0.0,0.0,0.0,0.0,0.0,1.5068,1.5068,1.5068,1.5186,1.5458,1.5721,1.6162,1.6774,1.7321,1.7608,1.7608,1.7608,1.7608,1.7608,1.7608,1.7608,1.7608,1.7608,1.7608,1.7608,1.7608,1.7608,1.7608,1.7608,1.7608,1.7608,0.0,0.0,0.8912,0.8912,0.8912,0.8912,0.8912,0.8912,0.8912,0.8912,0.8912,0.8912,0.8912,0.8912,0.8912,0.8912,0.8912,0.8912,0.8912,0.8912,0.8912,0.8912,0.8912,0.8912,0.8912,0.8875,0.8801,0.871,0.8672,0.8598,0.8509,0.8475,0.8457,0.8457,0.8394,0.8377,0.8377,0.8377,0.8377,0.8377,0.8377,0.8313,0.824,0.824,0.8143,0.7988,0.7988,0.7988,0.7988,0.7988,0.7988,0.7988,0.7988,0.7988,0.7988,0.7988,0.8233,0.8701,0.9731,1.046,1.1165,1.2139,1.26,1.2818,1.2818,1.3614,1.434,1.434,1.5123,1.5808,1.5808,1.5808,1.5808,1.5808,1.5808,1.5708,1.5438,1.5451,0.0,0.0,1.5351,1.5484,1.5681,1.5708,1.5608,0.0,0.0,0.0,0.0,1.5424,1.5601,1.5601,1.5601,1.5765,1.6083,1.6353,1.6794,1.7375,1.7541,1.7608,1.7608,1.7608,1.7608,1.7608,1.7608,1.7608,1.7608,1.7608,1.7608,1.7608,1.7608,1.7608,1.7608,1.7608,1.7608,1.7608,0.8912,0.8912,0.8912,0.8912,0.8912,0.8912,0.8912,0.8912,0.8912,0.8912,0.8912,0.8912,0.8912,0.8912,0.8912,0.8912,0.8912,0.8912,0.8912,0.8912,0.8912,0.8912,0.8912,0.8912,0.8912,0.8912,0.8872,0.8787,0.8787,0.8743,0.8689,0.8618,0.8584,0.8584,0.8539,0.8509,0.8509,0.8509,0.8509,0.8509,0.8509,0.8461,0.8393,0.8393,0.8313,0.8241,0.8241,0.8201,0.8143,0.8143,0.8074,0.7988,0.7988,0.7988,0.7988,0.7988,0.7988,0.8162,0.8899,0.9534,1.0317,1.158,1.1896,1.1896,1.1896,1.2455,1.2982,1.2982,1.4022,1.4926,1.4926,1.5415,1.5808,1.5808,1.5695,1.5578,1.5418,1.5398,0.0,1.5398,1.5511,1.5635,1.5788,1.5266,1.4862,1.4741,1.4169,0.0,1.4467,1.4618,1.4978,1.5608,1.5892,1.6112,1.6297,1.6718,1.716,1.7608,1.7608,1.7608,1.7608,1.7608,1.7608,1.7608,1.7608,1.7608,1.7608,1.7608,1.7608,1.7608,1.7608,1.7608,1.7608,1.7608,1.7608,1.7608,0.8574,0.8743,0.8912,0.8912,0.8912,0.8912,0.8912,0.8912,0.8912,0.8912,0.8912,0.8912,0.8912,0.8912,0.8912,0.8912,0.8912,0.8912,0.8912,0.8912,0.8912,0.8912,0.8912,0.8912,0.8912,0.8912,0.8912,0.8912,0.8912,0.8912,0.8909,0.8777,0.872,0.8737,0.8608,0.855,0.855,0.855,0.855,0.855,0.855,0.8537,0.8516,0.8516,0.8529,0.8509,0.8509,0.843,0.8328,0.8328,0.8201,0.805,0.805,0.8033,0.7988,0.7988,0.7988,0.7988,0.7988,0.8825,0.9948,1.1043,1.1312,1.1312,1.1312,1.1458,1.1609,1.1609,1.2668,1.3608,1.3608,1.4657,1.5497,1.5451,1.5411,1.5384,1.5337,0.0,1.5398,1.5398,1.548,1.551,1.551,1.434,1.3608,1.3608,1.2331,1.2162,1.3501,1.3346,1.3826,1.5168,1.5916,1.6344,1.6431,1.6966,1.7361,1.7608,1.7608,1.7608,1.7608,1.7608,1.7608,1.7608,1.7608,1.7608,1.7608,1.7608,1.7608,1.7608,1.7608,1.7608,1.7608,1.7608,1.7608,1.7608,0.7035,0.8042,0.8912,0.8912,0.8912,0.8912,0.8912,0.8912,0.8912,0.8912,0.8912,0.8912,0.8912,0.8912,0.8912,0.8912,0.8912,0.8912,0.8912,0.8912,0.8912,0.8912,0.8912,0.8912,0.8912,0.8912,0.8912,0.8912,0.8912,0.8912,0.8912,0.8885,0.8875,0.8875,0.8852,0.8841,0.8841,0.8841,0.8841,0.8841,0.8841,0.8764,0.8676,0.8676,0.8594,0.8509,0.8509,0.8495,0.8475,0.8475,0.8379,0.826,0.826,0.8143,0.7988,0.7988,0.7988,0.7988,0.7988,0.8162,0.8357,0.8552,0.8602,0.8602,0.8602,0.9484,1.0288,1.0288,1.1312,1.2212,1.2212,1.3301,1.4094,1.3819,1.4686,1.5311,1.5086,0.0,1.5398,1.5398,1.4684,1.419,1.419,1.2987,1.2212,1.2212,1.1987,1.1905,1.2027,1.2248,1.2983,1.4271,1.5597,1.6538,1.7058,1.7374,1.7568,1.7608,1.7608,1.7608,1.7608,1.7608,1.7608,1.7608,1.7608,1.7608,1.7608,1.7608,1.7608,1.7608,1.7608,1.7608,1.7608,1.7608,1.7608,1.7608,0.5502,0.6702,0.7706,0.7706,0.838,0.8912,0.8912,0.8912,0.8912,0.8912,0.8912,0.8912,0.8912,0.8912,0.8912,0.8912,0.8912,0.8912,0.8912,0.8912,0.8912,0.8912,0.8912,0.8912,0.8912,0.8912,0.8912,0.8912,0.8912,0.8912,0.8912,0.8912,0.8912,0.8912,0.8912,0.8912,0.8912,0.8912,0.8912,0.8912,0.8912,0.8869,0.8804,0.8804,0.8764,0.8726,0.8726,0.8676,0.8604,0.8604,0.8506,0.841,0.841,0.8336,0.8262,0.8187,0.8081,0.7988,0.7988,0.7988,0.7988,0.7988,0.7988,0.7988,0.7988,0.8482,0.892,0.892,0.9973,1.0877,1.0877,1.194,1.2761,1.2516,1.2947,0.0,0.0,1.4201,1.4324,1.4324,1.4081,1.3614,1.2885,1.1648,1.0877,1.0877,1.0314,1.022,1.0855,1.1116,1.2272,1.4499,1.6023,1.7005,1.7401,1.7541,1.7608,1.7608,1.7608,1.7608,1.7608,1.7608,1.7608,1.7608,1.7608,1.7608,1.7608,1.7608,1.7608,1.7608,1.7608,1.7608,1.7608,1.7608,1.7608,1.7608,0.3967,0.5166,0.6311,0.6647,0.7623,0.8491,0.8854,0.8912,0.8912,0.8912,0.8912,0.8912,0.8912,0.8912,0.8912,0.8912,0.8912,0.8912,0.8912,0.8912,0.8912,0.8912,0.8912,0.8912,0.8912,0.8912,0.8912,0.8912,0.8912,0.8912,0.8912,0.8912,0.8912,0.8912,0.8912,0.8912,0.8912,0.8912,0.8912,0.8912,0.8912,0.8912,0.8912,0.8912,0.8912,0.8912,0.8912,0.8835,0.8737,0.8737,0.8662,0.8533,0.8533,0.8536,0.8488,0.8376,0.8235,0.8101,0.8008,0.7988,0.7988,0.7988,0.7988,0.7988,0.7988,0.7988,0.7988,0.7988,0.8825,0.9534,0.9534,1.0583,1.139,1.122,0.0,0.0,0.0,1.2898,1.2988,1.305,1.301,1.2595,1.1556,1.0332,0.9598,0.9598,0.8813,0.8789,0.981,0.9938,1.1426,1.4509,1.6347,1.7388,1.7608,1.7608,1.7608,1.7608,1.7608,1.7608,1.7608,1.7608,1.7608,1.7608,1.7608,1.7608,1.7608,1.7608,1.7608,1.7608,1.7608,1.7608,1.7608,1.7608,1.7608,1.7608,0.2375,0.3603,0.5085,0.645,0.6785,0.7315,0.8688,0.8912,0.8912,0.8912,0.8912,0.8912,0.8912,0.8912,0.8912,0.8912,0.8912,0.8912,0.8912,0.8912,0.8912,0.8912,0.8912,0.8912,0.8912,0.8912,0.8912,0.8912,0.8912,0.8912,0.8912,0.8912,0.8912,0.8912,0.8912,0.8912,0.8912,0.8912,0.8912,0.8912,0.8912,0.8912,0.8912,0.8912,0.8912,0.8912,0.8912,0.8902,0.8892,0.8892,0.8794,0.8693,0.8693,0.8598,0.8505,0.8495,0.8485,0.8391,0.8088,0.7988,0.7988,0.7988,0.7988,0.7988,0.7988,0.7988,0.7988,0.7988,0.8088,0.8137,0.8137,0.9242,1.0036,0.9704,0.0,0.0,1.16,1.1633,1.1725,1.1991,1.0985,1.0243,1.0145,0.9092,0.843,0.843,0.8462,0.8579,0.8799,0.882,1.0227,1.3342,1.6123,1.7588,1.7608,1.7608,1.7608,1.7608,1.7608,1.7608,1.7608,1.7608,1.7608,1.7608,1.7608,1.7608,1.7608,1.7608,1.7608,1.7608,1.7608,1.7608,1.7608,1.7608,1.7608,1.7608,0.084,0.2042,0.3547,0.5083,0.6089,0.7202,0.8688,0.8912,0.8912,0.8912,0.8912,0.8912,0.8912,0.8912,0.8912,0.8912,0.8912,0.8912,0.8912,0.8912,0.8912,0.8912,0.8912,0.8912,0.8912,0.8912,0.8912,0.8912,0.8912,0.8912,0.8912,0.8912,0.8912,0.8912,0.8912,0.8912,0.8912,0.8912,0.8912,0.8912,0.8912,0.8912,0.8912,0.8912,0.8912,0.8912,0.8912,0.8912,0.8912,0.8912,0.8872,0.8825,0.8825,0.8784,0.872,0.8652,0.8557,0.8485,0.8343,0.8252,0.816,0.804,0.7988,0.7988,0.7988,0.7988,0.7988,0.7988,0.7988,0.7988,0.7988,0.8407,0.8695,0.8484,0.0,0.9579,1.0344,1.053,1.0615,1.0721,1.0364,0.9816,0.9032,0.8621,0.8427,0.8427,0.854,0.8648,0.8706,0.9656,1.1138,1.3237,1.5204,1.6658,1.7582,1.7608,1.7608,1.7608,1.7608,1.7608,1.7608,1.7608,1.7608,1.7608,1.7608,1.7608,1.7608,1.7608,1.7608,1.7608,1.7608,1.7608,1.7608,1.7608,1.7608,1.7608,0.0,0.0812,0.1985,0.3521,0.5027,0.6505,0.7986,0.8602,0.8912,0.8912,0.8912,0.8912,0.8912,0.8912,0.8912,0.8912,0.8912,0.8912,0.8912,0.8912,0.8912,0.8912,0.8912,0.8912,0.8912,0.8912,0.8912,0.8912,0.8912,0.8912,0.8912,0.8912,0.8912,0.8912,0.8912,0.8912,0.8912,0.8912,0.8912,0.8912,0.8912,0.8912,0.8912,0.8912,0.8912,0.8912,0.8912,0.8912,0.8912,0.8912,0.8912,0.8912,0.8912,0.8912,0.8889,0.8784,0.8706,0.8615,0.8567,0.8482,0.8374,0.8192,0.8121,0.8088,0.8088,0.805,0.7988,0.7988,0.7988,0.7988,0.7988,0.7988,0.7979,0.7875,0.7946,0.8294,0.9126,0.931,0.9385,0.9465,0.9547,0.929,0.8436,0.8495,0.8554,0.8554,0.8696,0.8754,0.8754,1.0684,1.224,1.3264,1.5123,1.6578,1.7582,1.7608,1.7608,1.7608,1.7608,1.7608,1.7608,1.7608,1.7608,1.7608,1.7608,1.7608,1.7608,1.7608,1.7608,1.7608,1.7608,1.7608,1.7608,1.7608,1.7608,1.7608,0.0,0.0,0.0476,0.1956,0.3463,0.4973,0.6478,0.7931,0.8881,0.8912,0.8912,0.8912,0.8912,0.8912,0.8912,0.8912,0.8912,0.8912,0.8912,0.8912,0.8912,0.8912,0.8912,0.8912,0.8912,0.8912,0.8912,0.8912,0.8912,0.8912,0.8912,0.8912,0.8912,0.8912,0.8912,0.8912,0.8912,0.8912,0.8912,0.8912,0.8912,0.8912,0.8912,0.8912,0.8912,0.8912,0.8912,0.8912,0.8912,0.8912,0.8912,0.8912,0.8912,0.8912,0.8912,0.8912,0.8912,0.8879,0.8727,0.8713,0.8676,0.8546,0.8403,0.8298,0.8298,0.8153,0.7992,0.7992,0.7992,0.7992,0.7988,0.7988,0.7988,0.7988,0.7988,0.7988,0.7992,0.7992,0.8074,0.8281,0.8301,0.8355,0.8495,0.8621,0.8713,0.8713,0.8825,0.8912,0.8912,1.1701,1.3291,1.3291,1.6095,1.7582,1.7608,1.7608,1.7608,1.7608,1.7608,1.7608,1.7608,1.7608,1.7608,1.7608,1.7608,1.7608,1.7608,1.7608,1.7608,1.7608,1.7608,1.7608,1.7608,1.7608,1.7608,1.7608,0.0,0.0,0.0476,0.1956,0.2571,0.3742,0.6311,0.7066,0.7734,0.8771,0.8912,0.8912,0.8912,0.8912,0.8912,0.8912,0.8912,0.8912,0.8912,0.8912,0.8912,0.8912,0.8912,0.8912,0.8912,0.8912,0.8912,0.8912,0.8912,0.8912,0.8912,0.8912,0.8912,0.8912,0.8912,0.8912,0.8912,0.8912,0.8912,0.8912,0.8912,0.8912,0.8912,0.8912,0.8912,0.8912,0.8912,0.8912,0.8912,0.8912,0.8912,0.8912,0.8912,0.8912,0.8912,0.8912,0.8912,0.8899,0.8855,0.8841,0.8781,0.8547,0.8478,0.8444,0.8444,0.8384,0.8319,0.8221,0.8201,0.817,0.8033,0.7988,0.7988,0.7988,0.7988,0.805,0.8187,0.8201,0.8255,0.8427,0.8513,0.8598,0.8638,0.8754,0.8841,0.8841,0.8885,0.8912,0.8912,1.0726,1.224,1.3264,1.5097,1.6552,1.7582,1.7608,1.7608,1.7608,1.7608,1.7608,1.7608,1.7608,1.7608,1.7608,1.7608,1.7608,1.7608,1.7608,1.7608,1.7608,1.7608,1.7608,1.7608,1.7608,1.7608,1.7608,0.0,0.0,0.028,0.1175,0.1817,0.3016,0.5445,0.6339,0.7232,0.8716,0.8912,0.8912,0.8912,0.8912,0.8912,0.8912,0.8912,0.8912,0.8912,0.8912,0.8912,0.8912,0.8912,0.8912,0.8912,0.8912,0.8912,0.8912,0.8912,0.8912,0.8912,0.8912,0.8912,0.8912,0.8912,0.8912,0.8912,0.8912,0.8912,0.8912,0.8912,0.8912,0.8912,0.8912,0.8912,0.8912,0.8912,0.8912,0.8912,0.8912,0.8912,0.8912,0.8912,0.8912,0.8912,0.8912,0.8912,0.8912,0.8912,0.8912,0.8869,0.871,0.8618,0.857,0.857,0.8526,0.8485,0.8396,0.8379,0.8352,0.8231,0.8189,0.8189,0.8189,0.8189,0.8248,0.8366,0.8379,0.8434,0.8557,0.8655,0.8706,0.8767,0.8855,0.8912,0.8912,0.8912,0.8912,0.8912,1.0836,1.2376,1.3264,1.523,1.6691,1.7582,1.7608,1.7608,1.7608,1.7608,1.7608,1.7608,1.7608,1.7608,1.7608,1.7608,1.7608,1.7608,1.7608,1.7608,1.7608,1.7608,1.7608,1.7608,1.7608,1.7608,1.7608,0.0,0.0,0.0,0.0,0.1119,0.2515,0.4052,0.5558,0.7035,0.8519,0.8826,0.8912,0.8912,0.8912,0.8912,0.8912,0.8912,0.8912,0.8912,0.8912,0.8912,0.8912,0.8912,0.8912,0.8912,0.8912,0.8912,0.8912,0.8912,0.8912,0.8912,0.8912,0.8912,0.8912,0.8912,0.8912,0.8912,0.8912,0.8912,0.8912,0.8912,0.8912,0.8912,0.8912,0.8912,0.8912,0.8912,0.8912,0.8912,0.8912,0.8912,0.8912,0.8912,0.8912,0.8912,0.8912,0.8912,0.8912,0.8912,0.8912,0.8912,0.8912,0.8804,0.873,0.873,0.8621,0.8546,0.8532,0.8529,0.8526,0.8509,0.8509,0.8509,0.8509,0.8509,0.8512,0.8529,0.8529,0.856,0.8713,0.873,0.8757,0.8896,0.8912,0.8912,0.8912,0.8912,0.8912,0.8912,1.1701,1.3291,1.3291,1.6095,1.7608,1.7608,1.7608,1.7608,1.7608,1.7608,1.7608,1.7608,1.7608,1.7608,1.7608,1.7608,1.7608,1.7608,1.7608,1.7608,1.7608,1.7608,1.7608,1.7608,1.7608,1.7608,1.7608,0.0,0.0,0.0,0.0,0.0252,0.098,0.2459,0.3995,0.5502,0.698,0.8183,0.8912,0.8912,0.8912,0.8912,0.8912,0.8912,0.8912,0.8912,0.8912,0.8912,0.8912,0.8912,0.8912,0.8912,0.8912,0.8912,0.8912,0.8912,0.8912,0.8912,0.8912,0.8912,0.8912,0.8912,0.8912,0.8912,0.8912,0.8912,0.8912,0.8912,0.8912,0.8912,0.8912,0.8912,0.8912,0.8912,0.8912,0.8912,0.8912,0.8912,0.8912,0.8912,0.8912,0.8912,0.8912,0.8912,0.8912,0.8912,0.8912,0.8912,0.8912,0.8885,0.8862,0.8862,0.8835,0.8777,0.8686,0.8662,0.8625,0.8532,0.8509,0.8509,0.8509,0.8509,0.8523,0.8645,0.8662,0.8716,0.8841,0.8862,0.8875,0.8906,0.8912,0.8912,0.8912,0.8912,0.8912,0.8912,1.1701,1.3291,1.3291,1.6095,1.7608,1.7608,1.7608,1.7608,1.7608,1.7608,1.7608,1.7608,1.7608,1.7608,1.7608,1.7608,1.7608,1.7608,1.7608,1.7608,1.7608,1.7608,1.7608,1.7608,1.7608,1.7608,1.7608,0.0,0.0,0.0,0.0,0.0,0.0504,0.1984,0.2878,0.3939,0.5447,0.6311,0.7066,0.7762,0.7848,0.8128,0.8826,0.8912,0.8912,0.8912,0.8912,0.8912,0.8912,0.8912,0.8912,0.8912,0.8912,0.8912,0.8912,0.8912,0.8912,0.8912,0.8912,0.8912,0.8912,0.8912,0.8912,0.8912,0.8912,0.8912,0.8912,0.8912,0.8912,0.8912,0.8912,0.8912,0.8912,0.8912,0.8912,0.8912,0.8912,0.8912,0.8912,0.8912,0.8912,0.8912,0.8912,0.8912,0.8912,0.8912,0.8912,0.8912,0.8912,0.8912,0.8912,0.8912,0.8912,0.8889,0.8808,0.8791,0.8767,0.8713,0.8699,0.8699,0.8699,0.8699,0.8726,0.8781,0.8791,0.8821,0.8902,0.8912,0.8912,0.8912,0.8912,0.8912,0.8912,0.8912,0.8912,0.8912,1.1701,1.3291,1.3291,1.6095,1.7608,1.7608,1.7608,1.7608,1.7608,1.7608,1.7608,1.7608,1.7608,1.7608,1.7608,1.7608,1.7608,1.7608,1.7608,1.7608,1.7608,1.7608,1.7608,1.7608,1.7608,1.7608,1.7608,0.0,0.0,0.0,0.0,0.0,0.042,0.165,0.204,0.2654,0.3939,0.4331,0.5057,0.6533,0.6924,0.7568,0.8799,0.8912,0.8912,0.8912,0.8912,0.8912,0.8912,0.8912,0.8912,0.8912,0.8912,0.8912,0.8912,0.8912,0.8912,0.8912,0.8912,0.8912,0.8912,0.8912,0.8912,0.8912,0.8912,0.8912,0.8912,0.8912,0.8912,0.8912,0.8912,0.8912,0.8912,0.8912,0.8912,0.8912,0.8912,0.8912,0.8912,0.8912,0.8912,0.8912,0.8912,0.8912,0.8912,0.8912,0.8912,0.8912,0.8912,0.8912,0.8912,0.8912,0.8912,0.8912,0.8912,0.8912,0.8912,0.8912,0.8912,0.8912,0.8912,0.8912,0.8912,0.8912,0.8912,0.8912,0.8912,0.8912,0.8912,0.8912,0.8912,0.8912,0.8912,0.8912,0.8912,0.8912,1.1701,1.3291,1.3291,1.6095,1.7608,1.7608,1.7608,1.7608,1.7608,1.7608,1.7608,1.7608,1.7608,1.7608,1.7608,1.7608,1.7608,1.7608,1.7608,1.7608,1.7608,1.7608,1.7608,1.7608,1.7608,1.7608,1.7608,0.0,0.0,0.0,0.0,0.0,0.0056,0.028,0.1371,0.2263,0.2487,0.366,0.5057,0.6533,0.7848,0.8688,0.8881,0.8912,0.8912,0.8912,0.8912,0.8912,0.8912,0.8912,0.8912,0.8912,0.8912,0.8912,0.8912,0.8912,0.8912,0.8912,0.8912,0.8912,0.8912,0.8912,0.8912,0.8912,0.8912,0.8912,0.8912,0.8912,0.8912,0.8912,0.8912,0.8912,0.8912,0.8912,0.8912,0.8912,0.8912,0.8912,0.8912,0.8912,0.8912,0.8912,0.8912,0.8912,0.8912,0.8912,0.8912,0.8912,0.8912,0.8912,0.8912,0.8912,0.8912,0.8912,0.8912,0.8912,0.8912,0.8912,0.8912,0.8912,0.8912,0.8912,0.8912,0.8912,0.8912,0.8912,0.8912,0.8912,0.8912,0.8912,0.8912,0.8912,0.8912,0.8912,0.8912,0.8912,1.1701,1.3291,1.3291,1.6095,1.7608,1.7608,1.7608,1.7608,1.7608,1.7608,1.7608,1.7608,1.7608,1.7608,1.7608,1.7608,1.7608,1.7608,1.7608,1.7608,1.7608,1.7608,1.7608,1.7608,1.7608,1.7608,1.7608,0.0,0.0,0.0,0.0,0.0,0.0,0.0,0.056,0.098,0.098,0.1567,0.2545,0.4019,0.6278,0.7679,0.7679,0.8432,0.8912,0.8912,0.8912,0.8912,0.8912,0.8912,0.8912,0.8912,0.8912,0.8912,0.8912,0.8912,0.8912,0.8912,0.8912,0.8912,0.8912,0.8912,0.8912,0.8912,0.8912,0.8912,0.8912,0.8912,0.8912,0.8912,0.8912,0.8912,0.8912,0.8912,0.8912,0.8912,0.8912,0.8912,0.8912,0.8912,0.8912,0.8912,0.8912,0.8912,0.8912,0.8912,0.8912,0.8912,0.8912,0.8912,0.8912,0.8912,0.8912,0.8912,0.8912,0.8912,0.8912,0.8912,0.8912,0.8912,0.8912,0.8912,0.8912,0.8912,0.8912,0.8912,0.8912,0.8912,0.8912,0.8912,0.8912,0.8912,0.8912,0.8912,0.8912,0.8912,1.1701,1.3291,1.3291,1.6095,1.7608,1.7608,1.7608,1.7608,1.7608,1.7608,1.7608,1.7608,1.7608,1.7608,1.7608,1.7608,1.7608,1.7608,1.7608,1.7608,1.7608,1.7608,1.7608,1.7608,1.7608,1.7608,1.7608]},{"header":{"parameterUnit":"m.s-1","parameterCategory":1,"la1":30.6,"la2":28.766,"lo1":-90.7593,"lo2":-88.6598,"dy":0.0162,"dx":0.0183,"nx":116,"ny":114,"refTime":"2023-09-14T18:00:00:Z","depth":0,"parameterNumber":3,"parameterNumberName":"V-component_of_WINDS"},"data":[0.0,0.0,0.0,0.0,0.0,0.0,0.0,0.0,0.0,0.0,0.0,0.0,0.0,0.0,0.0,0.0,0.0,0.0,0.0,0.0,0.0,0.0,0.0,0.0,0.0,0.0,0.0,0.0,0.0,0.0,0.0,0.0,0.0,0.0,0.0,0.0,0.0,0.0,0.0,0.0,0.0,0.0,0.0,0.0,0.0,0.0,0.0,0.0,0.0,0.0,0.0,0.0,0.0,0.0,0.0,0.0,0.0,0.0,0.0,0.0,0.0,0.0,0.0,0.0,0.0,0.0,0.0,0.0,0.0,0.0,0.0,0.0,0.0,0.0,0.0,0.0,0.0,0.0,0.0,0.0,0.0,0.0,0.0,0.0,0.0,0.0,0.0,0.0,0.0,0.0,0.0,0.0,0.0,0.0,0.0,0.0,0.0,0.0,0.0,0.0,0.0,0.0,0.0,0.0,0.0,0.0,0.0,0.0,0.0,0.0,0.0,0.0,0.0,0.0,0.0,0.0,0.0,0.0,0.0,0.0,0.0,0.0,0.0,0.0,0.0,0.0,0.0,0.0,0.0,0.0,0.0,0.0,0.0,0.0,0.0,0.0,0.0,0.0,0.0,0.0,0.0,0.0,0.0,0.0,0.0,0.0,0.0,0.0,0.0,0.0,0.0,0.0,0.0,0.0,0.0,0.0,0.0,0.0,0.0,0.0,0.0,0.0,0.0,0.0,0.0,0.0,0.0,0.0,0.0,0.0,0.0,0.0,0.0,0.0,0.0,0.0,0.0,0.0,0.0,0.0,0.0,0.0,0.0,0.0,0.0,0.0,0.0,0.0,0.0,0.0,0.0,0.0,0.0,0.0,0.0,0.0,0.0,0.0,0.0,0.0,0.0,0.0,0.0,0.0,0.0,0.0,0.0,0.0,0.0,0.0,0.0,0.0,0.0,0.0,0.0,0.0,0.0,0.0,0.0,0.0,0.0,0.0,0.0,0.0,0.0,0.0,0.0,0.0,0.0,0.0,0.0,0.0,0.0,0.0,0.0,0.0,0.0,0.0,0.0,0.0,0.0,0.0,0.0,0.0,0.0,0.0,0.0,0.0,0.0,0.0,0.0,0.0,0.0,0.0,0.0,0.0,0.0,0.0,0.0,0.0,0.0,0.0,0.0,0.0,0.0,0.0,0.0,0.0,0.0,0.0,0.0,0.0,0.0,0.0,0.0,0.0,0.0,0.0,0.0,0.0,0.0,0.0,0.0,0.0,0.0,0.0,0.0,0.0,0.0,0.0,0.0,0.0,0.0,0.0,0.0,0.0,0.0,0.0,0.0,0.0,0.0,0.0,0.0,0.0,0.0,0.0,0.0,0.0,0.0,0.0,0.0,0.0,0.0,0.0,0.0,0.0,0.0,0.0,0.0,0.0,0.0,0.0,0.0,0.0,0.0,0.0,0.0,0.0,0.0,0.0,0.0,0.0,0.0,0.0,0.0,0.0,0.0,0.0,0.0,0.0,0.0,0.0,0.0,0.0,0.0,0.0,0.0,0.0,0.0,0.0,0.0,0.0,0.0,0.0,0.0,0.0,0.0,0.0,0.0,0.0,0.0,0.0,0.0,0.0,0.0,0.0,0.0,0.0,0.0,0.0,0.0,0.0,0.0,0.0,0.0,0.0,0.0,0.0,0.0,0.0,0.0,0.0,0.0,0.0,0.0,0.0,0.0,0.0,0.0,0.0,0.0,0.0,0.0,0.0,0.0,0.0,0.0,0.0,0.0,0.0,0.0,0.0,0.0,0.0,0.0,0.0,0.0,0.0,0.0,0.0,0.0,0.0,0.0,0.0,0.0,0.0,0.0,0.0,0.0,0.0,0.0,0.0,0.0,0.0,0.0,0.0,0.0,0.0,0.0,0.0,0.0,0.0,0.0,0.0,0.0,0.0,0.0,0.0,0.0,0.0,0.0,0.0,0.0,0.0,0.0,0.0,0.0,0.0,0.0,0.0,0.0,0.0,0.0,0.0,0.0,0.0,0.0,0.0,0.0,0.0,0.0,0.0,0.0,0.0,0.0,0.0,0.0,0.0,0.0,0.0,0.0,0.0,0.0,0.0,0.0,0.0,0.0,0.0,0.0,0.0,0.0,0.0,0.0,0.0,0.0,0.0,0.0,0.0,0.0,0.0,0.0,0.0,0.0,0.0,0.0,0.0,0.0,0.0,0.0,0.0,0.0,0.0,0.0,0.0,0.0,0.0,0.0,0.0,0.0,0.0,0.0,0.0,0.0,0.0,0.0,0.0,0.0,0.0,0.0,0.0,0.0,0.0,0.0,0.0,0.0,0.0,0.0,0.0,0.0,0.0,0.0,0.0,0.0,0.0,0.0,0.0,0.0,0.0,0.0,0.0,0.0,0.0,0.0,0.0,0.0,0.0,0.0,0.0,0.0,0.0,0.0,0.0,0.0,0.0,0.0,0.0,0.0,0.0,0.0,0.0,0.0,0.0,0.0,0.0,0.0,0.0,0.0,0.0,0.0,0.0,0.0,0.0,0.0,0.0,0.0,0.0,0.0,0.0,0.0,0.0,0.0,0.0,0.0,0.0,0.0,0.0,0.0,0.0,0.0,0.0,0.0,0.0,0.0,0.0,0.0,0.0,0.0,0.0,0.0,0.0,0.0,0.0,0.0,0.0,0.0,0.0,0.0,0.0,0.0,0.0,0.0,0.0,0.0,0.0,0.0,0.0,0.0,0.0,0.0,0.0,0.0,0.0,0.0,0.0,0.0,0.0,0.0,0.0,0.0,0.0,0.0,0.0,0.0,0.0,0.0,0.0,0.0,0.0,0.0,0.0,0.0,0.0,0.0,0.0,0.0,0.0,0.0,0.0,0.0,0.0,0.0,0.0,0.0,0.0,0.0,0.0,0.0,0.0,0.0,0.0,0.0,0.0,0.0,0.0,0.0,0.0,0.0,0.0,0.0,0.0,0.0,0.0,0.0,0.0,0.0,0.0,0.0,0.0,0.0,0.0,0.0,0.0,0.0,0.0,0.0,0.0,0.0,0.0,0.0,0.0,0.0,0.0,0.0,0.0,0.0,0.0,0.0,0.0,0.0,0.0,0.0,0.0,0.0,0.0,0.0,0.0,0.0,0.0,0.0,0.0,0.0,0.0,0.0,0.0,0.0,0.0,0.0,0.0,0.0,0.0,0.0,0.0,0.0,0.0,0.0,0.0,0.0,0.0,0.0,0.0,0.0,0.0,0.0,0.0,0.0,0.0,0.0,0.0,0.0,0.0,0.0,0.0,0.0,0.0,0.0,0.0,0.0,0.0,0.0,0.0,0.0,0.0,0.0,0.0,0.0,0.0,0.0,0.0,0.0,0.0,0.0,0.0,0.0,0.0,0.0,0.0,0.0,0.0,0.0,0.0,0.0,0.0,0.0,0.0,0.0,0.0,0.0,0.0,0.0,0.0,0.0,0.0,0.0,0.0,0.0,0.0,0.0,0.0,0.0,0.0,0.0,0.0,0.0,0.0,0.0,0.0,0.0,0.0,0.0,0.0,0.0,0.0,0.0,0.0,0.0,0.0,0.0,0.0,0.0,0.0,0.0,0.0,0.0,0.0,0.0,0.0,0.0,0.0,0.0,0.0,0.0,0.0,0.0,0.0,0.0,0.0,0.0,0.0,0.0,0.0,0.0,0.0,0.0,0.0,0.0,0.0,0.0,0.0,0.0,0.0,0.0,0.0,0.0,0.0,0.0,0.0,0.0,0.0,0.0,0.0,0.0,0.0,0.0,0.0,0.0,0.0,0.0,0.0,0.0,0.0,0.0,0.0,0.0,0.0,0.0,0.0,0.0,0.0,0.0,0.0,0.0,0.0,0.0,0.0,0.0,0.0,0.0,0.0,0.0,0.0,0.0,0.0,0.0,0.0,0.0,0.0,0.0,0.0,0.0,0.0,0.0,0.0,0.0,0.0,0.0,0.0,0.0,0.0,0.0,0.0,0.0,0.0,0.0,0.0,0.0,0.0,0.0,0.0,0.0,0.0,0.0,0.0,0.0,0.0,0.0,0.0,0.0,0.0,0.0,0.0,0.0,0.0,0.0,0.0,0.0,0.0,0.0,0.0,0.0,0.0,0.0,0.0,0.0,0.0,0.0,0.0,0.0,0.0,0.0,0.0,0.0,0.0,0.0,0.0,0.0,0.0,0.0,0.0,0.0,0.0,0.0,0.0,0.0,0.0,0.0,0.0,0.0,0.0,0.0,0.0,0.0,0.0,0.0,0.0,0.0,0.0,0.0,0.0,0.0,0.0,0.0,0.0,0.0,0.0,0.0,0.0,0.0,0.0,0.0,0.0,0.0,0.0,0.0,0.0,0.0,0.0,0.0,0.0,0.0,0.0,0.0,0.0,0.0,0.0,0.0,0.0,0.0,0.0,0.0,0.0,0.0,0.0,0.0,0.0,0.0,0.0,0.0,0.0,0.0,0.0,0.0,0.0,0.0,0.0,0.0,0.0,0.0,0.0,0.0,0.0,0.0,0.0,0.0,0.0,0.0,0.0,0.0,0.0,0.0,0.0,0.0,0.0,0.0,0.0,0.0,0.0,0.0,0.0,0.0,0.0,0.0,0.0,0.0,0.0,0.0,0.0,0.0,0.0,0.0,0.0,0.0,0.0,0.0,0.0,0.0,0.0,0.0,0.0,0.0,0.0,0.0,0.0,0.0,0.0,0.0,0.0,0.0,0.0,0.0,0.0,0.0,0.0,0.0,0.0,0.0,0.0,0.0,0.0,0.0,0.0,0.0,0.0,0.0,0.0,0.0,0.0,0.0,0.0,0.0,0.0,0.0,0.0,0.0,0.0,0.0,0.0,0.0,0.0,0.0,0.0,0.0,0.0,0.0,0.0,0.0,0.0,0.0,0.0,0.0,0.0,0.0,0.0,0.0,0.0,0.0,0.0,0.0,0.0,0.0,0.0,0.0,0.0,0.0,0.0,0.0,0.0,0.0,0.0,0.0,0.0,0.0,0.0,0.0,0.0,0.0,0.0,0.0,0.0,0.0,0.0,0.0,0.0,0.0,0.0,0.0,0.0,0.0,0.0,0.0,0.0,0.0,0.0,0.0,0.0,0.0,0.0,0.0,0.0,0.0,0.0,0.0,0.0,0.0,0.0,0.0,0.0,0.0,0.0,0.0,0.0,0.0,0.0,0.0,0.0,0.0,0.0,0.0,0.0,0.0,0.0,0.0,0.0,0.0,0.0,0.0,0.0,0.0,0.0,0.0,0.0,0.0,0.0,0.0,0.0,0.0,0.0,0.0,0.0,0.0,0.0,0.0,0.0,0.0,0.0,0.0,0.0,0.0,0.0,0.0,0.0,0.0,0.0,0.0,0.0,0.0,0.0,0.0,0.0,0.0,0.0,0.0,0.0,0.0,0.0,0.0,0.0,0.0,0.0,0.0,0.0,0.0,0.0,0.0,0.0,0.0,0.0,0.0,0.0,0.0,0.0,0.0,0.0,0.0,0.0,0.0,0.0,0.0,0.0,0.0,0.0,0.0,0.0,0.0,0.0,0.0,0.0,0.0,0.0,0.0,0.0,0.0,0.0,0.0,0.0,0.0,0.0,0.0,0.0,0.0,0.0,0.0,0.0,0.0,0.0,0.0,0.0,0.0,0.0,0.0,0.0,0.0,0.0,0.0,0.0,0.0,0.0,0.0,0.0,0.0,0.0,0.0,0.0,0.0,0.0,0.0,0.0,0.0,0.0,0.0,0.0,0.0,0.0,0.0,0.0,0.0,0.0,0.0,0.0,0.0,0.0,0.0,0.0,0.0,0.0,0.0,0.0,0.0,0.0,0.0,0.0,0.0,0.0,0.0,0.0,0.0,0.0,0.0,0.0,0.0,0.0,0.0,0.0,0.0,0.0,0.0,0.0,0.0,0.0,0.0,0.0,0.0,0.0,0.0,0.0,0.0,0.0,0.0,0.0,0.0,0.0,0.0,0.0,0.0,0.0,0.0,0.0,0.0,0.0,0.0,0.0,0.0,0.0,0.0,0.0,0.0,0.0,0.0,0.0,0.0,0.0,0.0,0.0,0.0,0.0,0.0,0.0,0.0,0.0,0.0,0.0,2.3871,0.0,0.0,0.0,0.0,0.0,0.0,0.0,0.0,0.0,0.0,0.0,0.0,0.0,0.0,0.0,0.0,0.0,0.0,0.0,0.0,0.0,0.0,0.0,0.0,0.0,0.0,0.0,0.0,0.0,0.0,0.0,0.0,0.0,0.0,0.0,0.0,0.0,0.0,0.0,0.0,2.1143,2.2257,2.18,2.094,1.9766,0.0,0.0,0.0,0.0,0.0,0.0,0.0,0.0,0.0,0.0,0.0,0.0,0.0,0.0,0.0,0.0,0.0,0.0,0.0,0.0,0.0,0.0,0.0,0.0,0.0,0.0,0.0,0.0,0.0,0.0,0.0,0.0,0.0,0.0,0.0,0.0,0.0,0.0,0.0,0.0,0.0,0.0,0.0,0.0,0.0,0.0,0.0,0.0,0.0,0.0,0.0,0.0,0.0,0.0,0.0,0.0,0.0,0.0,0.0,0.0,0.0,0.0,0.0,0.0,0.0,0.0,0.0,0.0,0.0,0.0,0.0,2.4279,0.0,0.0,0.0,0.0,0.0,0.0,0.0,0.0,0.0,0.0,0.0,0.0,0.0,0.0,0.0,0.0,0.0,0.0,0.0,0.0,0.0,0.0,0.0,0.0,0.0,0.0,0.0,0.0,0.0,0.0,0.0,0.0,0.0,0.0,0.0,0.0,0.0,0.0,2.1315,2.2588,2.3806,2.4415,2.3382,2.1025,2.0211,0.0,0.0,0.0,0.0,0.0,0.0,0.0,0.0,0.0,0.0,0.0,0.0,0.0,0.0,0.0,0.0,0.0,0.0,0.0,0.0,0.0,0.0,0.0,0.0,0.0,0.0,0.0,0.0,0.0,0.0,0.0,0.0,0.0,0.0,0.0,0.0,0.0,0.0,0.0,0.0,0.0,0.0,0.0,0.0,0.0,0.0,0.0,0.0,0.0,0.0,0.0,0.0,0.0,0.0,0.0,0.0,0.0,0.0,0.0,0.0,0.0,0.0,0.0,2.6869,2.7123,2.7138,2.7705,2.7944,2.7884,2.6782,2.6542,2.6856,2.5752,0.0,0.0,0.0,0.0,0.0,0.0,0.0,0.0,0.0,0.0,0.0,0.0,0.0,0.0,0.0,0.0,0.0,0.0,0.0,0.0,0.0,0.0,0.0,0.0,0.0,0.0,0.0,0.0,0.0,0.0,0.0,0.0,0.0,2.0616,2.1333,2.1936,2.4013,2.5127,2.5313,2.5415,2.5256,2.4823,2.3751,2.2898,2.2237,0.0,0.0,0.0,0.0,0.0,0.0,0.0,0.0,0.0,0.0,0.0,0.0,0.0,0.0,0.0,0.0,0.0,0.0,0.0,0.0,0.0,0.0,0.0,0.0,0.0,0.0,0.0,0.0,0.0,0.0,0.0,0.0,0.0,0.0,0.0,0.0,0.0,0.0,0.0,0.0,0.0,2.2584,2.3289,0.0,0.0,0.0,0.0,0.0,0.0,0.0,0.0,0.0,0.0,0.0,0.0,0.0,2.645,2.721,2.7769,2.8412,2.9069,2.9159,2.9204,2.9204,2.9307,2.9338,2.9324,2.9144,0.0,2.8323,2.8143,0.0,0.0,0.0,0.0,0.0,0.0,0.0,0.0,0.0,0.0,0.0,0.0,0.0,0.0,0.0,0.0,0.0,0.0,0.0,0.0,0.0,0.0,0.0,0.0,0.0,0.0,0.0,0.0,0.0,0.0,0.0,0.0,0.0,2.1713,2.3011,2.4139,2.5127,2.5803,2.6218,2.6218,2.6218,2.6192,2.5706,2.4696,2.3357,2.3186,0.0,0.0,0.0,0.0,0.0,0.0,0.0,0.0,0.0,0.0,0.0,0.0,0.0,0.0,0.0,0.0,0.0,0.0,0.0,0.0,0.0,0.0,0.0,0.0,0.0,0.0,0.0,0.0,0.0,0.0,0.0,0.0,0.0,0.0,0.0,0.0,0.0,0.0,0.0,2.2618,2.3576,2.4597,2.4391,2.4212,0.0,0.0,0.0,0.0,0.0,0.0,0.0,0.0,0.0,2.7248,2.7575,2.8051,2.8723,2.934,2.9819,3.0103,3.0866,3.1225,3.124,3.1614,3.1793,3.1793,3.1793,3.1629,3.127,3.0133,2.9669,2.9609,0.0,0.0,0.0,0.0,2.8291,2.8321,0.0,0.0,0.0,0.0,0.0,0.0,0.0,0.0,0.0,0.0,0.0,0.0,0.0,0.0,0.0,1.9181,0.0,0.0,0.0,0.0,0.0,0.0,0.0,0.0,2.1031,2.2769,2.4306,2.5601,2.5973,2.6446,2.6996,2.719,2.7292,2.7292,2.7292,2.6185,2.4331,2.4331,2.3882,0.0,0.0,0.0,0.0,0.0,0.0,0.0,0.0,0.0,0.0,0.0,0.0,0.0,0.0,0.0,0.0,0.0,0.0,0.0,0.0,0.0,0.0,0.0,0.0,0.0,0.0,0.0,0.0,0.0,0.0,0.0,0.0,0.0,0.0,0.0,0.0,0.0,0.0,2.362,2.4552,2.5719,2.5558,2.5498,0.0,0.0,0.0,0.0,0.0,0.0,2.7093,2.7108,2.7709,2.9041,2.9252,2.9669,3.0341,3.0956,3.127,3.1285,3.2287,3.2766,3.2766,3.3275,3.3499,3.3499,3.3679,3.3847,3.3895,3.2031,3.127,3.1255,3.1091,3.0731,3.0341,3.0341,3.0341,3.0371,0.0,0.0,0.0,0.0,0.0,0.0,0.0,0.0,0.0,0.0,0.0,0.0,0.0,0.0,1.994,1.994,1.9985,1.9995,0.0,0.0,0.0,0.0,0.0,0.0,2.2207,2.368,2.4821,2.5601,2.6995,2.7705,2.7756,2.8527,2.8874,2.8874,2.8874,2.7638,2.5518,2.5518,2.5094,2.4349,0.0,0.0,0.0,0.0,0.0,0.0,0.0,0.0,0.0,0.0,0.0,0.0,0.0,0.0,0.0,0.0,0.0,0.0,0.0,0.0,0.0,0.0,0.0,0.0,0.0,0.0,0.0,0.0,0.0,0.0,0.0,0.0,0.0,0.0,0.0,0.0,0.0,0.0,0.0,2.6465,2.7078,0.0,0.0,0.0,0.0,2.6554,2.7108,2.7782,2.8457,2.8502,2.9086,3.0358,3.1017,3.1675,3.2347,3.3021,3.335,3.335,3.341,3.344,3.344,3.3484,3.3499,3.3529,3.4173,3.485,3.538,3.394,3.335,3.329,3.2662,3.2377,3.2347,3.2347,3.2347,3.2452,0.0,0.0,0.0,0.0,0.0,0.0,0.0,0.0,0.0,0.0,0.0,0.0,0.0,2.0016,2.0771,2.0771,2.1651,2.2185,2.2185,0.0,0.0,0.0,0.0,2.2743,2.3705,2.516,2.6285,2.7012,2.8061,2.8569,2.8578,2.8874,2.8993,2.8993,2.8993,2.8553,2.7782,2.7782,2.7334,2.6598,2.6345,2.557,0.0,0.0,0.0,0.0,0.0,0.0,0.0,0.0,0.0,0.0,0.0,0.0,0.0,0.0,0.0,0.0,0.0,0.0,0.0,0.0,0.0,0.0,0.0,0.0,0.0,0.0,0.0,0.0,0.0,0.0,0.0,0.0,0.0,0.0,0.0,0.0,0.0,2.6524,2.7195,0.0,2.727,2.7842,2.8128,2.7904,2.8874,2.9759,3.0419,3.0882,3.1524,3.2407,3.2662,3.2901,3.314,3.3814,3.4377,3.485,3.5769,3.6461,3.6992,3.7461,3.768,3.7665,3.7341,3.7354,3.7513,3.645,3.5812,3.5462,3.5232,3.485,3.4426,3.4426,3.4426,3.4456,0.0,0.0,0.0,0.0,0.0,0.0,0.0,0.0,0.0,0.0,0.0,1.8837,1.9593,2.0811,2.1573,2.1573,2.269,2.3291,2.3054,0.0,0.0,0.0,2.2801,2.3477,2.5202,2.6192,2.7199,2.8205,2.8991,2.9373,2.9373,2.9627,2.9728,2.9728,2.9728,2.9728,2.9728,2.9728,2.9153,2.8188,2.7908,2.7063,2.5939,0.0,0.0,0.0,0.0,0.0,0.0,0.0,0.0,0.0,0.0,0.0,0.0,0.0,0.0,0.0,0.0,0.0,0.0,0.0,0.0,0.0,0.0,0.0,0.0,0.0,0.0,0.0,0.0,0.0,0.0,0.0,0.0,0.0,0.0,2.5708,2.645,2.6884,2.7735,2.8274,2.8274,2.9071,2.9581,2.9581,3.1027,3.1977,3.2168,3.3087,3.3796,3.4213,3.4713,3.5093,3.5323,3.5999,3.6446,3.6661,3.7888,3.8589,3.8866,3.9646,4.0005,3.996,3.9392,3.9298,3.9501,3.8918,3.8466,3.8078,3.7218,3.6757,3.6529,3.6248,3.633,3.6577,0.0,0.0,0.0,0.0,0.0,0.0,0.0,0.0,0.0,0.0,1.8634,2.0302,2.1106,2.1854,2.2296,2.2296,2.3004,2.3122,2.2381,2.3013,0.0,0.0,2.3088,2.4517,2.6649,2.6767,2.7546,2.9027,2.977,3.0132,3.0149,3.0869,3.12,3.12,3.12,3.12,3.12,3.12,3.0371,2.901,2.8221,2.7461,2.6733,0.0,0.0,0.0,0.0,0.0,0.0,0.0,0.0,0.0,0.0,0.0,0.0,0.0,0.0,0.0,0.0,0.0,0.0,0.0,0.0,0.0,0.0,0.0,0.0,0.0,0.0,0.0,0.0,0.0,0.0,0.0,0.0,0.0,2.5573,2.6779,2.7627,2.766,2.883,2.9653,2.9653,3.0807,3.157,3.157,3.3532,3.4386,3.3606,3.5049,3.5844,3.5713,3.7183,3.8275,3.8936,3.9638,3.9594,3.8789,3.9656,3.9641,3.8869,3.9749,4.013,4.013,4.01,4.055,4.1255,4.124,4.1226,4.098,3.8464,3.8001,3.8644,3.7765,3.7968,3.8709,0.0,0.0,0.0,0.0,0.0,0.0,0.0,0.0,0.0,0.0,1.8634,2.0302,2.1106,2.1854,2.2296,2.2296,2.3468,2.3881,2.3139,0.0,0.0,0.0,2.4831,2.6073,2.6683,2.8315,2.9371,2.9803,3.0531,3.0903,3.0903,3.1116,3.12,3.12,3.12,3.12,3.12,3.12,3.0963,3.0574,3.0345,2.9811,2.9135,0.0,0.0,0.0,0.0,0.0,0.0,0.0,0.0,0.0,0.0,0.0,0.0,0.0,0.0,0.0,0.0,0.0,0.0,0.0,0.0,0.0,0.0,0.0,0.0,0.0,0.0,0.0,0.0,0.0,0.0,0.0,2.6465,2.6839,2.7018,2.736,2.7959,2.8933,3.0193,3.0987,3.0987,3.2168,3.2961,3.2961,3.4437,3.5255,3.5031,3.6959,3.8033,3.7988,3.8926,3.9508,3.9702,3.9894,4.0172,4.0518,4.1288,4.1829,4.2137,4.2946,4.3342,4.3299,4.2682,4.2533,4.2667,4.2045,4.1782,4.1608,3.9881,3.9392,3.9547,3.8661,3.8498,3.8709,0.0,0.0,0.0,0.0,0.0,0.0,0.0,0.0,0.0,0.0,1.8814,2.0413,2.1532,2.2033,2.2296,2.2296,2.3366,2.3722,2.2987,0.0,0.0,0.0,2.6191,2.7424,2.8357,2.9877,3.0702,3.0852,3.1253,3.137,3.12,3.12,3.1369,3.1657,3.1657,3.1826,3.2121,3.2121,3.1935,3.1657,3.1657,3.1021,3.0098,3.0098,2.9505,2.8619,2.831,2.806,2.7694,2.6644,0.0,0.0,0.0,0.0,0.0,0.0,0.0,0.0,0.0,0.0,0.0,0.0,0.0,0.0,0.0,0.0,0.0,0.0,0.0,0.0,0.0,0.0,0.0,0.0,2.8,2.8828,2.9998,2.9907,3.0033,3.0799,3.2052,3.2958,3.3283,3.3963,3.4652,3.5303,3.6666,3.7465,3.7439,3.9268,4.0187,3.987,4.0874,4.1426,4.1426,4.1767,4.1992,4.2098,4.2891,4.3294,4.3399,4.421,4.4615,4.457,4.4064,4.3844,4.3814,4.3305,4.3092,0.0,0.0,0.0,0.0,0.0,3.9858,3.9546,0.0,0.0,0.0,0.0,0.0,0.0,0.0,0.0,0.0,0.0,0.0,2.0481,2.211,2.2296,2.2296,2.2296,2.297,2.3178,0.0,0.0,2.4583,2.6682,2.7325,2.8614,3.0664,3.1242,3.1663,3.1975,3.1914,3.1704,3.1358,3.1443,3.1798,3.2384,3.2469,3.2835,3.3396,3.3396,3.3017,3.2412,3.2327,3.1471,3.0217,3.0217,2.9513,2.8548,2.8548,2.823,2.7814,2.7655,0.0,0.0,0.0,0.0,0.0,0.0,0.0,0.0,0.0,0.0,0.0,0.0,0.0,0.0,0.0,0.0,0.0,0.0,0.0,0.0,0.0,0.0,0.0,0.0,2.9611,3.0964,3.3569,3.3575,3.3233,3.3074,3.4176,3.5183,3.5844,3.5958,3.6535,3.7911,3.938,4.0195,4.0139,0.0,0.0,0.0,0.0,4.3541,4.3541,4.4245,4.421,4.3472,4.4224,4.4196,4.3472,4.4239,4.4615,4.4615,4.4615,4.4615,4.4615,4.4615,4.4615,4.4457,4.2892,4.2724,4.3231,4.2552,4.174,4.0996,0.0,0.0,0.0,0.0,0.0,0.0,0.0,0.0,0.0,1.7535,1.8566,1.9925,2.2066,2.2296,2.2296,2.2296,2.297,2.374,0.0,0.0,2.5785,2.7136,2.8456,2.9658,3.0682,3.1736,3.2326,3.2375,3.2375,3.2324,3.2257,3.2915,3.3096,3.2886,3.3546,3.3678,3.3396,3.3396,3.3311,3.3136,3.2547,3.1759,3.0997,3.0997,3.0837,3.0624,3.0624,3.0558,3.0319,2.9276,2.854,2.7852,2.6826,2.5626,0.0,0.0,0.0,0.0,0.0,0.0,0.0,0.0,0.0,0.0,0.0,0.0,0.0,0.0,0.0,0.0,0.0,0.0,0.0,3.1654,3.2469,3.3502,3.5161,3.6315,3.653,3.5342,3.5903,3.6442,3.6595,3.762,3.8389,3.8681,4.0117,4.0981,4.097,4.2376,4.3118,4.2977,4.3875,4.4364,4.4364,4.4516,4.4514,4.4355,0.0,0.0,4.4355,4.4528,4.4615,4.4615,4.4615,4.4615,4.4615,4.4615,4.4615,4.4556,4.4239,4.3768,4.3366,4.3902,4.3545,4.2801,0.0,0.0,0.0,0.0,0.0,0.0,0.0,0.0,0.0,0.0,1.7896,1.9057,2.0937,2.114,2.1316,2.1701,2.2757,0.0,0.0,2.5678,2.6745,2.8668,2.9715,3.0786,3.1938,3.2734,3.3042,3.284,3.284,3.2729,3.2518,3.3321,3.3767,3.393,3.4499,3.4813,3.4877,3.4597,3.4292,3.388,3.3152,3.2418,3.1708,3.1336,3.12,3.12,3.12,3.12,3.111,3.0469,2.9848,2.9237,2.8598,2.7536,2.6432,0.0,0.0,0.0,0.0,0.0,0.0,0.0,0.0,0.0,0.0,0.0,0.0,0.0,0.0,2.8702,2.9039,0.0,3.2095,3.3469,3.4569,3.5747,3.7201,3.8035,3.8096,3.7032,3.7821,3.861,3.8981,3.9647,4.0361,4.1094,4.1876,4.2487,4.2886,4.3594,4.3995,4.3995,4.4398,4.4615,4.4615,4.4615,4.4615,4.4615,4.4615,4.4615,4.4615,4.4615,4.4615,4.4615,4.4615,4.4615,4.4615,4.4615,4.4615,4.4615,4.4615,4.4341,4.3962,4.3962,4.3665,4.3246,0.0,0.0,0.0,0.0,0.0,0.0,0.0,0.0,0.0,0.0,1.714,1.8155,1.9619,1.9917,2.0318,0.0,0.0,0.0,2.5341,2.6118,2.7627,3.0095,3.0654,3.1624,3.3163,3.3585,3.3634,3.3317,3.3317,3.3121,3.2779,3.357,3.4216,3.4711,3.52,3.5692,3.6136,3.5759,3.5171,3.4449,3.3694,3.2949,3.2226,3.1471,3.12,3.12,3.12,3.1116,3.1004,3.1149,3.0707,3.0112,3.0243,2.9425,2.8281,2.7694,2.7463,0.0,0.0,0.0,0.0,0.0,0.0,0.0,0.0,2.8597,2.9034,2.9159,2.9818,3.0588,3.1267,3.256,3.3933,3.5309,3.6485,3.769,3.9028,3.9326,3.9236,3.8687,3.9624,4.0591,4.1338,4.1534,4.2122,4.3314,4.3541,4.3927,4.4581,4.4615,4.4615,4.4615,4.4615,4.4615,4.4615,4.4615,4.4615,4.4615,4.4615,4.4615,4.4615,4.4615,4.4615,4.4615,4.4615,4.4615,4.4615,4.4615,4.4615,4.4615,4.4615,4.4615,4.4514,4.3814,4.3547,4.3441,0.0,0.0,0.0,0.0,0.0,0.0,0.0,0.0,0.0,0.0,0.0,0.0,0.0,0.0,0.0,0.0,0.0,2.4285,2.5084,2.6753,2.8455,3.0138,3.0654,3.1624,3.3163,3.3585,3.3787,3.3728,3.3728,3.3707,3.3666,3.4482,3.4673,3.4405,3.5386,3.5655,3.5345,3.5527,3.5171,3.4449,3.3694,3.2949,3.2226,3.1471,3.12,3.12,3.12,3.0784,3.0318,3.097,3.0356,2.9436,3.0095,2.943,2.8378,2.8298,2.7864,2.7222,2.642,2.6262,2.6522,2.7295,2.7836,2.8541,0.0,3.0321,3.0559,3.113,3.2266,3.3368,3.411,3.538,3.6818,3.8294,3.8649,3.9045,3.9863,4.054,4.0941,4.0847,4.0968,4.1379,4.2117,4.2763,4.3222,4.3392,4.4062,4.4499,4.4615,4.4615,4.4615,4.4615,4.4615,4.4615,4.4615,4.4615,4.4615,4.4615,4.4615,4.4615,4.4615,4.4615,4.4615,4.4615,4.4615,4.4615,4.4615,4.4615,4.4615,4.4615,4.4615,4.4615,4.4601,4.4499,4.444,4.444,0.0,0.0,0.0,0.0,0.0,0.0,0.0,0.0,0.0,0.0,0.0,0.0,0.0,0.0,0.0,0.0,0.0,2.4691,2.5895,2.7376,2.8793,3.0148,3.0846,3.1709,3.2826,3.3476,3.3807,3.3807,3.3807,3.3807,3.3825,3.4619,3.4779,3.4372,3.4984,3.5021,3.4609,3.4391,3.414,3.3795,3.3061,3.2571,3.2226,3.1471,3.12,3.114,3.0717,3.0352,0.0,3.0463,3.0183,2.9847,3.0593,3.0152,2.9383,2.9383,2.9188,2.9006,2.9202,2.8725,2.8543,3.0124,3.0408,3.067,3.2031,3.2655,3.3141,3.384,3.4771,3.5689,3.6432,3.7379,3.829,3.8899,3.9356,3.9745,4.0062,4.0743,4.1373,4.1779,4.2219,4.2594,4.2899,4.3639,4.4096,4.4096,4.4415,4.4615,4.4615,4.4615,4.4615,4.4615,4.4615,4.4615,4.4615,4.4615,4.4615,4.4615,4.4615,4.4615,4.4615,4.4615,4.4615,4.4615,4.4615,4.4615,4.4615,4.4615,4.4615,4.4615,4.4615,4.4615,4.4615,4.4615,4.4615,4.4615,0.0,0.0,0.0,0.0,0.0,0.0,0.0,0.0,0.0,0.0,0.0,0.0,0.0,0.0,0.0,0.0,2.2544,2.4449,2.5866,2.7399,2.8767,2.9984,3.0699,3.1549,3.2583,3.3176,3.3587,3.3807,3.3807,3.3807,3.3807,3.4406,3.4504,3.4238,3.4402,3.4313,3.4015,3.3577,3.3277,3.3051,3.252,3.2175,3.1938,3.1403,3.1072,3.0835,3.0284,2.9963,2.9803,2.9803,2.9642,2.9591,3.0354,3.0362,3.0098,3.0098,3.0098,3.0287,3.115,3.0702,3.044,3.24,3.2642,3.2772,3.4157,3.4869,3.5409,3.6156,3.6719,3.7325,3.8075,3.8633,3.9068,3.9271,3.9745,4.0168,4.0371,4.1035,4.1779,4.2523,4.3267,4.3727,4.3727,4.4262,4.4615,4.4615,4.4615,4.4615,4.4615,4.4615,4.4615,4.4615,4.4615,4.4615,4.4615,4.4615,4.4615,4.4615,4.4615,4.4615,4.4615,4.4615,4.4615,4.4601,4.4821,4.4905,4.4922,4.5125,4.521,4.521,4.521,4.521,4.521,4.521,4.4939,4.4615,0.0,0.0,0.0,0.0,0.0,0.0,0.0,0.0,0.0,0.0,0.0,0.0,0.0,0.0,1.8549,1.9294,2.1367,2.3135,2.4298,2.6523,2.8364,2.9574,3.0014,3.0974,3.2564,3.2619,3.3029,3.3807,3.3807,3.3807,3.3807,3.3825,3.3837,3.3815,3.3697,3.3625,3.3609,3.3462,3.2983,3.2327,3.231,3.186,3.1224,3.1217,3.0768,3.0132,3.0115,0.0,2.9027,2.9027,2.8518,2.801,2.8814,2.9542,3.0098,3.0098,3.0098,3.0287,3.115,3.1281,3.1537,3.316,3.3991,3.48,3.6349,3.6715,3.6947,3.7684,3.7848,3.8091,3.8819,3.8983,3.9237,3.996,4.0096,4.0354,4.1068,4.1796,4.254,4.3288,4.4079,4.455,4.455,4.4598,4.4615,4.4615,4.4615,4.4615,4.4615,4.4615,4.4615,4.4615,4.4615,4.4615,4.4615,4.4615,4.4615,4.4615,4.4615,4.4615,4.4615,4.4615,4.4615,4.4635,4.5348,4.5669,4.572,4.643,4.6733,4.6733,4.6733,4.6733,4.6733,4.6733,4.5836,4.4615,0.0,0.0,0.0,0.0,0.0,0.0,0.0,0.0,0.0,0.0,0.0,0.0,0.0,0.0,0.0,0.0,2.1233,2.2697,2.414,2.597,2.7426,2.8353,2.9569,3.0442,3.0993,3.2051,3.2736,3.2993,3.3532,3.3807,3.3807,3.3807,3.3666,3.3401,3.3353,3.2989,3.2405,3.237,3.2037,3.1572,3.1572,3.1133,3.048,3.048,3.0006,2.9305,0.0,2.8415,2.8205,2.8205,2.801,2.8027,2.9321,2.955,2.9559,3.0531,3.1183,3.1837,3.311,3.3414,3.3763,3.5323,3.588,3.6293,3.7297,3.7533,3.7736,3.8481,3.8244,3.8125,3.8853,3.8599,3.8514,3.9254,3.9372,3.9812,4.1035,4.183,4.2574,4.3304,4.4113,4.4615,4.4615,4.4615,4.4615,4.4615,4.4615,4.4615,4.4615,4.4615,4.4615,4.4615,4.4615,4.4615,4.4615,4.4615,4.4615,4.4615,4.4615,4.4615,4.4632,4.5108,4.5331,4.5365,4.6109,4.643,4.6447,4.6699,4.68,4.68,4.68,4.68,4.68,4.68,4.6496,4.6056,0.0,0.0,0.0,0.0,0.0,0.0,0.0,0.0,0.0,0.0,0.0,0.0,0.0,0.0,0.0,0.0,0.0,2.1918,2.3258,2.485,2.6098,2.6917,2.8209,2.9053,2.9347,3.035,3.1029,3.1317,3.2118,3.2651,3.2951,3.3238,3.3392,3.3397,3.3083,3.2606,3.2022,3.1715,3.1285,3.0818,3.0818,3.0362,2.9702,2.9702,2.9228,0.0,0.0,2.7621,2.741,2.741,2.741,2.768,2.9228,2.9736,3.0083,3.1546,3.2131,3.2615,3.4093,3.4692,3.5199,3.6491,3.7004,3.7393,3.8125,3.8294,3.843,3.8903,3.8616,3.8362,3.8565,3.8227,3.8142,3.8882,3.9,3.9609,4.1356,4.1999,4.2675,4.3707,4.4296,4.4615,4.4615,4.4615,4.4615,4.4615,4.4615,4.4615,4.4615,4.4615,4.4615,4.4615,4.4615,4.4615,4.4615,4.4615,4.4615,4.4615,4.4871,4.499,4.5024,4.5754,4.6092,4.6126,4.687,4.7192,4.7208,4.7479,4.7581,4.7581,4.7581,4.7581,4.7581,4.7581,4.7581,4.7513,0.0,0.0,0.0,0.0,0.0,0.0,0.0,0.0,0.0,0.0,0.0,0.0,0.0,0.0,0.0,0.0,0.0,0.0,2.1684,2.3203,2.4451,2.5306,2.6117,2.6924,2.7719,2.7774,2.8172,2.8932,2.9745,3.0522,3.1299,3.2057,3.2828,3.3516,3.266,3.2278,3.2213,3.1394,3.0635,2.9997,3.0031,2.96,2.8942,2.8942,0.0,0.0,2.7739,2.7325,2.675,2.6716,2.675,2.7089,2.8637,3.01,3.1556,3.3017,3.2949,3.275,3.4212,3.5131,3.5864,3.6699,3.7444,3.8147,3.8886,3.9034,3.9,3.9,3.8949,3.8667,3.7973,3.7838,3.8091,3.8819,3.8983,3.9762,4.1944,4.2283,4.2858,4.4364,4.4567,4.4615,4.4615,4.4615,4.4615,4.4615,0.0,4.4615,4.4615,4.4615,4.4615,4.4615,4.4615,4.4615,4.4615,4.4615,4.4632,4.4651,4.5365,4.572,4.5788,4.6515,4.6853,4.6902,4.7633,4.7954,4.8005,4.8714,4.9001,4.9001,4.9001,4.9001,4.9001,4.9001,4.9001,4.8798,0.0,0.0,0.0,0.0,0.0,0.0,0.0,0.0,0.0,0.0,0.0,0.0,0.0,0.0,0.0,0.0,0.0,0.0,2.079,2.1826,2.3043,2.4433,2.5283,2.6085,2.6888,2.7493,2.7903,2.8117,2.8913,2.9409,2.961,2.9812,3.0032,3.0198,2.9733,2.9354,2.9081,2.9152,2.8887,2.8432,0.0,2.8805,2.8103,0.0,0.0,2.6979,2.6979,2.7207,2.7444,2.6894,2.7461,2.8671,3.0168,3.1268,3.23,3.3789,3.4093,3.4263,3.5814,3.6344,3.6818,3.812,3.8594,3.8916,3.9643,3.9389,3.9,3.9,3.812,3.7291,3.7122,3.7071,3.7325,3.8058,3.8633,3.958,4.1255,4.1948,4.2642,4.3592,4.4245,4.4615,4.4615,4.4615,4.4615,4.4615,4.4615,4.4615,4.4615,4.4615,4.4615,4.4615,4.4615,4.4615,4.4615,4.4615,4.4888,4.5415,4.5618,4.5991,4.6532,4.7278,4.7616,4.765,4.8409,4.8715,4.8731,4.8934,4.9001,4.9001,4.9001,4.9001,4.9001,4.9001,4.9001,4.8951,0.0,0.0,0.0,0.0,0.0,0.0,0.0,0.0,0.0,0.0,0.0,0.0,0.0,0.0,0.0,0.0,0.0,0.0,0.0,2.0758,2.1639,2.2533,2.3712,2.4557,2.5011,2.5805,2.6214,2.6214,2.7034,2.7598,2.7959,2.8314,2.8656,2.8982,2.8475,2.8102,2.7879,2.7762,0.0,0.0,0.0,0.0,0.0,0.0,0.0,2.67,2.67,2.7173,2.779,2.7723,2.8713,3.0168,3.1319,3.2182,3.3078,3.4556,3.4742,3.4838,3.6389,3.7038,3.7562,3.8713,3.9237,3.9508,3.9592,3.9305,3.873,3.7719,3.6857,3.6163,3.5853,3.6056,3.6637,3.7724,3.8514,3.9525,4.1001,4.183,4.269,4.3727,4.4519,4.4998,4.4998,4.4998,4.4896,4.4612,4.4615,4.4615,4.4615,4.4615,4.4615,4.4615,4.4615,4.4615,4.4615,4.4922,4.528,4.572,4.6348,4.6872,4.731,4.8039,4.8377,4.8411,0.0,4.9001,4.9001,4.9001,4.9001,4.9001,4.9001,4.9001,4.9001,4.9001,4.9001,4.9001,0.0,0.0,0.0,0.0,0.0,0.0,0.0,0.0,0.0,0.0,0.0,0.0,0.0,0.0,0.0,0.0,0.0,0.0,0.0,0.0,0.0,0.0,2.1887,2.2767,2.3006,2.3671,2.408,2.4194,2.4897,2.559,2.6295,0.0,0.0,0.0,0.0,0.0,0.0,0.0,0.0,0.0,0.0,0.0,0.0,0.0,0.0,2.6716,2.681,2.7325,2.8086,2.8882,2.9999,3.1217,3.2148,3.2892,3.3683,3.5171,3.5154,3.4956,3.6423,3.7274,3.7939,3.8667,3.9339,3.9609,3.8882,3.8616,3.7956,3.5881,3.5391,3.5137,3.459,3.5103,3.609,3.764,3.8514,3.9478,4.0865,4.1854,4.2885,4.41,4.5058,4.5622,4.5622,4.5622,4.5394,4.4879,4.4841,4.48,4.472,4.464,4.4615,4.4615,4.4615,4.4649,4.4736,4.5382,4.579,4.6024,4.7295,4.7954,4.8073,4.8714,4.9001,4.9001,4.9001,0.0,4.9001,4.9001,4.9001,4.9001,4.9001,4.9001,4.9001,4.9001,4.9001,4.9001,0.0,0.0,0.0,0.0,0.0,0.0,0.0,0.0,0.0,0.0,0.0,0.0,0.0,0.0,0.0,0.0,0.0,0.0,0.0,0.0,0.0,0.0,2.0782,2.1571,2.2969,2.3134,2.3524,2.4194,2.4341,2.4488,2.4612,2.4764,2.4905,0.0,0.0,0.0,0.0,0.0,0.0,0.0,0.0,0.0,0.0,0.0,0.0,0.0,2.7393,2.8129,2.8916,2.9651,3.0081,3.0623,3.2594,3.3305,3.3683,3.5171,3.5509,3.5611,3.6547,3.6885,3.7173,3.7905,3.8193,3.8091,3.7342,3.6671,3.5898,3.4895,3.4218,3.3931,3.4415,3.5103,3.609,3.764,3.8514,3.9305,4.0168,4.1926,4.322,4.3452,4.5118,4.624,4.624,4.624,4.6204,4.61,4.61,4.5865,4.5372,4.4865,4.4615,4.4615,4.4615,4.4888,4.55,4.5652,4.6297,4.7532,4.7785,4.8225,4.88,4.8951,4.9001,4.9001,4.9001,0.0,4.9001,4.9001,4.9001,4.9001,4.9001,4.9001,4.9001,4.9001,4.9001,4.9001,0.0,0.0,0.0,0.0,0.0,0.0,0.0,0.0,0.0,0.0,1.3396,0.0,0.0,0.0,0.0,0.0,0.0,0.0,0.0,0.0,0.0,0.0,0.0,0.0,2.1681,2.213,2.2776,2.3579,0.0,2.3786,2.4208,2.4016,2.3932,2.3917,2.3403,2.3093,2.2958,2.303,2.3203,2.3427,2.3789,2.4601,0.0,0.0,0.0,0.0,2.7097,2.7714,2.8433,2.877,2.9168,2.9905,3.2131,3.3085,3.3531,3.4258,3.5002,3.5667,3.6067,3.6479,3.6981,3.7719,3.7893,3.7601,3.6434,3.5881,3.5171,3.367,3.3078,3.2943,3.3281,3.4269,3.5402,3.6524,3.8223,3.9545,3.9887,4.1754,4.3382,4.415,4.5461,4.6463,4.6885,4.6921,4.6785,4.643,4.6407,4.6276,4.5989,4.5681,4.555,4.555,4.5232,4.5408,4.6162,4.6243,4.6819,4.7904,4.8293,4.8663,4.9001,4.9001,4.9001,4.9001,4.9001,0.0,4.9001,4.9001,4.9001,4.9001,4.9001,4.9001,4.9001,4.9001,4.9001,4.9001,0.0,0.0,0.0,0.0,0.0,0.0,0.0,1.3396,1.3396,1.3396,1.3396,1.3438,1.3548,1.4191,0.0,0.0,0.0,0.0,0.0,0.0,0.0,0.0,0.0,0.0,0.0,0.0,0.0,2.2735,2.2914,0.0,0.0,0.0,0.0,0.0,2.3075,2.2772,2.2682,2.2484,2.2686,0.0,0.0,2.3951,0.0,0.0,0.0,0.0,0.0,2.7173,2.7807,2.7807,2.8323,2.9297,3.1041,3.2097,3.2787,3.326,3.4224,3.5205,3.5515,3.6062,3.6682,3.7251,3.7403,3.7014,3.5492,3.5137,3.4545,3.2486,3.2056,3.2137,3.24,3.3543,3.4766,3.5766,3.7925,3.9591,3.9921,4.1635,4.3411,4.4923,4.5866,4.6721,4.7521,4.7593,4.7367,4.6847,4.6813,4.6687,4.6401,4.6536,4.6548,4.6389,4.6127,4.6243,4.6836,4.7113,4.7556,4.814,4.8715,4.9001,4.9001,4.9001,4.9001,4.9001,4.9001,0.0,0.0,4.9001,4.9001,4.9001,4.9001,4.9001,4.9001,4.9001,4.9001,4.9001,0.0,0.0,0.0,0.0,0.0,0.0,0.0,1.3396,1.3396,1.3396,1.3396,1.34,1.3421,1.3597,0.0,0.0,0.0,0.0,0.0,0.0,0.0,0.0,0.0,0.0,0.0,0.0,0.0,2.1904,2.2644,0.0,0.0,0.0,0.0,0.0,0.0,2.299,2.2701,2.2669,0.0,0.0,0.0,0.0,0.0,0.0,0.0,0.0,0.0,2.7173,2.7807,2.7807,2.8323,2.9044,2.9247,2.9803,3.0792,3.2804,3.3497,3.3886,3.5239,3.565,3.5718,3.5785,3.5802,3.5414,3.3937,3.3599,3.3159,3.1623,3.1292,3.1635,3.2722,3.3648,3.4834,3.6665,3.7786,3.8919,4.033,4.1802,4.3322,4.4909,4.623,4.7321,4.8137,4.821,4.8191,4.8124,4.8142,4.7617,4.6466,4.6977,4.7021,4.643,4.7102,4.7528,4.7605,4.8335,4.8778,4.89,4.8968,4.9001,4.9001,4.9001,4.9001,4.9001,4.9001,0.0,0.0,4.9001,4.9001,4.9001,4.9001,4.9001,4.9001,4.9001,4.9001,4.9001,0.0,0.0,0.0,0.0,0.0,0.0,0.0,1.3396,1.3396,1.3396,1.3396,1.3396,1.3396,1.345,0.0,0.0,0.0,0.0,0.0,0.0,0.0,0.0,0.0,0.0,0.0,0.0,2.0053,2.101,2.1336,0.0,0.0,0.0,0.0,0.0,0.0,2.2574,2.2457,2.2457,0.0,0.0,0.0,0.0,0.0,0.0,0.0,0.0,0.0,0.0,2.7139,2.7139,2.7351,2.7613,2.7613,2.7816,2.8416,3.0219,3.2324,3.3998,3.3704,3.4579,3.56,3.56,3.56,3.5211,3.3734,3.3396,3.2983,3.1495,3.12,3.1424,3.2139,3.2934,3.398,3.5462,3.7032,3.8616,4.0201,4.1596,4.3233,4.533,4.6048,4.6883,4.8168,4.8296,4.8296,4.8296,4.8296,4.8085,4.7575,4.7797,4.7818,4.7554,4.8007,4.8442,4.8897,4.9342,4.9575,4.9607,4.9607,4.9389,4.9001,4.9001,4.9001,4.9001,4.9001,0.0,0.0,4.9001,4.9001,4.9001,4.9001,4.9001,4.9001,4.9001,4.9001,4.9001,0.0,0.0,0.0,0.0,0.0,0.0,1.3396,1.3396,1.3396,1.3396,1.3396,1.3396,1.3396,1.3396,1.3732,1.4577,0.0,0.0,0.0,0.0,0.0,0.0,0.0,0.0,0.0,0.0,1.9292,2.0148,2.024,2.0947,0.0,0.0,2.2183,2.2717,0.0,0.0,0.0,0.0,0.0,0.0,0.0,0.0,0.0,0.0,0.0,0.0,0.0,0.0,0.0,0.0,0.0,2.67,2.67,2.6843,2.7283,2.8604,3.0997,3.3102,3.2723,3.3914,3.534,3.5549,3.543,3.4951,3.3683,3.3237,3.2713,3.1471,3.12,3.1361,3.1906,3.2658,3.3652,0.0,3.6666,3.8331,3.9963,4.1195,4.2745,4.4929,4.5406,4.6177,4.7783,4.815,4.8296,4.8296,4.8296,4.8296,4.8296,4.8296,4.8296,4.8296,4.8925,4.9401,4.9697,5.0307,5.0413,5.0004,5.0004,4.9649,4.9001,4.9001,4.9001,4.9001,4.9001,0.0,0.0,4.9001,4.9001,4.9001,4.9001,4.9001,4.9001,4.9001,4.9001,4.9001,0.0,0.0,0.0,0.0,0.0,0.0,0.0,1.3396,1.3396,1.3396,1.3396,1.3396,1.3396,1.3396,1.3462,1.3594,0.0,0.0,0.0,0.0,0.0,0.0,0.0,0.0,0.0,0.0,0.0,1.9315,1.9646,1.9954,2.0242,2.117,2.1611,2.1644,0.0,0.0,0.0,0.0,0.0,0.0,0.0,0.0,0.0,0.0,0.0,0.0,0.0,0.0,0.0,0.0,0.0,0.0,0.0,2.719,2.7942,2.8764,2.9542,3.0623,3.2787,3.3931,3.4692,3.5425,3.5053,3.433,3.3575,3.2841,3.2107,3.1352,3.12,3.1449,3.2333,3.3145,3.4262,3.5996,3.6964,3.8072,3.968,4.0608,4.1709,4.3341,4.4232,4.5342,4.6966,4.7838,4.8296,4.8296,4.8296,0.0,4.8296,4.8296,4.8296,4.8296,4.9911,5.0422,4.9715,5.1277,5.1376,5.0004,5.0004,4.9649,4.9001,4.9001,4.9001,4.9001,0.0,0.0,0.0,4.9001,4.9001,4.9001,4.9001,4.9001,4.9001,4.9001,4.9001,4.9001,0.0,0.0,0.0,0.0,0.0,0.0,0.0,1.3396,1.3396,1.3396,1.3396,1.3396,1.3396,1.3396,1.3621,1.4161,0.0,0.0,0.0,0.0,0.0,0.0,0.0,0.0,0.0,0.0,0.0,1.9084,1.9016,1.9666,2.0944,2.0827,2.1337,2.2342,2.2317,2.2296,0.0,0.0,0.0,0.0,0.0,0.0,0.0,0.0,0.0,0.0,0.0,0.0,0.0,0.0,0.0,0.0,0.0,0.0,0.0,2.7342,2.9051,3.0886,3.1096,3.2415,3.3801,3.4038,3.392,3.3558,3.2824,3.2479,3.209,3.1352,3.142,3.1797,3.2392,3.2965,3.4003,3.5974,3.6512,3.743,3.9596,4.0589,4.1892,4.4066,4.6003,4.7361,4.7874,4.815,4.8296,4.8296,4.8296,4.8296,4.8296,4.8296,4.8296,4.8296,4.9929,5.0692,5.0462,5.205,5.2376,5.1438,5.1438,5.1081,5.0435,5.0435,5.016,0.0,0.0,0.0,0.0,5.023,5.0132,4.9678,4.9678,4.9404,4.9001,4.9001,4.9001,4.9001,0.0,0.0,0.0,0.0,0.0,0.0,0.0,1.3396,1.3396,1.3396,1.3396,1.3396,1.3396,1.3396,1.3692,1.4436,0.0,0.0,0.0,0.0,0.0,0.0,0.0,0.0,0.0,0.0,0.0,1.8861,1.8479,1.9072,2.054,2.0339,2.0922,2.2144,2.2255,2.2296,0.0,0.0,0.0,0.0,0.0,0.0,2.3105,0.0,0.0,0.0,0.0,0.0,0.0,0.0,0.0,0.0,0.0,0.0,0.0,0.0,2.823,2.9929,3.0065,3.1299,3.2713,3.326,3.3186,3.29,3.2619,3.2327,3.2034,3.176,3.1887,3.2204,3.2681,3.3006,3.3883,3.5959,3.631,3.7044,3.9148,4.0139,4.1552,4.3956,4.637,4.7856,4.7856,4.8113,4.8296,4.8296,4.8296,4.8296,4.8296,4.8296,4.8296,4.8296,4.9929,5.0802,5.0802,5.2407,5.2831,5.2101,5.2101,5.1759,5.1099,5.1099,5.085,0.0,0.0,0.0,0.0,5.0903,5.0823,5.0393,5.01,4.9734,4.9361,4.9092,4.9001,4.9001,0.0,0.0,0.0,0.0,0.0,0.0,0.0,0.0,0.0,0.0,1.3396,1.3396,1.3396,1.3447,0.0,0.0,0.0,0.0,0.0,0.0,0.0,0.0,0.0,0.0,0.0,1.7922,1.8045,1.8566,1.8114,1.8393,1.9387,1.9868,2.0511,2.1309,2.1982,2.2296,0.0,0.0,0.0,0.0,0.0,0.0,0.0,0.0,0.0,0.0,0.0,0.0,0.0,0.0,0.0,0.0,0.0,0.0,0.0,0.0,0.0,0.0,0.0,3.0565,3.1461,3.2899,3.274,3.2339,3.2811,3.2344,0.0,3.2409,3.2526,3.2681,3.3113,3.3221,3.3912,3.5959,3.631,3.6853,3.8461,3.9533,4.1009,4.3304,4.5709,4.7186,4.7186,4.7856,4.8296,4.8296,4.8296,4.8296,4.8296,4.8296,4.8296,4.8296,4.9866,5.0747,5.0802,5.2333,5.2799,5.2171,5.2171,5.1844,5.1241,5.1241,5.1215,0.0,0.0,0.0,0.0,5.1228,5.1215,5.1099,5.0417,5.0115,4.999,4.9331,4.9061,4.9061,0.0,0.0,0.0,0.0,0.0,0.0,0.0,0.0,0.0,0.0,0.0,1.3396,1.3396,1.3908,0.0,0.0,0.0,0.0,0.0,0.0,0.0,0.0,0.0,0.0,0.0,1.7833,1.796,1.8295,1.8529,1.916,2.0148,2.0675,2.1319,2.205,2.2219,2.2296,2.2296,0.0,0.0,0.0,0.0,0.0,0.0,0.0,0.0,0.0,2.6175,2.67,0.0,0.0,0.0,0.0,0.0,0.0,0.0,0.0,2.6826,2.7309,2.8848,0.0,3.0581,3.1495,3.1589,3.1565,0.0,3.1945,3.1924,3.2409,3.2795,3.3068,3.3184,3.344,3.4243,3.6013,3.631,3.6853,3.8461,4.0991,4.3102,4.4287,4.6553,4.8021,4.8021,4.8186,4.8296,4.8296,4.8296,4.8296,4.8296,4.8296,4.8296,4.8296,4.9334,5.0188,5.0802,5.1793,5.2491,5.2937,5.2937,5.2853,5.2702,5.2702,5.2399,0.0,0.0,0.0,5.1904,5.2475,5.2376,5.1856,5.1667,5.1287,5.0756,5.0033,4.9748,4.9693,0.0,0.0,0.0,0.0,0.0,0.0,0.0,0.0,0.0,0.0,0.0,0.0,0.0,0.0,0.0,0.0,0.0,0.0,0.0,0.0,0.0,0.0,0.0,0.0,0.0,1.8127,1.8382,1.8522,1.9117,1.9864,2.0763,2.1059,2.159,2.2296,2.2296,2.2296,2.2296,2.2296,2.2296,0.0,2.2296,0.0,0.0,0.0,0.0,0.0,2.6293,2.67,0.0,2.67,2.67,2.67,0.0,0.0,0.0,0.0,2.67,2.7038,2.8587,2.9288,2.9854,3.092,3.12,3.1361,3.1977,3.2109,3.2307,3.2965,3.331,3.348,3.348,3.3945,3.4773,3.6083,3.6909,3.8083,4.0065,4.2488,4.4342,4.514,4.7058,4.8296,0.0,4.8296,4.8296,4.8296,4.8296,4.8296,4.8296,4.8296,4.8296,4.8296,4.8765,4.9399,5.0243,5.1418,5.2226,5.2656,5.3012,5.3196,5.3196,5.3196,5.2988,0.0,0.0,0.0,5.264,5.3031,5.2959,5.2565,5.2236,5.188,5.1469,5.077,5.05,5.0445,0.0,0.0,0.0,0.0,0.0,0.0,0.0,0.0,0.0,0.0,0.0,0.0,0.0,0.0,0.0,0.0,0.0,0.0,0.0,0.0,0.0,0.0,0.0,0.0,1.78,1.8521,1.8899,1.8899,1.9767,2.0528,2.1197,2.1315,2.1708,2.2296,2.2296,2.2296,2.2296,2.2296,2.2296,2.2296,2.2296,0.0,0.0,0.0,0.0,0.0,0.0,0.0,0.0,2.67,2.67,2.67,2.67,0.0,0.0,0.0,0.0,0.0,2.8587,2.9047,2.9441,3.0927,3.1291,3.1524,3.2409,3.2608,3.2832,3.3634,3.3807,3.388,3.4137,3.4736,3.5555,3.667,3.8102,3.9819,4.1992,4.3691,4.4993,4.5792,4.7315,0.0,4.8296,4.8296,4.8296,4.8296,4.8296,4.8296,4.8296,4.8296,4.8296,4.8296,4.8296,4.8655,4.938,5.0886,5.1693,5.184,5.2637,5.3012,5.3012,5.3141,5.3196,5.3196,0.0,0.0,5.3196,5.3196,5.3196,5.3153,5.2502,5.2271,5.2189,5.1494,5.1254,5.1241,0.0,0.0,0.0,0.0,0.0,0.0,0.0,0.0,0.0,0.0,0.0,0.0,0.0,0.0,0.0,0.0,0.0,0.0,0.0,0.0,0.0,0.0,0.0,1.78,1.78,1.8521,1.8899,1.8899,2.0321,2.1072,2.1207,2.1837,2.2185,2.2296,2.2296,2.2296,2.2296,2.2296,2.2296,2.2296,2.2296,0.0,0.0,0.0,0.0,0.0,0.0,0.0,0.0,2.67,2.67,2.67,2.67,0.0,0.0,0.0,0.0,0.0,2.8587,2.9246,2.9868,3.1344,3.1715,3.1959,3.288,3.3083,3.3236,3.37,3.3807,3.4229,3.5642,3.6009,3.6798,3.899,4.0131,4.1103,4.2158,4.3691,4.4993,4.5792,0.0,4.8296,4.8296,4.8296,4.8296,4.8296,4.8296,4.8296,4.8296,4.8296,4.8296,4.8296,4.8296,4.8351,4.8508,4.9472,5.0316,5.0986,5.1793,5.2179,5.2197,5.2884,5.3196,5.3196,0.0,5.3196,5.3196,5.3196,5.3196,5.3185,5.3082,5.3031,5.2937,5.2213,5.194,5.1868,0.0,0.0,0.0,0.0,0.0,0.0,0.0,0.0,0.0,0.0,0.0,0.0,0.0,0.0,0.0,0.0,0.0,0.0,0.0,0.0,0.0,0.0,1.78,1.7991,1.8386,1.9124,1.9705,2.0141,2.1251,2.1786,2.1803,2.2134,2.2296,2.2296,2.2296,2.2296,2.2296,2.2296,2.2296,2.233,0.0,0.0,0.0,0.0,0.0,0.0,0.0,0.0,0.0,0.0,2.67,2.67,2.67,0.0,0.0,0.0,0.0,0.0,2.8587,2.929,3.0107,3.2284,3.2511,3.2349,3.3045,3.3199,3.331,3.3721,3.3807,3.4302,3.5991,3.6659,3.787,4.0726,4.1515,4.2333,4.4011,4.4874,4.581,4.7058,0.0,4.8296,4.8296,4.8296,4.8296,4.8296,4.8296,4.8296,4.8296,4.8296,4.8296,4.8296,4.8296,4.8296,4.8296,4.8691,4.9325,5.017,5.0967,5.1353,5.1371,5.2179,5.2546,5.2582,0.0,5.3196,5.3196,5.3196,5.3196,5.3196,5.3196,5.3196,5.3164,5.2831,5.2684,5.2651,0.0,0.0,0.0,0.0,0.0,0.0,0.0,0.0,0.0,0.0,0.0,0.0,0.0,0.0,0.0,0.0,0.0,0.0,0.0,0.0,1.78,1.78,1.7974,1.8318,1.8883,1.9625,2.0386,2.1197,2.1938,2.2296,2.2296,2.2296,2.2296,2.2296,2.2296,2.2296,2.2296,2.2296,2.2405,2.2608,0.0,0.0,0.0,0.0,0.0,0.0,0.0,0.0,0.0,0.0,0.0,0.0,0.0,0.0,0.0,2.67,2.6826,2.7249,2.8637,2.9498,3.0578,3.2839,3.3176,3.3124,3.3775,3.3927,3.4007,3.4321,3.4548,3.5165,3.6842,3.8109,3.9651,4.1937,4.2451,4.3351,4.559,4.5902,4.6507,4.8113,4.8296,4.8296,4.8296,4.8296,4.8296,4.8296,4.8296,4.8296,4.8296,4.8296,4.8296,4.8296,4.8296,4.8296,4.8296,4.8296,4.8636,4.9307,5.0133,5.0508,5.0545,5.1353,5.172,5.1767,5.2564,5.292,5.292,5.3122,5.3196,5.3196,5.3196,5.3196,5.3196,5.3196,5.3196,5.3196,0.0,0.0,0.0,0.0,0.0,0.0,0.0,0.0,0.0,0.0,0.0,0.0,0.0,0.0,0.0,0.0,0.0,0.0,0.0,0.0,1.78,1.78,1.8454,1.8849,1.8899,1.9625,2.0386,2.1197,2.1938,2.2296,2.2296,2.2296,2.2296,2.2296,2.2296,2.2296,2.2296,2.2296,2.2692,2.3332,2.3376,0.0,0.0,0.0,0.0,0.0,0.0,0.0,0.0,0.0,0.0,0.0,0.0,0.0,2.67,2.67,2.7173,2.7917,2.8764,3.0101,3.1473,3.2367,3.3432,3.4586,3.5802,3.6083,3.6091,3.6119,3.6714,3.7731,3.9339,4.1523,4.29,4.2378,4.2937,4.4002,4.5663,0.0,4.6507,4.8113,4.8296,4.8296,4.8296,4.8296,4.8296,4.8296,4.8296,4.8296,4.8296,4.8296,4.8296,4.8296,4.8296,4.8296,4.8296,4.8296,4.8333,4.8398,4.927,4.9692,4.9711,5.0508,5.0894,5.093,5.1738,5.2097,5.2152,5.2884,5.3196,5.3196,5.3196,5.3196,5.3196,5.3196,5.3196,5.3196,0.0,0.0,0.0,0.0,0.0,0.0,0.0,0.0,0.0,0.0,0.0,0.0,0.0,0.0,0.0,0.0,0.0,0.0,0.0,0.0,1.8008,1.8454,1.8741,1.9345,2.031,2.0608,2.1126,2.1887,2.2168,2.2296,2.2296,2.2296,2.2296,2.2296,2.2296,2.2296,2.233,2.2794,2.3139,2.3477,2.4408,2.5093,0.0,0.0,0.0,0.0,0.0,0.0,0.0,0.0,2.67,2.67,2.67,2.67,2.67,2.67,2.7224,2.8029,2.9093,3.0728,3.2506,3.4041,3.5007,3.5561,3.5508,3.5917,3.6439,3.6942,3.729,3.8146,4.0267,4.2221,4.3396,4.3102,4.3718,4.4635,4.5736,4.6333,4.7067,4.8168,4.8296,4.8296,4.8296,4.8296,4.8296,4.8296,4.8296,4.8296,4.8296,4.8296,4.8296,4.8296,4.8296,4.8296,4.8296,4.8296,4.8296,4.8296,4.8636,4.8783,4.882,4.9674,5.0059,5.0096,5.0894,5.1242,5.1279,5.1581,5.2013,5.2509,5.2994,5.3196,5.3196,5.3196,5.3196,5.3196,0.0,0.0,0.0,0.0,0.0,0.0,0.0,0.0,0.0,0.0,0.0,0.0,0.0,0.0,0.0,0.0,0.0,0.0,0.0,1.8025,1.8369,1.8883,1.9379,2.0124,2.1173,2.1421,2.1786,2.2296,2.2296,2.2296,2.2303,2.2388,2.2433,2.2443,2.2698,2.2801,2.2845,2.3478,2.3874,2.4188,2.5195,2.5736,0.0,0.0,0.0,0.0,0.0,0.0,0.0,0.0,2.67,2.67,2.67,2.67,2.6759,2.7163,2.7785,2.8639,2.9836,3.1646,3.35,3.4874,3.5964,3.653,3.5929,3.6046,3.6604,3.765,3.8495,3.9523,4.1177,4.2598,4.3414,4.3157,4.4011,4.4975,4.5792,4.659,4.7388,4.8205,4.8296,4.8296,4.8296,4.8296,4.8296,4.8296,4.8296,4.8296,4.8296,4.8296,4.8296,4.8296,4.8296,4.8296,4.8296,4.8296,4.8296,4.8296,4.8296,4.8296,4.8315,4.8921,4.9197,4.9233,5.005,5.0417,5.0435,5.071,5.1114,5.1683,5.2223,5.2443,5.2443,5.2443,5.2443,5.2443,0.0,0.0,0.0,0.0,0.0,0.0,0.0,0.0,0.0,0.0,0.0,0.0,0.0,0.0,0.0,0.0,0.0,0.0,0.0,1.8488,1.8916,1.8916,2.0395,2.1197,2.1207,2.1921,2.2296,2.2296,2.2296,2.2296,2.2317,2.259,2.2701,2.2753,2.3548,2.3898,2.3936,2.4344,2.4931,2.5609,2.5609,2.6048,2.67,0.0,0.0,0.0,0.0,0.0,0.0,0.0,2.6708,2.6708,2.67,2.67,2.6936,2.8141,2.9041,2.9879,3.1081,3.2887,3.4426,3.4434,3.5989,3.7492,3.7492,3.6898,3.678,3.8377,4.0634,4.2304,4.2304,4.2955,4.3231,4.2451,4.3672,4.4993,4.5792,4.6608,4.7406,4.8205,4.8296,4.8296,4.8296,4.8296,4.8296,4.8296,4.8296,4.8296,4.8296,4.8296,4.8296,4.8296,4.8296,4.8296,4.8296,4.8296,4.8296,4.8296,4.8296,4.8296,4.8296,4.8296,4.8296,4.8361,4.9215,4.9592,4.9647,5.0453,5.0802,5.0802,5.0802,5.0802,5.0802,5.0802,5.0802,5.0802,0.0,0.0,0.0,0.0,0.0,0.0,0.0,0.0,0.0,0.0,0.0,0.0,0.0,0.0,0.0,0.0,0.0,0.0,0.0,1.8781,1.9373,2.0463,2.096,2.1444,2.1965,2.2185,2.2296,2.2296,2.2296,2.2409,2.2579,2.265,2.3007,2.3548,2.3801,2.4202,2.4792,2.5424,2.5822,2.6081,2.6589,2.675,2.6733,0.0,0.0,0.0,0.0,0.0,0.0,0.0,0.0,0.0,2.68,2.6898,2.7292,2.8229,2.9608,3.114,3.2412,3.4369,3.6166,3.6509,3.7044,3.7492,3.7492,3.7742,3.8285,3.9331,4.1468,4.2974,4.2396,4.2955,4.3616,4.3929,4.4856,4.5828,4.6627,4.7434,4.8021,4.826,4.8296,4.8296,4.8296,4.8296,4.8296,4.8296,4.8296,4.8296,4.8296,4.8296,4.8296,4.8296,4.8296,4.8296,4.8296,4.8296,4.8296,4.8296,4.8296,4.8296,4.8296,4.8296,4.8296,4.8315,4.8563,4.8691,4.8746,4.9601,4.9968,5.0004,5.0582,5.0802,5.0802,5.0802,5.0802,5.0802,0.0,0.0,0.0,0.0,0.0,0.0,0.0,0.0,0.0,0.0,0.0,0.0,0.0,0.0,0.0,0.0,0.0,0.0,0.0,0.0,2.0226,2.1156,2.1471,2.1854,2.2286,2.2296,2.2356,2.2457,2.2457,2.2537,2.2708,2.33,2.3834,2.4315,2.4944,2.5476,2.5983,2.6602,2.688,2.6915,2.7362,2.7386,2.721,0.0,0.0,0.0,0.0,0.0,0.0,0.0,0.0,0.0,2.7059,2.7431,2.8162,2.8981,3.0613,3.2412,3.3648,3.5499,3.7148,3.744,3.7749,3.8054,3.8374,3.8825,3.9405,4.0212,4.2029,4.3341,4.2882,4.3176,4.3763,4.4571,4.5388,4.6177,4.6984,4.7801,4.8296,4.8296,4.8296,4.8296,4.8296,4.8296,4.8296,4.8296,4.8296,4.8296,4.8296,4.8296,4.8296,4.8296,4.8296,4.8296,4.8296,4.8296,4.8296,4.8296,4.8296,4.8296,4.8296,4.8296,4.8296,4.8296,4.8296,4.8296,4.8333,4.8866,4.9087,4.9142,4.9627,4.9811,4.9811,4.9811,4.9811,4.9811,0.0,0.0,0.0,0.0,0.0,0.0,0.0,0.0,0.0,0.0,0.0,0.0,0.0,0.0,0.0,0.0,0.0,0.0,0.0,0.0,2.1224,2.1292,2.1938,2.2296,2.2296,2.2296,2.2419,2.265,2.2689,2.2775,2.2938,2.4278,2.4979,2.5172,2.6574,2.7235,2.7342,2.7765,2.7954,2.7954,2.7954,2.7933,2.7904,2.794,0.0,0.0,0.0,0.0,0.0,0.0,0.0,0.0,2.7477,2.8183,2.9307,3.0122,3.176,3.359,3.4799,3.6285,3.7529,3.7584,3.8219,3.9019,3.9835,4.0073,4.0304,4.0956,4.2378,4.3469,4.3396,4.3451,4.38,4.4663,4.5424,4.6214,4.7094,4.7838,4.8296,4.8296,4.8296,4.8296,4.8296,4.8296,4.8296,4.8296,4.8296,4.8296,4.8296,4.8296,4.8296,4.8296,4.8296,4.8296,4.8296,4.8296,4.8296,4.8296,4.8296,4.8296,4.8296,4.8296,4.8296,4.8296,4.8296,4.8296,4.8296,4.8296,4.8296,4.8296,4.8296,4.8296,4.8296,4.8296,4.8296,4.8296,0.0,0.0,0.0,0.0,0.0,0.0,0.0,0.0,0.0,0.0,0.0,0.0,0.0,0.0,0.0,0.0,0.0,0.0,0.0,0.0,2.1461,2.204,2.2219,2.2296,2.2296,2.2296,2.2321,2.2388,2.2599,2.3294,2.4431,2.476,2.5551,2.6718,2.7054,2.7559,2.8148,2.8239,2.8297,2.8297,2.8297,2.8136,2.7933,2.8197,2.8297,0.0,0.0,0.0,0.0,0.0,0.0,0.0,2.788,2.8557,2.9656,3.0527,3.2166,3.4037,3.561,3.6732,3.7658,3.8285,3.9045,3.9845,4.0663,4.1323,4.1662,4.1195,4.2378,4.3304,4.2671,4.3065,4.3965,4.5406,4.5792,4.6397,4.7838,4.8186,4.8296,4.8296,4.8296,4.8296,4.8296,4.8296,4.8296,4.8296,4.8296,4.8296,4.8296,4.8296,4.8296,4.8296,4.8296,4.8296,4.8296,4.8296,4.8296,0.0,4.8296,4.8296,4.8296,4.8296,4.8296,4.8296,4.8296,4.8296,4.8296,4.8296,4.8296,4.8296,4.8296,4.8296,4.8296,4.8296,4.8296,4.8296,0.0,0.0,0.0,0.0,0.0,0.0,0.0,0.0,0.0,0.0,0.0,0.0,0.0,0.0,0.0,0.0,0.0,0.0,0.0,0.0,0.0,0.0,2.2296,2.2296,2.2296,2.2296,2.2557,2.3079,2.3376,2.3912,2.4688,2.578,2.6722,2.7493,2.7888,2.8288,2.8682,2.8682,2.8682,2.8682,2.8682,2.8583,2.845,2.862,2.8682,2.8707,2.8923,0.0,0.0,0.0,0.0,0.0,0.0,0.0,3.0598,3.1279,3.2859,3.4663,3.5954,3.6898,3.7694,3.8505,3.9294,4.0102,4.092,4.1727,4.2286,4.2268,4.291,4.3378,4.2947,4.3231,4.4038,4.5645,4.5902,4.6452,4.8076,4.8296,4.8296,4.8296,4.8296,4.8296,4.8296,4.8296,4.8296,4.8296,4.8296,4.8296,4.8296,4.8296,4.8296,4.8296,4.8296,4.8296,4.8296,4.8296,4.8296,4.8296,4.8296,4.8296,4.8296,4.8296,4.8296,4.8296,4.8296,4.8296,4.8296,4.8296,4.8296,4.8296,4.8296,4.8296,4.8296,4.8296,4.8296,4.8296,0.0,0.0,0.0,0.0,0.0,0.0,0.0,0.0,0.0,0.0,0.0,0.0,0.0,0.0,0.0,0.0,0.0,0.0,0.0,0.0,0.0,0.0,2.2296,2.2296,2.2296,2.2415,2.2916,2.3808,2.4497,2.4813,2.4861,2.6852,2.7866,2.8044,2.8693,2.8999,2.8999,2.8999,2.8999,2.8999,2.8999,2.8999,2.8999,2.8999,2.8999,2.8999,2.8999,2.8999,2.8999,2.8999,0.0,0.0,0.0,0.0,3.1689,3.2081,3.3412,3.4986,3.5844,3.6769,3.7694,3.8505,3.9405,4.0286,4.0956,4.1819,4.269,4.3359,4.3506,4.3506,4.3506,4.3506,4.3983,4.5443,4.581,4.6416,4.7893,4.8205,4.8296,4.8296,4.8296,4.8296,4.8296,4.8296,4.8296,4.8296,4.8296,4.8296,4.8296,4.8296,4.8296,4.8296,4.8296,4.8296,4.8296,4.8296,4.8296,4.8296,4.8296,4.8296,4.8296,4.8296,4.8296,4.8296,4.8296,4.8296,4.8296,4.8296,4.8296,4.8296,4.8296,4.8296,4.8296,4.8296,4.8296,4.8296,0.0,0.0,0.0,0.0,0.0,0.0,0.0,0.0,0.0,0.0,1.88,0.0,0.0,0.0,0.0,0.0,0.0,0.0,2.2151,0.0,0.0,2.2296,2.2296,2.2296,2.2296,2.2936,2.3321,2.3473,2.5484,2.6486,2.6499,2.7391,2.8172,2.884,2.895,2.8999,2.8999,2.8999,2.8999,2.8999,2.8999,2.8999,2.8999,2.8999,2.8999,2.8999,2.8999,2.8999,2.8999,2.8999,2.9464,0.0,0.0,0.0,3.2454,3.2519,3.3216,3.413,3.4949,3.6303,3.7694,3.8505,3.9837,4.0975,4.1077,4.2268,4.3378,4.3469,4.3506,4.3506,4.3506,4.3506,4.38,4.47,4.5461,4.6214,4.7131,4.7856,4.8296,4.8296,4.8296,4.8296,4.8296,4.8296,4.8296,4.8296,4.8296,4.8296,4.8296,4.8296,4.8296,4.8296,4.8296,4.8296,4.8296,4.8296,4.8296,4.8296,4.8296,4.8296,4.8296,4.8296,4.8296,4.8296,4.8296,4.8296,4.8296,4.8296,4.8296,4.8296,4.8296,4.8296,4.8296,4.8296,4.8296,4.8296,0.0,0.0,0.0,0.0,0.0,0.0,0.0,0.0,0.0,0.0,0.0,2.0085,0.0,0.0,0.0,2.1768,2.1869,2.2017,2.2289,2.2296,2.2296,2.2296,2.2296,2.2482,2.2919,2.3224,2.3925,2.4974,2.6209,2.7112,2.7709,2.8239,2.8656,2.8999,2.8999,2.8999,2.8999,2.8999,2.8999,2.8999,2.8999,2.8999,2.8999,2.8999,2.8999,2.906,2.95,2.9671,2.9745,3.0185,3.0577,3.0944,3.1396,0.0,0.0,0.0,3.3532,3.3972,3.4784,3.6229,3.7694,3.8505,3.9911,4.1232,4.1672,4.2671,4.3506,4.3506,4.3506,4.3506,4.3506,4.3506,4.3763,4.4571,4.4993,4.5672,4.6911,4.7388,4.7801,4.8241,4.8296,4.8296,4.8296,4.8296,4.8296,4.8296,4.8296,4.8296,4.8296,4.8296,4.8296,4.8296,4.8296,4.8296,4.8296,4.8296,4.8296,4.8296,4.8296,4.8296,4.8296,4.8296,4.8296,4.8296,4.8296,4.8296,4.8296,4.8296,4.8296,4.8296,4.8296,4.8296,4.8296,4.8296,4.8296,4.8296,0.0,0.0,0.0,0.0,0.0,0.0,0.0,0.0,0.0,0.0,0.0,0.0,0.0,0.0,0.0,0.0,2.1988,2.1928,2.2282,2.2489,2.2574,2.2574,2.276,2.3122,2.3671,2.3961,2.48,2.6192,2.6879,2.7629,2.8414,2.8815,2.8999,2.8999,2.8999,2.8999,2.8999,2.8999,2.8999,2.8999,2.8999,2.8999,2.8999,2.8999,2.9133,2.9372,2.9983,3.0338,3.0595,3.1207,3.1537,3.1806,3.2406,3.2729,0.0,0.0,0.0,3.3972,3.4784,3.591,3.7155,3.8395,3.9764,4.1067,4.2066,4.291,4.3506,4.3506,4.3506,4.3506,4.3506,4.3506,4.3708,4.4305,4.4571,4.5122,4.6324,4.6837,4.7314,4.7911,4.8186,4.8296,4.8296,4.8296,4.8296,4.8296,4.8296,4.8296,4.8296,4.8296,4.8296,4.8296,4.8296,4.8296,4.8296,4.8296,4.8296,4.8296,4.8296,4.8296,4.8296,4.8296,4.8296,4.8296,4.8296,4.8296,4.8296,4.8296,4.8296,4.8296,4.8296,4.8296,4.8296,4.8296,4.8296,4.8296,0.0,0.0,0.0,0.0,0.0,0.0,0.0,0.0,0.0,0.0,0.0,0.0,0.0,2.1981,2.2254,2.2296,2.2282,2.2265,2.2296,2.2946,2.3342,2.3342,2.4017,0.0,2.444,2.551,2.61,2.6192,2.7616,2.8358,2.8414,2.8815,2.8999,2.8999,2.8999,2.8999,2.8999,2.8999,2.8999,2.8999,2.8999,2.8999,2.8999,2.8999,2.9464,3.013,3.0173,3.0693,3.1335,3.139,3.1916,3.2546,3.2589,3.3121,3.3752,0.0,0.0,0.0,3.4784,3.5052,3.5701,3.8094,3.9331,4.0367,4.1937,4.291,4.3506,4.3506,4.3506,4.3506,4.3506,4.3506,4.3506,4.3561,4.4195,4.4737,4.481,4.614,4.7113,4.7168,4.7838,4.8296,4.8296,4.8296,4.8296,4.8296,4.8296,4.8296,4.8296,4.8296,4.8296,4.8296,4.8296,4.8296,4.8296,4.8296,4.8296,4.8296,4.8296,4.8296,4.8296,4.8296,4.8296,4.8296,4.8296,4.8296,4.8296,4.8296,4.8296,4.8296,4.8296,4.8296,4.8296,4.8296,4.8296,4.8296,0.0,0.0,0.0,0.0,0.0,0.0,0.0,0.0,0.0,0.0,0.0,0.0,0.0,2.2352,2.2681,2.2982,2.3434,2.3705,2.3705,2.3958,2.4118,2.4118,2.4363,2.4728,2.5211,2.5861,2.6561,2.7281,2.804,2.8534,2.8785,2.8934,2.8999,2.8999,2.8999,2.8999,2.8999,2.8999,2.9299,2.9726,2.9207,2.961,3.0485,2.9965,3.0265,3.1115,3.2137,3.2706,3.3091,3.4181,3.4351,3.4135,3.4135,3.3977,3.3807,3.3807,3.3807,3.3862,3.4149,3.4619,3.5463,3.7441,3.8531,3.9551,4.1158,4.2158,4.2727,4.2727,4.3139,4.3506,4.3506,4.3506,4.3506,4.3506,4.3745,4.4103,4.4626,4.5195,4.5746,4.626,4.7049,4.7526,4.7526,4.8003,4.8296,4.8296,4.8296,4.8296,4.8296,4.8296,4.8296,4.8296,4.8296,4.8296,4.8296,4.8296,4.8296,4.8296,4.8296,4.8296,4.8296,4.8296,4.8296,4.8296,4.8296,4.8296,4.8296,4.8296,4.8296,4.8296,4.8296,4.8296,4.8296,4.8296,4.8296,4.8296,0.0,0.0,0.0,0.0,0.0,0.0,0.0,0.0,0.0,0.0,0.0,0.0,0.0,0.0,2.3424,2.3733,2.422,2.4498,2.4498,2.4728,2.488,2.488,2.5117,2.5536,2.6165,2.6566,2.7207,2.8061,2.8432,2.8743,2.8999,2.8999,2.8999,2.8999,2.8999,2.8999,2.9018,2.9299,2.9708,3.0173,2.991,3.0448,3.1372,3.1109,3.1513,3.2382,3.3715,3.4387,3.4798,3.5925,3.5727,3.4997,3.4997,3.4461,3.3807,3.3807,3.3807,3.3807,3.3807,3.4185,3.5066,3.7008,3.7907,3.8799,4.0681,4.1727,4.2304,4.2304,4.2937,4.3506,4.3506,4.3506,4.3506,4.3506,4.3506,4.369,4.4213,4.4535,4.4902,4.5424,4.6205,4.67,4.67,4.7416,4.7911,4.7911,4.815,0.0,4.8296,4.8296,4.8296,4.8296,4.8296,4.8296,4.8296,4.8296,4.8296,4.8296,4.8296,4.8296,4.8296,4.8296,4.8296,4.8296,4.8296,4.8296,4.8296,4.8296,4.8296,4.8296,4.8296,4.8296,4.8296,4.8296,4.8296,4.8296,0.0,0.0,0.0,0.0,0.0,0.0,0.0,0.0,0.0,0.0,0.0,0.0,0.0,0.0,0.0,2.4558,2.4558,2.4558,2.4558,2.522,2.5634,2.5634,2.6319,2.689,2.7295,2.7685,2.8061,2.8407,2.8797,2.8999,2.8999,2.8999,2.8999,2.8999,2.9018,2.9042,2.9097,2.9873,3.0228,3.0338,3.1115,3.1464,3.1592,3.2369,3.3176,3.3972,3.4784,3.5617,3.6347,3.6365,3.5782,3.5034,3.4979,3.4424,3.3807,3.3807,3.3807,3.3807,0.0,0.0,0.0,3.685,3.7456,3.8098,4.0516,4.1672,4.2249,4.2286,4.291,4.3469,4.3506,4.3506,4.3506,4.3506,4.3506,4.3506,4.3506,4.4176,4.4663,4.4663,4.5369,4.5865,4.5865,4.659,4.7058,4.7058,4.7819,4.826,4.826,4.8296,4.8296,4.8296,4.8296,4.8296,4.8296,4.8296,4.8296,4.8296,4.8296,4.8296,4.8296,4.8296,4.8296,4.8296,4.8296,4.8296,4.8296,4.8296,4.8296,4.8296,4.8296,4.8296,4.8296,4.8296,4.8296,4.8296,0.0,0.0,0.0,0.0,0.0,0.0,0.0,0.0,0.0,0.0,0.0,0.0,0.0,0.0,2.5507,2.604,2.609,2.609,2.609,2.6277,2.6395,2.6395,2.6598,2.689,2.7295,2.7685,2.8061,2.8407,0.0,0.0,0.0,0.0,0.0,2.9023,2.9616,2.9873,2.9873,3.0112,3.0864,3.1965,3.2185,3.2974,3.4032,3.4245,3.4864,3.5716,3.653,3.6953,3.7265,3.7845,3.711,3.5734,3.4516,3.3972,3.3807,3.3807,3.3807,3.3807,3.3807,0.0,0.0,0.0,0.0,0.0,3.968,4.0396,4.0899,4.2066,4.2488,4.28,4.3396,4.3506,4.3506,4.3506,4.3506,4.3506,4.3506,4.369,4.3828,4.3828,4.4544,4.503,4.503,4.5764,4.6232,0.0,4.6975,4.7424,4.7424,4.7984,4.8296,4.8296,4.8296,4.8296,4.8296,4.8296,4.8296,4.8296,4.8296,4.8296,4.8296,4.8296,4.8296,4.8296,4.8296,4.8296,4.8296,4.8296,4.8296,4.8296,4.8296,4.8296,4.8296,4.8296,4.8296,4.8296,0.0,0.0,0.0,0.0,0.0,0.0,0.0,0.0,0.0,0.0,0.0,0.0,0.0,0.0,2.6234,2.6666,2.67,2.67,2.67,2.6857,2.6955,2.6955,2.7107,2.7378,2.7755,0.0,0.0,0.0,0.0,0.0,0.0,0.0,0.0,0.0,2.9983,3.0571,3.1194,3.1194,3.1947,3.3103,3.3103,3.3867,3.5034,3.5389,3.5862,3.6457,3.7595,3.7999,3.8072,3.8542,3.7845,3.6457,3.4431,3.402,3.4222,3.3899,3.3807,3.3807,3.3807,3.3807,3.4119,3.5433,0.0,0.0,3.8495,3.9412,4.0257,4.1552,4.1801,4.2039,4.2845,4.2727,4.2598,4.2937,4.301,4.3121,4.3451,4.3506,4.3506,4.3506,4.3901,4.4195,4.4195,4.4929,4.5406,4.5406,4.6131,4.6755,4.7076,4.7535,4.7948,4.8296,4.8296,4.8296,4.8296,4.8296,4.8296,4.8296,4.8296,4.8296,4.8296,4.8296,4.8296,4.8296,4.8296,4.8296,4.8296,4.8296,4.8296,4.8296,4.8296,4.8296,4.8296,4.8296,4.8296,4.8296,0.0,0.0,0.0,0.0,0.0,0.0,0.0,0.0,0.0,0.0,0.0,0.0,0.0,0.0,0.0,0.0,2.6816,2.6832,2.6832,2.717,0.0,0.0,0.0,0.0,0.0,0.0,0.0,0.0,0.0,0.0,0.0,0.0,0.0,0.0,0.0,3.1268,3.2601,3.2699,3.3195,3.3935,3.4045,3.4552,3.5371,3.6248,3.656,3.6743,3.8193,3.8699,3.8663,3.8487,3.8017,3.7088,3.4688,3.4417,3.4857,3.413,3.3862,3.3807,3.3807,3.3807,3.399,3.4795,3.5653,0.0,3.743,3.8733,4.001,4.092,4.103,4.1213,4.2029,4.158,4.1342,4.2039,4.2249,4.258,4.3396,4.3506,4.3506,4.3506,4.3506,4.3506,4.3506,4.4158,4.4571,4.4571,4.5314,4.6122,4.6911,4.7058,4.7424,4.8131,4.8241,4.8296,4.8296,4.8296,4.8296,4.8296,4.8296,4.8296,4.8296,4.8296,4.8296,4.8296,4.8296,4.8296,4.8296,4.8296,4.8296,4.8296,4.8296,4.8296,4.8296,4.8296,4.8296,4.8296,2.4288,0.0,0.0,0.0,0.0,0.0,0.0,0.0,0.0,0.0,0.0,0.0,2.67,2.6996,0.0,0.0,2.7477,2.7673,2.7673,2.7746,0.0,0.0,0.0,0.0,0.0,0.0,0.0,0.0,0.0,0.0,0.0,0.0,0.0,0.0,0.0,3.2307,3.2644,3.3286,3.4039,3.4821,3.5532,3.6292,3.7099,3.7918,3.823,3.8267,3.8589,3.8699,3.8498,3.7202,3.7099,3.718,3.5341,3.4869,3.4961,3.4821,3.4314,3.3807,3.3807,3.3807,3.399,3.4795,3.5653,0.0,3.8138,3.8707,3.935,4.0802,4.0571,4.0377,4.1195,4.1205,4.115,4.1305,4.1874,4.258,4.3396,4.3506,4.3506,4.3506,4.3506,4.3506,4.3506,4.3635,4.3726,4.3726,4.4488,4.5287,4.6085,4.6755,4.7168,4.7333,4.7966,4.8296,4.8296,4.8296,4.8296,4.8296,4.8296,4.8296,4.8296,4.8296,4.8296,4.8296,4.8296,4.8296,4.8296,4.8296,4.8296,4.8296,4.8296,4.8296,4.8296,4.8296,4.8296,4.8296,2.5058,2.5346,0.0,0.0,0.0,0.0,0.0,0.0,0.0,2.67,2.6873,2.7075,2.728,2.7477,2.7597,0.0,0.0,0.0,0.0,0.0,0.0,0.0,0.0,0.0,0.0,0.0,0.0,0.0,0.0,0.0,0.0,0.0,0.0,0.0,0.0,3.2828,3.325,3.4057,3.4883,3.5653,3.5653,3.6156,3.6989,3.7797,3.8109,3.8146,3.856,3.8699,3.8524,3.732,3.718,0.0,3.6039,3.5353,3.4997,0.0,3.4424,3.3807,3.3807,0.0,0.0,3.4296,0.0,0.0,0.0,3.812,3.9038,4.0249,3.9863,3.9551,4.0351,4.0167,4.0021,4.0451,4.0836,4.1387,4.2194,4.2992,4.3506,4.3506,4.3506,4.3506,4.3506,4.3506,4.3506,4.3506,4.3864,4.4452,4.5259,4.5691,4.6094,4.6498,4.7287,4.7709,4.7709,4.8095,4.8296,4.8296,4.8296,4.8296,4.8296,4.8296,4.8296,4.8296,4.8296,4.8296,4.8296,4.8296,4.8296,4.8296,4.8296,4.8296,4.8296,4.8296,4.8296,4.8296,2.5803,2.6285,0.0,0.0,0.0,0.0,0.0,0.0,0.0,2.6816,2.717,2.7607,2.8078,2.8056,2.8134,2.845,0.0,0.0,0.0,0.0,0.0,0.0,0.0,3.139,0.0,0.0,0.0,0.0,0.0,0.0,0.0,0.0,0.0,0.0,3.2821,3.3286,3.4082,3.4729,3.5507,3.6248,3.5708,3.6002,3.6835,3.7485,3.7724,3.7823,3.8469,3.8699,3.8579,3.7768,3.7603,3.7558,3.6604,3.5819,0.0,0.0,0.0,0.0,0.0,0.0,0.0,0.0,0.0,3.6347,0.0,0.0,0.0,3.9533,3.9148,3.8909,3.9559,3.9148,3.8854,3.9357,3.9706,0.0,0.0,4.2029,0.0,4.3047,4.3047,4.3102,4.3249,4.3414,4.3506,4.3506,4.3506,4.3781,4.4425,4.4626,4.4993,4.5645,4.6443,4.6929,4.7094,4.7746,4.815,4.8296,4.8296,4.8296,4.8296,4.8296,4.8296,4.8296,4.8296,4.8296,4.8296,4.8296,4.8296,4.8296,4.8296,4.8296,4.8296,4.8296,4.8296,4.8296,2.6581,2.6649,2.67,0.0,0.0,0.0,0.0,0.0,2.6824,2.7186,2.7574,2.8116,2.8887,2.8595,2.8938,3.0431,3.0264,3.0381,3.1088,3.1266,0.0,0.0,0.0,0.0,3.139,0.0,0.0,0.0,0.0,0.0,0.0,0.0,0.0,0.0,3.366,3.4112,3.4869,3.4961,3.5507,3.634,3.6971,3.7705,3.845,3.8524,3.856,3.8579,3.8663,3.8699,3.8579,0.0,3.7962,3.8303,0.0,3.6229,3.6009,3.5224,0.0,0.0,0.0,0.0,0.0,0.0,3.558,0.0,0.0,0.0,3.8718,3.8817,0.0,3.8718,3.8817,0.0,0.0,3.787,3.8972,3.9688,3.9048,4.0369,4.1379,4.1379,4.1379,4.1654,4.2378,4.3084,4.3506,4.3506,4.3506,4.3543,4.3635,4.4305,4.4737,4.4828,4.5626,4.637,4.7094,4.7186,4.7599,4.8296,4.8296,4.8296,4.8296,4.8296,4.8296,4.8296,4.8296,4.8296,4.8296,4.8296,4.8296,4.8296,4.8296,4.8296,4.8296,4.8296,4.8296,4.8296,2.675,2.67,2.67,2.67,0.0,0.0,0.0,0.0,2.8222,2.8589,2.9226,3.0024,3.1014,3.0537,3.0804,3.2434,3.2407,3.2632,3.3433,3.3488,0.0,0.0,3.3318,3.2999,0.0,0.0,0.0,0.0,3.2786,0.0,0.0,0.0,0.0,0.0,3.4492,3.4976,3.5371,3.6785,3.7322,3.734,3.8611,3.9224,3.9405,3.9405,3.9698,4.0094,4.0094,4.0094,4.0039,0.0,3.9496,0.0,0.0,0.0,0.0,3.6413,0.0,0.0,0.0,0.0,0.0,0.0,0.0,0.0,3.7529,0.0,3.8699,0.0,0.0,0.0,0.0,0.0,0.0,0.0,3.8762,3.9093,0.0,0.0,4.0057,4.0985,0.0,0.0,4.2213,4.2176,4.2304,4.2763,4.28,4.28,4.28,4.3571,4.3993,4.3993,4.4782,4.536,4.57,4.6636,4.7278,4.7617,4.8076,4.8296,4.8296,4.8296,4.8296,4.8296,4.8296,4.8296,4.8296,4.8296,4.8296,4.8296,4.8296,4.8296,4.8296,4.8296,4.8296,4.8296,2.7083,2.7027,2.7027,2.7027,0.0,0.0,0.0,0.0,2.9679,2.9911,3.0593,3.1528,3.2783,3.221,3.2467,3.4321,3.4266,3.4479,3.5298,3.5133,3.5389,3.6266,3.4908,3.4406,3.4979,0.0,0.0,0.0,0.0,0.0,0.0,0.0,0.0,0.0,3.4901,3.5671,3.631,3.8293,3.911,3.9145,4.0316,4.0749,4.0669,4.0352,4.0589,4.1095,4.1095,4.1095,4.1095,4.1095,4.0718,0.0,4.0663,0.0,3.7356,0.0,0.0,0.0,3.6633,0.0,0.0,0.0,0.0,0.0,0.0,0.0,0.0,0.0,0.0,0.0,0.0,0.0,0.0,0.0,0.0,3.8608,0.0,3.856,3.9122,4.0296,0.0,0.0,0.0,4.1305,4.1342,4.1929,4.1966,4.2066,4.2286,4.2845,4.3267,4.3488,4.4066,4.448,4.47,4.6076,4.6874,4.7113,4.7911,4.8296,4.8296,4.8296,4.8296,4.8296,4.8296,4.8296,4.8296,4.8296,4.8296,4.8296,4.8296,4.8296,4.8296,4.8296,4.8296,4.8296,2.7869,2.7862,2.7862,2.7862,2.7876,2.8145,0.0,3.0069,3.0841,3.0855,3.1162,3.1983,3.3587,3.3048,3.3543,3.6009,3.5452,3.5334,3.6193,3.547,3.5389,3.6266,3.5452,3.4961,3.4997,3.4961,0.0,0.0,0.0,0.0,0.0,0.0,0.0,0.0,3.4651,3.6093,3.7984,3.8836,4.0277,4.1969,4.2019,4.2312,4.2582,0.0,4.1077,4.1095,4.1095,0.0,0.0,4.1095,4.1077,0.0,0.0,0.0,0.0,0.0,0.0,0.0,0.0,0.0,0.0,3.9431,0.0,0.0,0.0,0.0,3.8699,0.0,0.0,0.0,0.0,0.0,0.0,0.0,0.0,0.0,0.0,3.8212,3.8718,3.8773,3.946,0.0,0.0,4.0671,4.1122,4.114,4.114,4.1489,4.2268,4.2323,4.269,4.3469,4.3524,4.3901,4.47,4.5516,4.6333,4.7113,4.7911,4.8296,4.8296,4.8296,4.8296,4.8296,4.8296,4.8296,4.8296,4.8296,4.8296,4.8296,4.8296,4.8296,4.8296,4.8296,4.8296,4.8296,3.0162,3.0225,2.9881,2.8859,2.9355,3.0048,3.0544,3.1409,3.223,3.2748,3.3384,3.4406,3.6071,3.6016,3.6604,3.8513,3.8414,3.8377,3.866,3.8414,3.8138,3.79,3.7617,3.6956,3.5881,3.6376,3.5973,0.0,0.0,0.0,0.0,0.0,0.0,0.0,0.0,3.805,3.9477,4.0815,4.1781,4.2452,4.2777,4.2668,4.2303,0.0,4.2213,4.269,4.269,4.269,0.0,4.269,4.269,4.2635,4.2368,4.1552,4.0645,4.0369,3.9525,0.0,0.0,0.0,4.0139,4.1222,0.0,0.0,0.0,0.0,0.0,0.0,0.0,0.0,0.0,0.0,0.0,0.0,0.0,0.0,0.0,3.8524,3.8699,3.8699,3.8946,3.9313,0.0,0.0,3.9727,4.0267,4.0304,4.0671,4.147,4.2011,4.2671,4.3469,4.3506,4.3635,4.3901,4.4709,4.5507,4.6324,4.7122,4.7783,4.8296,4.8296,4.8296,4.8296,4.8296,4.8296,4.8296,4.8296,4.8296,4.8296,4.8296,4.8296,4.8296,4.8296,4.8296,4.8296,3.1353,3.1629,3.1429,3.0143,3.0806,3.1584,3.1793,3.2754,3.3647,3.4167,3.5195,3.6413,3.7779,3.819,3.888,4.0212,4.0322,4.0322,4.0322,4.0065,3.979,3.9562,3.9268,3.871,3.7784,3.7879,3.732,3.6066,0.0,3.631,0.0,0.0,0.0,0.0,0.0,3.9022,4.0215,4.1846,4.2798,4.3216,4.3399,4.3172,0.0,0.0,4.2825,4.3119,0.0,4.3605,4.3506,4.3506,4.3506,4.3506,4.3506,4.279,4.1956,4.1956,4.1222,4.0634,4.1672,4.1746,0.0,4.2525,4.1911,0.0,4.0818,0.0,3.9544,0.0,0.0,0.0,0.0,0.0,0.0,0.0,0.0,0.0,0.0,3.8699,3.8699,3.8699,3.8699,3.8909,3.9423,3.9001,3.8909,3.9423,3.946,3.9955,0.0,0.0,4.2378,4.3469,4.3506,4.3506,4.3506,4.4305,4.5104,4.5902,4.6718,4.7516,4.8296,4.8296,4.8296,4.8296,4.8296,4.8296,4.8296,4.8296,4.8296,4.8296,4.8296,4.8296,4.8296,4.8296,4.8296,4.8296,3.1525,3.2137,3.2424,3.1647,3.2155,3.2674,3.2711,3.4014,3.5034,3.5107,3.6541,3.787,3.867,3.9515,4.0322,4.1085,4.1195,4.1222,4.1183,4.0501,4.0425,4.1132,4.0496,4.0226,4.0427,3.9387,3.8596,3.8059,0.0,0.0,0.0,0.0,0.0,0.0,3.7981,3.9119,4.0291,4.1886,4.3221,4.428,4.399,4.3852,4.3776,4.3515,4.2962,4.2494,4.3599,4.3796,4.3513,4.3515,4.3506,4.3506,4.3506,4.3506,4.3506,4.3506,4.3506,4.3506,4.3506,4.2937,4.2543,4.3304,0.0,0.0,0.0,0.0,4.1095,0.0,0.0,0.0,0.0,0.0,0.0,0.0,0.0,0.0,0.0,0.0,3.8699,3.8699,3.8699,3.8699,3.8699,3.8699,3.8699,3.8699,3.8699,3.9378,0.0,0.0,4.1819,4.3396,4.3469,4.3506,4.3506,4.4268,4.503,4.5847,4.6663,4.7461,4.8241,4.8278,4.8296,4.8296,4.8296,4.8296,4.8296,4.8296,4.8296,4.8296,4.8296,4.8296,4.8296,4.8296,4.8296,4.8296,3.3183,3.3348,3.344,3.3226,3.3348,3.369,3.4289,3.4722,3.5445,3.6696,3.7753,3.8707,3.9496,4.0836,4.1772,4.1966,4.2543,4.2748,4.2388,4.2738,4.263,4.1884,4.2829,4.257,4.0815,4.0835,4.0198,3.8892,3.8342,0.0,3.8091,0.0,0.0,0.0,3.9426,4.0306,4.1392,4.1829,4.2881,4.435,4.4908,4.4628,4.3961,0.0,4.4196,4.3132,4.3767,4.394,4.3826,4.358,4.3506,4.3506,4.3506,4.3506,4.3506,4.3506,4.3506,4.3506,4.3506,4.3341,4.3231,4.3451,4.2745,4.2039,0.0,0.0,0.0,0.0,0.0,0.0,0.0,0.0,0.0,0.0,0.0,0.0,0.0,0.0,3.8699,3.8699,3.8699,3.8699,3.8699,3.8699,3.8699,3.8699,3.8699,3.9148,4.0157,0.0,0.0,4.258,4.3194,4.3506,4.3506,4.3708,4.4213,4.5012,4.5828,4.6627,4.7424,4.8021,4.8296,4.8296,4.8296,4.8296,4.8296,4.8296,4.8296,4.8296,4.8296,4.8296,4.8296,4.8296,4.8296,4.8296,3.3807,3.4075,3.4314,3.4314,3.4644,3.5055,3.5507,3.616,3.7085,3.8384,3.9674,4.0655,4.1117,4.2444,4.3304,4.3304,4.3724,4.3867,4.3606,4.3999,4.3946,4.3221,4.4108,4.4014,4.2765,4.2473,4.1806,4.0699,3.9998,0.0,3.9093,0.0,0.0,0.0,4.0139,4.0624,4.1277,4.2043,4.2912,4.3855,4.4686,4.4654,0.0,4.4796,4.4734,4.4314,4.4436,4.4264,4.3971,4.378,4.3612,4.3506,4.3506,4.3506,4.3506,4.3506,4.3506,4.3506,4.3506,4.3506,4.3506,4.3506,4.3157,4.2827,4.2827,4.247,4.2158,0.0,0.0,0.0,0.0,0.0,0.0,0.0,0.0,0.0,0.0,0.0,3.8699,3.8699,3.8699,3.8699,3.8699,3.8699,3.8699,3.8699,3.8699,3.9195,0.0,0.0,0.0,4.2268,4.2745,4.28,4.2451,4.3157,4.3726,4.4195,4.5351,4.6315,4.7131,4.7929,4.8296,4.8296,4.8296,4.8296,4.8296,4.8296,4.8296,4.8296,4.8296,4.8296,4.8296,4.8296,4.8296,4.8296,3.41,3.4699,3.5206,3.5316,3.5978,3.6628,3.6948,3.8007,3.9093,3.9994,4.1716,4.2907,4.3026,4.4081,4.48,4.492,4.4939,4.4902,4.4827,4.4814,4.4796,4.472,4.4726,4.4872,4.5169,4.3988,4.3111,4.2591,0.0,0.0,0.0,0.0,0.0,4.011,4.0377,4.0554,4.0781,4.2412,4.3162,4.3335,4.4143,4.4474,4.4474,4.4474,4.4936,4.5564,4.5263,4.4726,4.4139,4.4087,4.386,4.3573,4.3573,4.3539,4.3506,4.3506,4.3506,4.3506,4.3506,4.3506,4.3506,4.3506,4.3506,4.3506,4.3506,4.3506,4.3506,4.3506,4.2937,4.2415,0.0,0.0,0.0,0.0,0.0,0.0,0.0,0.0,3.8817,3.8707,3.8799,0.0,3.8707,3.8699,3.8699,3.8699,3.8699,0.0,0.0,0.0,0.0,4.1937,4.2194,4.1966,4.1268,0.0,4.3506,4.3524,4.514,4.6269,4.6966,4.7893,4.8296,4.8296,4.8296,4.8296,4.8296,4.8296,4.8296,4.8296,4.8296,4.8296,4.8296,4.8296,4.8296,4.8296,3.5716,3.5973,3.6285,3.6953,3.7364,3.8317,4.0358,3.9777,3.9635,4.1121,4.2413,4.3484,4.4201,4.5064,4.5889,4.6608,4.6664,4.6474,4.6028,4.6007,4.5827,4.5438,4.5429,4.5448,4.5508,4.4381,4.3408,0.0,0.0,0.0,0.0,0.0,0.0,4.011,4.0377,4.0896,4.1639,4.2662,0.0,4.4162,4.5032,4.5359,4.5359,4.5359,4.5475,4.5586,4.5527,4.5253,4.4859,4.4593,4.4245,4.3901,4.3901,4.3726,4.3506,4.3506,4.3506,4.3506,4.3506,4.3506,4.3506,4.3506,4.3506,4.3506,4.3506,4.3506,4.3506,4.3506,4.3396,4.3084,4.2415,0.0,0.0,0.0,0.0,0.0,0.0,0.0,3.9441,3.8773,3.9294,3.9423,3.8755,3.8699,3.8699,3.8699,3.8699,0.0,0.0,0.0,0.0,0.0,4.1607,0.0,0.0,0.0,4.3506,4.3524,4.514,4.5975,4.6159,4.7627,4.8296,4.8296,4.8296,4.8296,4.8296,4.8296,4.8296,4.8296,4.8296,4.8296,4.8296,4.8296,4.8296,4.8296,3.6418,3.6843,3.7318,3.7876,3.8783,3.9996,4.1616,4.209,4.263,4.3653,4.4417,4.5194,4.6067,4.6666,4.7165,4.7577,4.7615,4.7518,4.7244,4.7235,4.6944,4.6293,4.6278,4.6071,4.5614,4.5068,4.4145,4.2851,0.0,0.0,0.0,0.0,0.0,4.0336,4.0906,4.1412,4.1889,0.0,0.0,4.4378,4.5244,4.5594,4.5594,4.5594,4.5594,4.5594,4.5594,4.5499,4.5312,4.4971,4.4482,4.4009,4.4009,4.3764,4.3506,4.3506,4.3506,4.3506,4.3506,4.3506,4.3506,4.3506,4.3506,4.3506,4.3506,4.3506,4.3506,4.3506,4.3506,4.3249,4.2451,4.1662,0.0,0.0,0.0,0.0,0.0,0.0,3.9761,3.9368,3.9669,3.9761,3.935,3.8946,3.8699,3.8699,0.0,0.0,0.0,0.0,0.0,0.0,0.0,0.0,0.0,0.0,0.0,4.2286,4.4727,4.5902,4.5957,4.7572,4.8296,4.8296,4.8296,4.8296,4.8296,4.8296,4.8296,4.8296,4.8296,4.8296,4.8296,4.8296,4.8296,4.8296,3.781,3.8215,3.8665,3.9104,4.0346,4.1578,4.2595,4.4301,4.559,4.5868,4.6351,4.7019,4.789,4.8221,4.8452,4.8644,4.8644,4.8567,4.8394,4.8375,4.8005,4.7197,4.6985,4.6586,4.5898,4.5686,4.4859,0.0,0.0,0.0,0.0,0.0,0.0,0.0,0.0,0.0,0.0,0.0,4.4417,4.4648,4.5321,4.5594,4.5594,4.5594,4.5594,4.5594,4.5594,4.5594,4.5564,4.5302,4.4726,4.4124,4.4124,4.3844,4.3506,4.3506,4.3506,4.3506,4.3506,4.3506,4.3506,4.3506,4.3506,4.3506,4.3506,4.3506,4.3506,4.3506,4.3506,4.3304,4.2671,4.2415,0.0,0.0,0.0,0.0,0.0,0.0,4.0084,3.9926,4.0055,4.0084,3.9926,3.9166,3.8699,3.8699,0.0,0.0,3.9853,0.0,0.0,0.0,0.0,4.0608,4.0157,0.0,4.2782,4.1902,4.4617,4.5993,4.6195,4.7636,4.8296,4.8296,4.8296,4.8296,4.8296,4.8296,4.8296,4.8296,4.8296,4.8296,4.8296,4.8296,4.8296,4.8296,4.1448,4.1071,4.0857,4.1618,4.2139,4.2983,4.4582,4.5912,4.6618,4.6309,4.7224,4.8265,4.913,4.9269,4.961,5.038,5.0457,5.0111,4.9336,4.9279,4.8894,4.8024,4.7293,4.6851,4.6774,4.5994,4.5148,0.0,0.0,4.2604,0.0,0.0,0.0,0.0,0.0,0.0,0.0,4.422,4.4763,4.5498,4.5575,4.5594,4.5594,4.5594,4.5594,4.5594,4.5594,4.5594,4.5609,4.5568,4.5094,4.454,4.454,4.4057,4.3506,4.3506,4.3506,4.3506,4.3506,4.3506,4.3506,4.3506,4.3506,4.3506,4.3506,4.3506,4.3506,4.3506,4.3506,4.3469,4.3396,4.279,4.2047,0.0,0.0,0.0,0.0,0.0,4.0718,4.0,4.0534,4.07,3.9963,3.9166,3.8699,3.8699,3.8699,0.0,0.0,0.0,0.0,3.9974,0.0,4.0322,4.0975,4.1929,4.3067,4.4388,4.5406,4.6278,4.7021,4.7893,4.8296,4.8296,4.8296,4.8296,4.8296,4.8296,4.8296,4.8296,4.8296,4.8296,4.8296,4.8296,4.8296,4.8296,4.2232,4.2566,0.0,0.0,0.0,0.0,0.0,4.7444,4.8342,4.8186,4.8587,4.9202,5.0091,5.0188,5.0322,5.0668,5.0707,5.0553,5.0207,5.0188,4.9784,4.8913,4.8567,4.7928,4.6928,4.6567,4.5701,0.0,0.0,0.0,0.0,0.0,0.0,0.0,0.0,4.3662,4.4335,4.4859,4.5282,4.5594,4.5594,4.5594,4.5594,4.5594,4.5594,4.5594,4.5594,4.5594,4.5594,4.5594,4.5297,4.4902,4.4902,4.4394,4.3804,4.3804,4.3662,4.3506,4.3506,4.3506,4.3506,4.3506,4.3506,4.3506,4.3506,4.3506,4.3506,4.3506,4.3506,4.3506,4.3506,4.3231,4.2772,0.0,0.0,0.0,0.0,0.0,0.0,4.0055,0.0,4.0967,4.0645,3.9452,3.8909,3.9386,0.0,0.0,0.0,0.0,0.0,4.0589,0.0,4.1012,4.1801,4.2139,4.2873,4.3993,4.5278,4.6315,4.7131,4.7929,4.8296,4.8296,4.8296,4.8296,4.8296,4.8296,4.8296,4.8296,4.8296,4.8296,4.8296,4.8296,4.8296,4.8296,4.3694,0.0,4.4849,0.0,4.6274,4.7255,4.7255,4.8682,4.9784,4.9784,4.9784,5.0014,5.063,5.0707,5.0707,5.0707,5.0707,5.0707,5.0707,5.0707,5.0438,4.9803,4.9534,0.0,4.7658,4.7158,4.6293,4.5066,4.397,0.0,0.0,0.0,0.0,0.0,4.4047,4.4436,4.4724,4.534,4.5594,4.5594,4.5594,4.5594,4.5594,4.5594,4.5594,4.5594,4.5594,4.5594,4.5594,4.5594,4.5438,4.5227,4.5123,4.467,4.4168,4.4168,4.3927,4.3646,4.3646,4.3572,4.3506,4.3506,4.3506,4.3506,4.3506,4.3506,4.3506,4.3506,4.3506,4.3506,4.3506,4.3506,4.3231,4.2433,0.0,0.0,0.0,4.1295,0.0,4.0092,4.0608,4.1095,4.1095,3.9856,3.9294,3.9853,0.0,0.0,0.0,0.0,0.0,0.0,0.0,0.0,0.0,4.1956,4.2708,4.4222,4.5351,4.6452,4.7471,4.8039,4.8296,4.8296,4.8296,4.8296,4.8296,4.8296,4.8296,4.8296,4.8296,4.8296,4.8296,4.8296,4.8296,4.8296,4.6673,4.6865,4.6865,4.687,4.7543,4.8082,4.8082,4.9548,5.0688,5.0688,5.0688,5.0688,5.0707,5.0707,5.0707,5.0707,5.0707,5.0707,5.0707,5.0707,5.0707,0.0,0.0,4.9394,4.9375,4.7755,4.6889,4.687,0.0,0.0,4.4259,0.0,4.3508,4.4297,4.4297,4.4782,4.5575,4.5594,4.5594,4.5594,4.5594,4.5594,4.5594,4.5594,4.5594,4.5594,4.5594,4.5594,4.5594,4.5594,4.559,4.5546,4.5206,4.4866,4.4586,4.4586,4.4304,4.3982,4.3982,4.374,4.3506,4.3506,4.3506,4.3506,4.3506,4.3506,4.3506,4.3506,4.3506,4.3506,4.3506,4.3506,4.3231,4.2433,0.0,0.0,0.0,4.1295,0.0,4.0092,4.0608,4.1095,4.1095,4.0359,0.0,0.0,0.0,0.0,0.0,0.0,0.0,3.989,3.9148,0.0,4.1095,4.1122,4.2718,4.5865,4.5883,4.6746,4.8296,4.8296,4.8296,4.8296,4.8296,4.8296,4.8296,4.8296,4.8296,4.8296,4.8296,4.8296,4.8296,4.8296,4.8296,4.8296,4.7562,4.8202,4.8606,4.8606,4.9317,4.988,4.988,5.0341,5.0707,5.0707,5.0707,5.0707,5.0707,5.0707,5.0707,0.0,5.0707,5.0707,0.0,5.0707,5.0707,5.0707,5.0438,5.0014,4.9413,4.8875,4.8317,4.7716,0.0,0.0,0.0,4.4648,4.4936,4.5186,4.5186,4.534,4.5594,4.5594,4.5594,4.5594,4.5594,4.5594,4.5594,4.5594,4.5594,4.5594,4.5594,4.5594,4.5594,4.5594,4.5594,4.5581,4.5462,4.5217,4.4937,4.4937,4.4688,4.4357,4.4065,4.3917,4.3788,4.3565,4.3506,4.3506,4.3506,4.3506,4.3506,4.3506,4.3506,4.3506,4.3506,4.3506,4.3231,4.2433,4.2772,0.0,0.0,0.0,4.1919,4.0846,4.093,4.1323,4.1856,4.1195,0.0,0.0,0.0,0.0,0.0,0.0,0.0,0.0,4.1295,0.0,4.2727,4.2745,4.3791,4.5902,4.6461,4.7269,4.8296,4.8296,4.8296,4.8296,4.8296,4.8296,4.8296,4.8296,4.8296,4.8296,4.8296,4.8296,4.8296,4.8296,4.8296,4.8296,4.849,4.9298,4.9899,4.9899,5.0341,5.0707,5.0707,5.0707,5.0707,5.0707,5.0707,5.0707,5.0707,5.0707,0.0,5.0707,5.0707,5.0707,5.0707,5.0707,5.0707,5.0707,5.0707,5.0457,4.9899,4.9572,0.0,4.8586,4.7201,4.6259,4.574,4.597,4.609,4.6071,4.5744,4.5594,4.5594,4.5594,4.5594,4.5594,4.5594,4.5594,4.5594,4.5594,4.5594,4.5594,4.5594,4.5594,4.5594,4.5594,4.5594,4.5594,4.5594,4.5467,4.5297,4.5297,4.5058,4.4732,4.4488,4.4219,4.3948,4.3742,4.3589,4.3506,4.3506,4.3506,4.3506,4.3506,4.3506,4.3506,4.3506,4.3506,4.3341,4.2818,4.3176,4.3047,4.1727,0.0,4.2341,0.0,0.0,0.0,0.0,4.1856,4.1544,0.0,0.0,0.0,0.0,0.0,0.0,4.1819,4.1856,0.0,4.3047,4.3341,4.4314,4.5902,4.7012,4.7819,4.8296,4.8296,4.8296,4.8296,4.8296,4.8296,4.8296,4.8296,4.8296,4.8296,4.8296,4.8296,4.8296,4.8296,4.8296,4.8296,4.949,5.0149,5.0707,0.0,5.0707,0.0,5.0707,5.0707,5.0707,5.0707,5.0707,5.0707,5.0707,5.0707,5.0707,5.0707,0.0,0.0,0.0,5.0707,5.0707,5.0707,5.0707,5.0707,5.0707,4.9918,4.9452,4.9394,4.8586,4.8159,4.8082,4.7331,4.6985,4.6947,4.6148,4.5763,4.5763,4.5763,4.5763,4.5763,4.5763,4.5744,4.5686,4.5686,4.5648,4.5594,4.5594,4.5594,4.5594,4.5594,4.5594,4.5594,4.5594,4.5594,4.5594,4.5594,4.539,4.5123,4.5102,4.4606,4.4065,4.4061,4.3804,4.3582,4.3582,4.3538,4.3531,4.3531,4.3513,4.3506,4.3506,4.3506,4.3506,4.3506,4.3506,4.3231,4.2415,0.0,4.2855,0.0,0.0,0.0,0.0,4.2378,4.2359,0.0,0.0,0.0,0.0,0.0,4.126,4.126,4.126,4.1654,4.247,4.3267,4.4479,4.6085,4.759,4.8296,4.8296,4.8296,4.8296,4.8296,4.8296,4.8296,4.8296,4.8296,4.8296,4.8296,4.8296,4.8296,4.8296,4.8296,4.8296,4.8296,0.0,0.0,5.0707,5.0707,5.0707,5.0707,5.0707,5.0707,5.0707,5.0707,5.0707,5.0707,5.0707,5.0707,5.0707,5.0707,5.0707,5.0707,5.0707,5.0707,5.0707,5.0707,5.0707,5.0707,5.0707,5.0495,5.0072,4.9394,4.9183,4.8759,4.8101,4.7908,4.7812,4.7812,4.7605,4.7509,4.7509,4.7509,4.7509,4.7509,4.7509,4.7144,4.6581,4.6581,4.6182,4.5594,4.5594,4.5594,4.5594,4.5594,4.5594,4.5594,4.5594,4.5594,4.5594,4.5594,4.5531,4.5424,4.5175,4.4971,4.4781,4.4527,4.4399,4.4337,4.4337,4.4099,4.3889,4.3889,4.3687,4.3506,4.3506,4.3506,4.3506,4.3506,4.3506,4.3231,4.2415,4.2451,0.0,0.0,4.2176,4.2543,4.3157,4.3231,4.2955,0.0,0.0,0.0,0.0,4.2378,4.2937,4.2937,4.2937,4.3314,4.4113,4.4929,4.614,4.7737,4.8113,4.8296,4.8296,4.8296,4.8296,4.8296,4.8296,4.8296,4.8296,4.8296,4.8296,4.8296,4.8296,4.8296,4.8296,4.8296,4.8296,4.8296,5.0707,5.0707,5.0707,5.0707,5.0707,5.0707,5.0707,5.0707,5.0707,5.0707,5.0707,5.0707,5.0707,5.0707,5.0707,5.0707,5.0707,5.0707,5.0707,5.0707,5.0707,5.0707,5.0707,5.0707,5.0707,5.0707,5.0476,4.9995,4.9995,4.9745,4.9279,4.8875,4.8682,4.8682,4.8274,4.8101,4.8101,4.8101,4.8101,4.8101,4.8101,4.7832,4.7447,4.7447,4.7144,4.674,4.674,4.6509,4.6182,4.6182,4.5936,4.5594,4.5594,4.5594,4.5594,4.5594,4.5594,4.5564,4.5386,4.5217,4.5024,4.4676,4.4593,4.4593,4.4593,4.444,4.4269,4.4269,4.3971,4.3734,4.3734,4.3605,4.3506,4.3506,4.3194,4.28,4.2359,4.2304,0.0,4.2304,4.2616,4.3029,4.3451,4.3637,4.3549,4.3116,4.3287,0.0,4.2467,4.291,4.3117,4.2955,4.3663,4.4268,4.47,4.5856,4.7067,4.8296,4.8296,4.8296,4.8296,4.8296,4.8296,4.8296,4.8296,4.8296,4.8296,4.8296,4.8296,4.8296,4.8296,4.8296,4.8296,4.8296,4.8296,4.8296,5.0726,5.0717,5.0707,5.0707,5.0707,5.0707,5.0707,5.0707,5.0707,5.0707,5.0707,5.0707,5.0707,5.0707,5.0707,5.0707,5.0707,5.0707,5.0707,5.0707,5.0707,5.0707,5.0707,5.0707,5.0707,5.0707,5.0707,5.0707,5.0707,5.0707,5.0688,4.9938,4.961,4.9548,4.8817,4.849,4.849,4.849,4.849,4.849,4.849,4.8413,4.8298,4.8298,4.8216,4.8101,4.8101,4.7658,4.7081,4.7081,4.6509,4.5802,4.5802,4.5706,4.5594,4.5594,4.5594,4.5594,4.5594,4.54,4.5107,4.4812,4.4745,4.4745,4.4745,4.4707,4.4688,4.4688,4.4359,4.408,4.408,4.3804,4.3535,4.3406,4.2777,4.2268,4.2139,0.0,4.2304,4.2304,4.3043,4.3572,4.3572,4.3889,4.408,4.408,4.3724,4.367,4.4072,4.3568,4.3111,4.276,4.4028,4.4828,4.5067,4.6535,4.7617,4.8296,4.8296,4.8296,4.8296,4.8296,4.8296,4.8296,4.8296,4.8296,4.8296,4.8296,4.8296,4.8296,4.8296,4.8296,4.8296,4.8296,4.8296,4.8296,5.0863,5.0773,5.0707,5.0707,5.0707,5.0707,5.0707,5.0707,5.0707,5.0707,5.0707,5.0707,5.0707,5.0707,5.0707,5.0707,5.0707,5.0707,5.0707,5.0707,5.0707,5.0707,5.0707,5.0707,5.0707,5.0707,5.0707,5.0707,5.0707,5.0707,5.0707,5.0553,5.0495,5.0495,5.0361,5.0303,5.0303,5.0303,5.0303,5.0303,5.0303,4.9861,4.9202,4.9202,4.874,4.8101,4.8101,4.8024,4.7908,4.7908,4.737,4.6697,4.6697,4.6182,4.5594,4.5594,4.5594,4.5594,4.5594,4.5564,4.5508,4.5452,4.5443,4.5443,4.5443,4.5227,4.5011,4.5011,4.4745,4.4507,4.4507,4.4194,4.3701,4.301,4.2577,4.2066,4.1379,0.0,4.2304,4.2304,4.3259,4.3917,4.3917,4.4287,4.4507,4.4507,4.4447,4.4429,4.4497,4.5024,4.5183,4.4834,4.4742,4.536,4.6709,4.7654,4.8186,4.8296,4.8296,4.8296,4.8296,4.8296,4.8296,4.8296,4.8296,4.8296,4.8296,4.8296,4.8296,4.8296,4.8296,4.8296,4.8296,4.8296,4.8296,4.8296,5.1013,5.0908,5.0805,5.0805,5.0758,5.0707,5.0707,5.0707,5.0707,5.0707,5.0707,5.0707,5.0707,5.0707,5.0707,5.0707,5.0707,5.0707,5.0707,5.0707,5.0707,5.0707,5.0707,5.0707,5.0707,5.0707,5.0707,5.0707,5.0707,5.0707,5.0707,5.0707,5.0707,5.0707,5.0707,5.0707,5.0707,5.0707,5.0707,5.0707,5.0707,5.0457,5.0091,5.0091,4.9861,4.949,4.949,4.9202,4.8798,4.8798,4.824,4.7543,4.7543,4.7278,4.6855,4.6432,4.5975,4.5594,4.5594,4.5594,4.5594,4.5594,4.5594,4.5594,4.5594,4.5485,4.5362,4.5362,4.5102,4.4872,4.4872,4.4561,4.4048,4.3204,4.2934,0.0,0.0,4.2062,4.2577,4.2577,4.3418,4.4099,4.4297,4.4638,4.4872,4.4872,4.5466,4.5747,4.5541,4.6301,4.6716,4.6605,4.6207,4.6562,4.7728,4.8113,4.8296,4.8296,4.8296,4.8296,4.8296,4.8296,4.8296,4.8296,4.8296,4.8296,4.8296,4.8296,4.8296,4.8296,4.8296,4.8296,4.8296,4.8296,4.8296,4.8296,5.1116,5.1028,5.0939,5.0916,5.0818,5.074,5.0697,5.0707,5.0707,5.0707,5.0707,5.0707,5.0707,5.0707,5.0707,5.0707,5.0707,5.0707,5.0707,5.0707,5.0707,5.0707,5.0707,5.0707,5.0707,5.0707,5.0707,5.0707,5.0707,5.0707,5.0707,5.0707,5.0707,5.0707,5.0707,5.0707,5.0707,5.0707,5.0707,5.0707,5.0707,5.0707,5.0707,5.0707,5.0707,5.0707,5.0707,5.0265,4.9707,4.9707,4.9125,4.8394,4.8394,4.8255,4.7985,4.7351,4.6701,4.609,4.571,4.5594,4.5594,4.5594,4.5594,4.5594,4.5594,4.5594,4.5594,4.5594,4.54,4.5217,4.5217,4.4943,4.4442,4.3579,0.0,0.0,0.0,4.252,4.2983,4.3189,4.3833,4.438,4.4682,4.5201,4.5522,4.5522,4.6556,4.7137,4.7035,4.7646,4.8055,4.8114,4.7645,4.7691,4.8296,4.8296,4.8296,4.8296,4.8296,4.8296,4.8296,4.8296,4.8296,4.8296,4.8296,4.8296,4.8296,4.8296,4.8296,4.8296,4.8296,4.8296,4.8296,4.8296,4.8296,4.8296,5.1195,5.1123,5.1056,5.0921,5.0897,5.0844,5.0726,5.0707,5.0707,5.0707,5.0707,5.0707,5.0707,5.0707,5.0707,5.0707,5.0707,5.0707,5.0707,5.0707,5.0707,5.0707,5.0707,5.0707,5.0707,5.0707,5.0707,5.0707,5.0707,5.0707,5.0707,5.0707,5.0707,5.0707,5.0707,5.0707,5.0707,5.0707,5.0707,5.0707,5.0707,5.0707,5.0707,5.0707,5.0707,5.0707,5.0707,5.0649,5.0592,5.0592,5.0034,4.9298,4.9298,4.8759,4.8082,4.8024,4.7966,4.7586,4.6013,4.5594,4.5594,4.5594,4.5594,4.5594,4.5594,4.5594,4.5594,4.5594,4.5577,4.5568,4.5568,4.5297,4.4808,4.4001,0.0,0.0,4.3196,4.3228,4.3567,4.4365,4.4786,4.5041,4.5063,4.6104,4.6766,4.6766,4.7534,4.8346,4.912,4.9236,4.9302,4.9361,4.8627,4.8241,4.8296,4.8296,4.8296,4.8296,4.8296,4.8296,4.8296,4.8296,4.8296,4.8296,4.8296,4.8296,4.8296,4.8296,4.8296,4.8296,4.8296,4.8296,4.8296,4.8296,4.8296,4.8296,5.1321,5.1248,5.1127,5.1036,5.0966,5.084,5.0726,5.0707,5.0707,5.0707,5.0707,5.0707,5.0707,5.0707,5.0707,5.0707,5.0707,5.0707,5.0707,5.0707,5.0707,5.0707,5.0707,5.0707,5.0707,5.0707,5.0707,5.0707,5.0707,5.0707,5.0707,5.0707,5.0707,5.0707,5.0707,5.0707,5.0707,5.0707,5.0707,5.0707,5.0707,5.0707,5.0707,5.0707,5.0707,5.0707,5.0707,5.0707,5.0707,5.0707,5.0476,5.0207,5.0207,4.9976,4.961,4.9067,4.8529,4.7966,4.7317,4.6797,4.6278,4.5744,4.5594,4.5594,4.5594,4.5594,4.5594,4.5594,4.5594,4.5594,4.5594,4.5499,4.5127,4.4292,0.0,4.4468,4.3715,4.4072,4.4534,4.487,4.5455,4.5935,4.6196,4.7088,4.7639,4.7639,4.8432,4.9048,4.9375,4.9676,4.9725,4.9511,4.8963,4.855,4.8306,4.8296,4.8296,4.8296,4.8296,4.8296,4.8296,4.8296,4.8296,4.8296,4.8296,4.8296,4.8296,4.8296,4.8296,4.8296,4.8296,4.8296,4.8296,4.8296,4.8296,4.8296,5.1406,5.1322,5.1231,5.1148,5.1042,5.0914,5.0782,5.0721,5.0707,5.0707,5.0707,5.0707,5.0707,5.0707,5.0707,5.0707,5.0707,5.0707,5.0707,5.0707,5.0707,5.0707,5.0707,5.0707,5.0707,5.0707,5.0707,5.0707,5.0707,5.0707,5.0707,5.0707,5.0707,5.0707,5.0707,5.0707,5.0707,5.0707,5.0707,5.0707,5.0707,5.0707,5.0707,5.0707,5.0707,5.0707,5.0707,5.0707,5.0707,5.0707,5.0707,5.0707,5.0707,5.0707,5.0572,4.9976,4.9375,4.8856,4.8586,4.8105,4.749,4.661,4.6206,4.6013,4.6013,4.5802,4.5594,4.5594,4.5594,4.5594,4.5594,4.5594,4.5398,4.4801,4.5205,4.5302,4.4484,4.4884,4.5367,4.563,4.6152,4.6702,4.7241,4.8024,4.8509,4.8509,4.9317,4.9803,4.9803,4.9864,4.9787,4.9504,4.8988,4.8577,4.8306,4.8296,4.8296,4.8296,4.8296,4.8296,4.8296,4.8296,4.8296,4.8296,4.8296,4.8296,4.8296,4.8296,4.8296,4.8296,4.8296,4.8296,4.8296,4.8296,4.8296,4.8296,5.1406,5.1406,5.1365,5.1213,5.1133,5.1067,5.0918,5.0791,5.0693,5.0707,5.0707,5.0707,5.0707,5.0707,5.0707,5.0707,5.0707,5.0707,5.0707,5.0707,5.0707,5.0707,5.0707,5.0707,5.0707,5.0707,5.0707,5.0707,5.0707,5.0707,5.0707,5.0707,5.0707,5.0707,5.0707,5.0707,5.0707,5.0707,5.0707,5.0707,5.0707,5.0707,5.0707,5.0707,5.0707,5.0707,5.0707,5.0707,5.0707,5.0707,5.0707,5.0707,5.0707,5.0707,5.0707,5.0707,5.0707,5.0515,4.9649,4.9413,4.9202,4.8312,4.7505,4.6908,4.6908,4.624,4.5614,4.5614,4.5614,4.5614,4.5594,4.5594,4.5594,4.5594,4.5594,4.5594,4.5614,4.5614,4.5936,4.6812,4.6928,4.7235,4.8024,4.8894,4.9413,4.9413,5.0207,5.0707,5.0707,4.9936,4.9496,4.9496,4.8719,4.8306,4.8296,4.8296,4.8296,4.8296,4.8296,4.8296,4.8296,4.8296,4.8296,4.8296,4.8296,4.8296,4.8296,4.8296,4.8296,4.8296,4.8296,4.8296,4.8296,4.8296,4.8296,4.8296,5.1406,5.1406,5.1365,5.1213,5.1185,5.1113,5.0939,5.0879,5.0801,5.0712,5.0707,5.0707,5.0707,5.0707,5.0707,5.0707,5.0707,5.0707,5.0707,5.0707,5.0707,5.0707,5.0707,5.0707,5.0707,5.0707,5.0707,5.0707,5.0707,5.0707,5.0707,5.0707,5.0707,5.0707,5.0707,5.0707,5.0707,5.0707,5.0707,5.0707,5.0707,5.0707,5.0707,5.0707,5.0707,5.0707,5.0707,5.0707,5.0707,5.0707,5.0707,5.0707,5.0707,5.0707,5.0707,5.0707,5.0707,5.063,5.038,5.0303,4.9957,4.8471,4.7928,4.7735,4.7735,4.7548,4.7182,4.6624,4.6509,4.6336,4.5706,4.5594,4.5594,4.5594,4.5594,4.5802,4.6432,4.6509,4.6817,4.7639,4.8279,4.8759,4.899,4.9803,5.0303,5.0303,5.0553,5.0707,5.0707,5.0195,4.9787,4.9504,4.8996,4.8586,4.8306,4.8296,4.8296,4.8296,4.8296,4.8296,4.8296,4.8296,4.8296,4.8296,4.8296,4.8296,4.8296,4.8296,4.8296,4.8296,4.8296,4.8296,4.8296,4.8296,4.8296,4.8296,5.1406,5.1406,5.1366,5.1295,5.1237,5.1141,5.0999,5.0935,5.0855,5.0721,5.0707,5.0707,5.0707,5.0707,5.0707,5.0707,5.0707,5.0707,5.0707,5.0707,5.0707,5.0707,5.0707,5.0707,5.0707,5.0707,5.0707,5.0707,5.0707,5.0707,5.0707,5.0707,5.0707,5.0707,5.0707,5.0707,5.0707,5.0707,5.0707,5.0707,5.0707,5.0707,5.0707,5.0707,5.0707,5.0707,5.0707,5.0707,5.0707,5.0707,5.0707,5.0707,5.0707,5.0707,5.0707,5.0707,5.0707,5.0707,5.0707,5.0707,5.0457,4.9394,4.8875,4.8606,4.8606,4.8355,4.7966,4.7466,4.737,4.7216,4.6682,4.659,4.659,4.659,4.659,4.6778,4.7293,4.737,4.7678,4.8529,4.9086,4.9534,4.988,5.038,5.0707,5.0707,5.0707,5.0707,5.0707,5.0171,4.9753,4.9504,4.8955,4.8559,4.8306,4.8296,4.8296,4.8296,4.8296,4.8296,4.8296,4.8296,4.8296,4.8296,4.8296,4.8296,4.8296,4.8296,4.8296,4.8296,4.8296,4.8296,4.8296,4.8296,4.8296,4.8296,5.1406,5.1406,5.1406,5.1406,5.1296,5.1188,5.1129,5.1007,5.0863,5.0735,5.0702,5.0707,5.0707,5.0707,5.0707,5.0707,5.0707,5.0707,5.0707,5.0707,5.0707,5.0707,5.0707,5.0707,5.0707,5.0707,5.0707,5.0707,5.0707,5.0707,5.0707,5.0707,5.0707,5.0707,5.0707,5.0707,5.0707,5.0707,5.0707,5.0707,5.0707,5.0707,5.0707,5.0707,5.0707,5.0707,5.0707,5.0707,5.0707,5.0707,5.0707,5.0707,5.0707,5.0707,5.0707,5.0707,5.0707,5.0707,5.0707,5.0707,5.0707,5.0707,5.0091,4.951,4.951,4.8894,4.8312,4.8235,4.8216,4.8197,4.8101,4.8101,4.8101,4.8101,4.8101,4.812,4.8216,4.8216,4.8548,4.9413,4.951,4.9822,5.0611,5.0707,5.0707,5.0707,5.0707,5.0707,5.0707,4.9936,4.9496,4.9496,4.8719,4.8296,4.8296,4.8296,4.8296,4.8296,4.8296,4.8296,4.8296,4.8296,4.8296,4.8296,4.8296,4.8296,4.8296,4.8296,4.8296,4.8296,4.8296,4.8296,4.8296,4.8296,4.8296,4.8296,5.1406,5.1406,5.1406,5.1406,5.1386,5.1319,5.1191,5.1114,5.1013,5.0871,5.077,5.0707,5.0707,5.0707,5.0707,5.0707,5.0707,5.0707,5.0707,5.0707,5.0707,5.0707,5.0707,5.0707,5.0707,5.0707,5.0707,5.0707,5.0707,5.0707,5.0707,5.0707,5.0707,5.0707,5.0707,5.0707,5.0707,5.0707,5.0707,5.0707,5.0707,5.0707,5.0707,5.0707,5.0707,5.0707,5.0707,5.0707,5.0707,5.0707,5.0707,5.0707,5.0707,5.0707,5.0707,5.0707,5.0707,5.0707,5.0707,5.0707,5.0707,5.0707,5.0553,5.0418,5.0418,5.0265,4.9938,4.926,4.9125,4.8913,4.8235,4.8101,4.8101,4.8101,4.8101,4.8336,4.9029,4.9125,4.9433,5.0303,5.0418,5.0495,5.0668,5.0707,5.0707,5.0707,5.0707,5.0707,5.0707,4.9936,4.9496,4.9496,4.8719,4.8296,4.8296,4.8296,4.8296,4.8296,4.8296,4.8296,4.8296,4.8296,4.8296,4.8296,4.8296,4.8296,4.8296,4.8296,4.8296,4.8296,4.8296,4.8296,4.8296,4.8296,4.8296,4.8296,5.1406,5.1406,5.1406,5.1406,5.1406,5.1345,5.1211,5.1169,5.1118,5.1019,5.0939,5.0879,5.0797,5.0804,5.0779,5.0702,5.0707,5.0707,5.0707,5.0707,5.0707,5.0707,5.0707,5.0707,5.0707,5.0707,5.0707,5.0707,5.0707,5.0707,5.0707,5.0707,5.0707,5.0707,5.0707,5.0707,5.0707,5.0707,5.0707,5.0707,5.0707,5.0707,5.0707,5.0707,5.0707,5.0707,5.0707,5.0707,5.0707,5.0707,5.0707,5.0707,5.0707,5.0707,5.0707,5.0707,5.0707,5.0707,5.0707,5.0707,5.0707,5.0707,5.0707,5.0707,5.0707,5.0707,5.0572,5.0111,5.0014,4.988,4.9413,4.9336,4.9336,4.9336,4.9336,4.949,4.9957,5.0014,5.0188,5.0649,5.0707,5.0707,5.0707,5.0707,5.0707,5.0707,5.0707,5.0707,5.0707,4.9936,4.9496,4.9496,4.8719,4.8296,4.8296,4.8296,4.8296,4.8296,4.8296,4.8296,4.8296,4.8296,4.8296,4.8296,4.8296,4.8296,4.8296,4.8296,4.8296,4.8296,4.8296,4.8296,4.8296,4.8296,4.8296,4.8296,5.1406,5.1406,5.1406,5.1406,5.1406,5.1365,5.1243,5.1209,5.1181,5.1118,5.1106,5.1059,5.0911,5.0879,5.0826,5.0707,5.0707,5.0707,5.0707,5.0707,5.0707,5.0707,5.0707,5.0707,5.0707,5.0707,5.0707,5.0707,5.0707,5.0707,5.0707,5.0707,5.0707,5.0707,5.0707,5.0707,5.0707,5.0707,5.0707,5.0707,5.0707,5.0707,5.0707,5.0707,5.0707,5.0707,5.0707,5.0707,5.0707,5.0707,5.0707,5.0707,5.0707,5.0707,5.0707,5.0707,5.0707,5.0707,5.0707,5.0707,5.0707,5.0707,5.0707,5.0707,5.0707,5.0707,5.0707,5.0707,5.0707,5.0707,5.0707,5.0707,5.0707,5.0707,5.0707,5.0707,5.0707,5.0707,5.0707,5.0707,5.0707,5.0707,5.0707,5.0707,5.0707,5.0707,5.0707,5.0707,5.0707,4.9936,4.9496,4.9496,4.8719,4.8296,4.8296,4.8296,4.8296,4.8296,4.8296,4.8296,4.8296,4.8296,4.8296,4.8296,4.8296,4.8296,4.8296,4.8296,4.8296,4.8296,4.8296,4.8296,4.8296,4.8296,4.8296,4.8296,5.1406,5.1406,5.1406,5.1406,5.1406,5.1387,5.1386,5.1271,5.12,5.119,5.1139,5.1059,5.0911,5.0804,5.0726,5.0693,5.0707,5.0707,5.0707,5.0707,5.0707,5.0707,5.0707,5.0707,5.0707,5.0707,5.0707,5.0707,5.0707,5.0707,5.0707,5.0707,5.0707,5.0707,5.0707,5.0707,5.0707,5.0707,5.0707,5.0707,5.0707,5.0707,5.0707,5.0707,5.0707,5.0707,5.0707,5.0707,5.0707,5.0707,5.0707,5.0707,5.0707,5.0707,5.0707,5.0707,5.0707,5.0707,5.0707,5.0707,5.0707,5.0707,5.0707,5.0707,5.0707,5.0707,5.0707,5.0707,5.0707,5.0707,5.0707,5.0707,5.0707,5.0707,5.0707,5.0707,5.0707,5.0707,5.0707,5.0707,5.0707,5.0707,5.0707,5.0707,5.0707,5.0707,5.0707,5.0707,5.0707,4.9936,4.9496,4.9496,4.8719,4.8296,4.8296,4.8296,4.8296,4.8296,4.8296,4.8296,4.8296,4.8296,4.8296,4.8296,4.8296,4.8296,4.8296,4.8296,4.8296,4.8296,4.8296,4.8296,4.8296,4.8296,4.8296,4.8296,5.1406,5.1406,5.1406,5.1406,5.1406,5.1406,5.1406,5.1344,5.1319,5.1319,5.1285,5.1226,5.1072,5.0903,5.081,5.081,5.073,5.0707,5.0707,5.0707,5.0707,5.0707,5.0707,5.0707,5.0707,5.0707,5.0707,5.0707,5.0707,5.0707,5.0707,5.0707,5.0707,5.0707,5.0707,5.0707,5.0707,5.0707,5.0707,5.0707,5.0707,5.0707,5.0707,5.0707,5.0707,5.0707,5.0707,5.0707,5.0707,5.0707,5.0707,5.0707,5.0707,5.0707,5.0707,5.0707,5.0707,5.0707,5.0707,5.0707,5.0707,5.0707,5.0707,5.0707,5.0707,5.0707,5.0707,5.0707,5.0707,5.0707,5.0707,5.0707,5.0707,5.0707,5.0707,5.0707,5.0707,5.0707,5.0707,5.0707,5.0707,5.0707,5.0707,5.0707,5.0707,5.0707,5.0707,5.0707,5.0707,4.9936,4.9496,4.9496,4.8719,4.8296,4.8296,4.8296,4.8296,4.8296,4.8296,4.8296,4.8296,4.8296,4.8296,4.8296,4.8296,4.8296,4.8296,4.8296,4.8296,4.8296,4.8296,4.8296,4.8296,4.8296,4.8296,4.8296]}]]